(This page will refresh every three minutes)

Citizen's Weather Reports

count Call report agetempspeedgustdirectionrain*rain 24hrain midnighthumiditybarometerQAWeb
1 DW9944 00:00:00:01 70045992.8
**
 
2 EW8414 00:00:00:01 60515249000601010.9
**
 
3 DW8320 00:00:00:01 2800201000911016.2
**
 
4 EW1658 00:00:00:01 3612263000681013.7
**
 
5 EW0812 00:00:00:01 5102000511014.7
**
 
6 DW7580 00:00:00:01 5200308000521014.0
**
 
7 EW6845 00:00:00:01 550229600461017.0
**
 
8 EW1134 00:00:00:01 4314222000991019.8
**
 
9 DW9936 00:00:00:01 380036000921020.3
**
 
10 CW3643 00:00:00:01 621318502.130941017.9
**
**
11 EW7304 00:00:00:01 500022000751019.2
**
 
12 CW4610 00:00:00:01 481101810.020.510.19921007.4
**
 
13 EW0275 00:00:00:01 2900262000801016.5
**
 
14 FW0619 00:00:00:01 44000000871017.6  
15 EW2830 00:00:00:01 5425760401006.7
**
 
16 FW1141 00:00:00:01 3125161000921004.8  
17 CW5877 00:00:00:01 5200337
**
 
18 EW8966 00:00:00:01 3400000751014.5
**
 
19 DW5617 00:00:00:01 00001015.9
**
 
20 FW1490 00:00:00:01 5147221000581010.3
**
 
21 EW4787 00:00:00:02 420025200.170931001.1
**
 
22 CW2321 00:00:00:02 4202000.07089995.7
**
 
23 CW0630 00:00:00:02 3001184000851018.9
**
**
24 CW0443 00:00:00:02 590019100991016.9
**
 
25 DW3094 00:00:00:02 4234140000571014.3
**
 
26 ew5759 00:00:00:02 3323133000651016.3
**
 
27 EW4881 00:00:00:02 3200218000811015.3
**
 
28 EW3082 00:00:00:02 5213129000581013.4
**
 
29 EW8655 00:00:00:02 37912222000721006.0
**
 
30 EW4595 00:00:00:02 699181600.010.010.01601008.0
**
 
31 CW0052 00:00:00:02 2700275000841011.9
**
 
32 DW4366 00:00:00:02 50516243000371016.3
**
 
33 DW9330 00:00:00:02 3101215000781017.9
**
 
34 DW9729 00:00:00:02 3100357000801018.8
**
 
35 EW8829 00:00:00:02 3100000771012.6
**
 
36 EW8958 00:00:00:02 2500000781015.1
**
 
37 EW7705 00:00:00:02 3202206000971025.2
**
**
38 CW5084 00:00:00:02 32413203000771015.9
**
 
39 CW9335 00:00:00:02 310011100681017.8
**
 
40 FW0080 00:00:00:02 5012147000421013.8  
41 FW0403 00:00:00:02 581242000551019.8  
42 CW2462 00:00:00:02 7300229000311016.7
**
 
43 EW6665 00:00:00:02 323522600581012.4
**
 
44 CW2394 00:00:00:02 3400359000921017.3  
45 EW8955 00:00:00:02 2700240000821017.6
**
 
46 EW2510 00:00:00:02 5000000461019.8
**
 
47 EW6485 00:00:00:02 5224214000391017.6
**
 
48 dw9691 00:00:00:03 53000000871021.7
**
 
49 CW2651 00:00:00:03 470420200.080881006.1  
50 DW8622 00:00:00:03 4736275000901007.0
**
 
51 EW5868 00:00:00:03 4403196000601015.6
**
 
52 DW5785 00:00:00:03 435918700821015.7
**
 
53 CW0453 00:00:00:03 5669168000601009.7
**
**
54 DW6064 00:00:00:03 3103103000731016.8
**
**
55 DW6368 00:00:00:03 7200308000531012.2
**
 
56 CW6175 00:00:00:03 50152020.050.090.06911007.6
**
 
57 EW4076 00:00:00:03 6401283000831018.6
**
 
58 EW8598 00:00:00:03 3534158000611098.4
**
 
59 EW7156 00:00:00:03 3601247000601017.4  
60 EW7153 00:00:00:03 532426900.990.78941018.1
**
 
61 EW7158 00:00:00:03 461222501.150.75971003.7
**
 
62 CW4014 00:00:00:03 3301337000661016.2  
63 DW2913 00:00:00:03 4548192000711016.5
**
 
64 DW5510 00:00:00:03 430217900.170871005.5
**
 
65 DW3102 00:00:00:03 440059000871016.3
**
 
66 DW5092 00:00:00:03 6418220000371006.1
**
 
67 DW6865 00:00:00:03 5027233000891012.0
**
 
68 DW7896 00:00:00:03 3302283000721015.0
**
 
69 EW1855 00:00:00:03 494624800.010.01701021.8
**
 
70 DW5894 00:00:00:03 556175054993.1
**
 
71 EW8050 00:00:00:03 4701277000811019.0
**
 
72 EW8391 00:00:00:03 6700322000661018.2
**
 
73 EW7173 00:00:00:03 2600292000831014.4
**
 
74 EW1870 00:00:00:03 4415178000681017.6
**
 
75 EW4341 00:00:00:03 330240821016.5
**
 
76 FW1573 00:00:00:03 370022700661018.0
**
 
77 FW0254 00:00:00:03 2600000841014.3  
78 DW2923 00:00:00:04 50122524500.420.12871011.5
**
 
79 DW6150 00:00:00:04 3100146000731014.9
**
 
80 EW3070 00:00:00:04 7400244000321011.0
**
 
81 EW4055 00:00:00:04 540129300721014.2
**
 
82 EW6457 00:00:00:04 4039247000701014.5
**
 
83 EW4925 00:00:00:04 5600215000581015.8
**
 
84 DW9353 00:00:00:04 27000000831014.7
**
 
85 EW7997 00:00:00:04 570191000711010.8
**
 
86 DW9996 00:00:00:04 4881421600073994.5
**
 
87 CW4150 00:00:00:04 47366700.010921011.4
**
**
88 EW9327 00:00:00:04 6900271000451012.0
**
 
89 DW2728 00:00:00:04 5437234000561011.0
**
 
90 FW0043 00:00:00:04 460027000881017.8  
91 EW7971 00:00:00:04 56121424700.020.02711013.8
**
 
92 EW7164 00:00:00:04 28101228900.030.0169990.1  
93 DW7722 00:00:00:04 440110800.110.01911003.5
**
 
94 EW6033 00:00:00:04 2900320000851014.4
**
 
95 EW0083 00:00:00:04 480027000071951.0
**
 
96 EW8127 00:00:00:04 000001018.0
**
 
97 FW1813 00:00:00:04 640237000771022.2  
98 FW1510 00:00:00:04 670112000  
99 ew6884 00:00:00:05 491226000401019.9  
100 CW3077 00:00:00:05 5515154000421019.3
**
**
101 EW2288 00:00:00:05 322531300.07090982.7
**
 
102 DW3089 00:00:00:05 3717231610.080.670.0797996.7
**
 
103 DW6509 00:00:00:05 39000000551024.1
**
 
104 DW1154 00:00:00:05 4600000771016.5
**
 
105 CW3398 00:00:00:05 5301110000481018.7
**
 
106 EW0211 00:00:00:05 4200491011.8
**
 
107 EW4219 00:00:00:05 3600289000771014.6
**
 
108 CW7146 00:00:00:05 3000128000831016.6
**
 
109 CW9991 00:00:00:05 5500240000681017.9
**
 
110 CW7563 00:00:00:05 530319500.360.29831014.8
**
 
111 CW3590 00:00:00:05 47000000661017.4
**
**
112 DW6030 00:00:00:05 7181321000.010731025.1
**
**
113 EW2834 00:00:00:05 48003000.270.26951016.2
**
 
114 DW4702 00:00:00:05 510000.650.36751015.1
**
 
115 EW3131 00:00:00:05 7303278000251018.0
**
 
116 EW3816 00:00:00:05 4702178000651017.1
**
 
117 FW0666 00:00:00:05 472436000.310.18931016.0
**
 
118 FW0930 00:00:00:05 3800352000601015.6
**
 
119 EW9168 00:00:00:05 2801000721014.4
**
 
120 EW6280 00:00:00:05 4851418000.140.14851012.1  
121 DW0345 00:00:00:06 780029300029
**
 
122 DW9399 00:00:00:06 5714200000481018.1
**
 
123 DW2952 00:00:00:06 470818000.010901006.1
**
 
124 EW5516 00:00:00:06 6300000821017.8
**
 
125 CW9561 00:00:00:06 3702170781024.2
**
 
126 DW6650 00:00:00:06 5101325000821016.9
**
 
127 CW2148 00:00:00:06 3300225000501014.1
**
**
128 CW6881 00:00:00:06 481619100.70.31911012.4
**
 
129 CW8733 00:00:00:06 6700000231013.7
**
 
130 DW2495 00:00:00:06 6700221000411012.3
**
 
131 EW5524 00:00:00:06 29002010871014.4
**
 
132 DW2470 00:00:00:06 5717242051994.0
**
 
133 DW7187 00:00:00:06 3000000811015.4
**
 
134 EW5826 00:00:00:06 3213202000811016.5
**
 
135 CW7587 00:00:00:06 2900270000801010.5
**
 
136 CW8095 00:00:00:06 560217000411016.9
**
 
137 EW7762 00:00:00:06 4300236000891012.7
**
 
138 EW2145 00:00:00:06 34913249000561006.3
**
 
139 DW2370 00:00:00:06 6900000441012.0
**
 
140 EW6962 00:00:00:06 3324158000801020.0
**
 
141 FW0074 00:00:00:06 561519292000351007.9
**
 
142 CW2426 00:00:00:06 550000.040.04641008.0
**
 
143 EW0177 00:00:00:06 3735158000761012.2
**
 
144 EW4819 00:00:00:06 4000000.090931005.3
**
 
145 DW2217 00:00:00:06 2900000761012.7
**
 
146 EW7723 00:00:00:06 4702338000701046.8
**
 
147 EW5285 00:00:00:06 400133700.070831009.2
**
 
148 DW6912 00:00:00:07 2700324000891017.1
**
 
149 CW7352 00:00:00:07 46101720400.050921002.0
**
 
150 EW0430 00:00:00:07 641231500.010.01851017.8
**
 
151 DW9925 00:00:00:07 53610292000431019.4
**
 
152 EW2805 00:00:00:07 7300265000471013.1
**
 
153 DW7918 00:00:00:07 27000000821013.6
**
 
154 EW7163 00:00:00:07 4100157000531018.6  
155 EW4043 00:00:00:07 5571084000311017.5
**
 
156 EW7827 00:00:00:07 5225180000571014.3
**
 
157 EW0461 00:00:00:07 3700154000721015.9
**
 
158 DW0251 00:00:00:07 3602192000611016.7
**
 
159 DW4738 00:00:00:07 6702000721015.9
**
 
160 CW4740 00:00:00:07 732424800.140.14911011.2
**
 
161 CW9454 00:00:00:07 3101490781014.2
**
 
162 EW2055 00:00:00:07 5305000781017.6
**
 
163 DW3566 00:00:00:07 4900000941020.3  
164 DW0818 00:00:00:07 530167000551016.1
**
 
165 DW4159 00:00:00:07 3000120000721015.9
**
 
166 FW0232 00:00:00:07 503521500.20.16841014.3
**
 
167 FW1161 00:00:00:07 2900270000751010.2  
168 FW0225 00:00:00:07 471440000881021.9
**
 
169 FW1326 00:00:00:07 670035000241015.4  
170 EW2754 00:00:00:07 3901174000271019.7
**
 
171 FW1491 00:00:00:07 410094
**
 
172 FW1654 00:00:00:07 420266000621017.9
**
 
173 EW3870 00:00:00:07 5424210000521027.7
**
 
174 CW8758 00:00:00:07 44002500055-109.5  
175 CW8812 00:00:00:07 2900000821014.3
**
 
176 CW5456 00:00:00:08 48141370.020.350.12941009.6
**
**
177 EW1823 00:00:00:08 46000000561017.2
**
 
178 CW5210 00:00:00:08 5101316000801018.0
**
 
179 EW7619 00:00:00:08 6500000651014.9
**
 
180 EW3700 00:00:00:08 4005178000661004.5
**
 
181 DW3693 00:00:00:08 503132740.041.030.88901013.7
**
 
182 EW6473 00:00:00:08 7200000211015.5
**
 
183 EW3918 00:00:00:08 514718000.630.26971015.6
**
 
184 EW8484 00:00:00:08 2400000961015.0
**
 
185 EW7565 00:00:00:08 363423900711014.3
**
 
186 EW5789 00:00:00:08 2700248000851016.4
**
 
187 CW6829 00:00:00:08 023500.9
**
 
188 EW5855 00:00:00:08 3000000771013.8
**
 
189 EW2616 00:00:00:08 33715270000261011.6
**
 
190 EW8980 00:00:00:08 7000000351009.9
**
 
191 EW8088 00:00:00:08 400000.070921005.6
**
 
192 EW4390 00:00:00:08 371627000.250941003.4
**
 
193 EW3190 00:00:00:08 331011292000591017.0
**
 
194 FW0168 00:00:00:08 620525100036892.0
**
 
195 FW0241 00:00:00:08 34000000621008.8  
196 CW7857 00:00:00:08 7200300000441012.1
**
 
197 DW4998 00:00:00:08 5949175000581011.0
**
 
198 DW9281 00:00:00:08 40000000961019.1
**
 
199 EW1347 00:00:00:08 5941225800042992.6
**
 
200 EW3829 00:00:00:08 4314279000481020.3
**
 
201 fw1498 00:00:00:08 48010000721017.2  
202 EW4722 00:00:00:08 3102345000681015.6
**
 
203 DW4339 00:00:00:08 8492248000201014.5
**
 
204 FW1318 00:00:00:08 48002500511016.0
**
 
205 FW1777 00:00:00:08 4600000591017.6  
206 DW8348 00:00:00:08 47000000481017.8
**
 
207 DW8004 00:00:00:09 3027288000771012.8
**
 
208 CW2906 00:00:00:09 5624000391023.4
**
 
209 EW5282 00:00:00:09 310000.010.0191016.4
**
 
210 CW3512 00:00:00:09 3300000771015.5
**
 
211 EW7436 00:00:00:09 4424189000741013.2
**
 
212 EW5862 00:00:00:09 4523300000541021.1
**
 
213 DW4331 00:00:00:09 7600000261012.0
**
 
214 EW6025 00:00:00:09 590100.030971016.0
**
 
215 DW1347 00:00:00:09 4112213000431020.6
**
 
216 DW8587 00:00:00:09 39263200.030.01951021.1
**
 
217 DW5602 00:00:00:09 530094000491017.3
**
 
218 DW4107 00:00:00:09 233727500.020.02761009.9
**
 
219 EW2566 00:00:00:09 360117900.080801005.7
**
 
220 CW7625 00:00:00:09 3900211000871016.6
**
 
221 EW2160 00:00:00:09 8319115000541015.0
**
 
222 DW7639 00:00:00:09 2400000841015.4
**
 
223 EW7944 00:00:00:09 390001.73094980.0
**
 
224 EW3720 00:00:00:09 490001.381.211001016.4
**
 
225 EW7216 00:00:00:09 5159141000871022.2
**
**
226 EW7191 00:00:00:09 563631600.370.35931016.1
**
 
227 EW1763 00:00:00:09 630166000931017.3
**
 
228 CW6351 00:00:00:09 3534180000701003.2
**
**
229 EW9449 00:00:00:09 512367000631013.5
**
 
230 DW8570 00:00:00:09 360017000801017.6
**
 
231 EW7764 00:00:00:09 500101.030.65911015.5
**
 
232 FW1088 00:00:00:09 4201266000881007.5  
233 EW1817 00:00:00:09 2900315000881019.7
**
 
234 EW3545 00:00:00:09 4802290000531002.9
**
 
235 DW5896 00:00:00:09 5520293500.010.0161993.5
**
 
236 FW1755 00:00:00:09 6300239000781019.1  
237 FW1786 00:00:00:09 5878113000451016.7  
238 EW4475 00:00:00:09 83211345000481015.9
**
 
239 DW1426 00:00:00:10 470027800691018.7
**
 
240 EW3096 00:00:00:10 4900000621015.2
**
 
241 EW2253 00:00:00:10 2900152000871013.7
**
 
242 DW7202 00:00:00:10 503620200.010.01891012.6
**
 
243 DW6276 00:00:00:10 4316180000681005.1
**
 
244 EW1940 00:00:00:10 440000.110891006.1
**
 
245 EW6498 00:00:00:10 2900000701014.9
**
 
246 DW8028 00:00:00:10 3649225000681014.4
**
 
247 cw5732 00:00:00:10 29000000711018.0
**
 
248 EW8201 00:00:00:10 51101924000068996.0
**
 
249 EW7337 00:00:00:10 8261097000481019.3  
250 EW0872 00:00:00:10 8114156000421018.7
**
 
251 EW7538 00:00:00:10 53613228000701019.5
**
 
252 EW7484 00:00:00:10 580022000451021.7  
253 EW5901 00:00:00:10 6923255000291015.7  
254 DW1289 00:00:00:10 3500000741017.2
**
 
255 DW3450 00:00:00:10 5417201000601008.9
**
 
256 DW7300 00:00:00:10 2900000821016.9
**
 
257 DW9301 00:00:00:10 5103881012.4
**
 
258 EW6476 00:00:00:10 570090000791022.1
**
 
259 CW3660 00:00:00:10 3102315000641014.4
**
**
260 EW6672 00:00:00:10 410000098922.7
**
 
261 EW4795 00:00:00:10 6411110000391013.8
**
 
262 EW8552 00:00:00:10 3300000691018.3
**
 
263 DW7146 00:00:00:10 34210321000761009.3
**
 
264 EW8782 00:00:00:10 50002130.060.090.01951008.0
**
 
265 EW9032 00:00:00:10 5768200000471004.3
**
 
266 CW1018 00:00:00:10 676733700.040.03931010.4
**
 
267 ew9290 00:00:00:10 310090000861017.5
**
 
268 CW4824 00:00:00:10 3000000781013.9
**
**
269 EW9686 00:00:00:10 3300000631016.7
**
 
270 EW5536 00:00:00:10 3100000831017.9
**
 
271 FW0391 00:00:00:10 403473000601018.3
**
 
272 DW3560 00:00:00:10 6424163000731019.1
**
 
273 FW0697 00:00:00:10 39000000621018.2
**
 
274 FW1005 00:00:00:10 7212157000471009.4
**
 
275 EW2670 00:00:00:10 6439225000281010.3
**
 
276 FW1038 00:00:00:10 420121100.020801005.2  
277 DW8234 00:00:00:10 62156801.351.35921012.1
**
 
278 DW0227 00:00:00:10 232722700.020831014.9
**
 
279 EW9023 00:00:00:10 7100000511010.1
**
 
280 EW8936 00:00:00:10 5500000321020.3
**
 
281 EW7645 00:00:00:10 4914184000531013.2
**
 
282 DW0558 00:00:00:10 7300000401013.4
**
 
283 DW4720 00:00:00:10 3401000841017.0
**
 
284 CW8746 00:00:00:10 6200000811012.7
**
 
285 DW4025 00:00:00:10 631217220.011.651.64961011.3
**
 
286 CW6242 00:00:00:10 5502000771020.3
**
 
287 CW4910 00:00:00:10 500030200.20.18811014.7
**
 
288 EW6390 00:00:00:11 3700137000871016.2
**
 
289 CW7945 00:00:00:11 3000000731016.7
**
 
290 EW0520 00:00:00:11 3438222000721014.9
**
 
291 EW7319 00:00:00:11 4803000661014.7
**
 
292 EW5056 00:00:00:11 3013186000891014.0
**
 
293 EW2809 00:00:00:11 2800000791018.8
**
 
294 DW7311 00:00:00:11 0000
**
 
295 EW1296 00:00:00:11 39411287000571016.4
**
 
296 EW7496 00:00:00:11 3001000711015.3
**
 
297 EW6095 00:00:00:11 6500000731021.4
**
 
298 EW8042 00:00:00:11 7300000341013.4
**
 
299 DW0051 00:00:00:11 3200000921018.7
**
 
300 EW2893 00:00:00:11 3758176000581015.3
**
 
301 CW0930 00:00:00:11 3700183000761025.8
**
 
302 CW6118 00:00:00:11 64000001016.2  
303 EW8536 00:00:00:11 2900000841014.1
**
 
304 EW6707 00:00:00:11 464820100.030831003.3
**
 
305 EW2569 00:00:00:11 5200000681013.2
**
 
306 EW5811 00:00:00:11 4651329200.090.09781005.7
**
 
307 DW9963 00:00:00:11 510200.340.27941012.4
**
 
308 DW3546 00:00:00:11 6203270000831020.0
**
 
309 DW6122 00:00:00:11 3302134000681018.4
**
 
310 CW7218 00:00:00:11 451569000671018.4
**
 
311 EW5303 00:00:00:11 27000000921018.3
**
 
312 DW4070 00:00:00:11 2800255000801018.5
**
 
313 EW4150 00:00:00:11 4503127000631016.6
**
 
314 EW6089 00:00:00:11 470000.890.52861012.2
**
 
315 DW3644 00:00:00:11 530246000491019.9
**
 
316 EW3376 00:00:00:11 542828000701016.7
**
 
317 CW5406 00:00:00:11 2600000881016.6
**
 
318 CW8310 00:00:00:11 2700286000861016.9
**
 
319 CW7794 00:00:00:11 6400000801018.4
**
 
320 EW9455 00:00:00:11 690000.040.04851009.2
**
 
321 EW9499 00:00:00:11 5236205000451015.6
**
 
322 EW5546 00:00:00:11 4300000751011.6
**
 
323 EW9542 00:00:00:11 2800000851026.9
**
 
324 DW3640 00:00:00:11 7401140351012.7
**
 
325 CW1478 00:00:00:11 41000000831019.1
**
 
326 EW5562 00:00:00:11 4212300000911017.8
**
 
327 EW6107 00:00:00:11 2801130000831016.8
**
 
328 EW9862 00:00:00:11 350100.070941005.7
**
 
329 EW9866 00:00:00:11 480314300.90.65971017.1
**
 
330 FW0052 00:00:00:11 460392000581016.4
**
 
331 DW5014 00:00:00:11 460515400.440.44941015.7  
332 FW0126 00:00:00:11 492911700.260.22871007.0  
333 DW1563 00:00:00:11 4871320200.010.01911011.9  
334 FW0229 00:00:00:11 3500000881017.7
**
 
335 FW0273 00:00:00:11 5513135000481017.0
**
 
336 EW8579 00:00:00:11 310043000931017.9
**
 
337 DW7229 00:00:00:11 2600000751014.3
**
 
338 EW9923 00:00:00:11 6800000801007.5
**
 
339 EW4321 00:00:00:11 371013273000731018.4
**
 
340 FW0757 00:00:00:11 7000000511011.1  
341 EW7168 00:00:00:11 5500247000341018.5  
342 DW7473 00:00:00:11 3200284000661018.8
**
 
343 EW8981 00:00:00:11 4912202000431020.3
**
 
344 EW5320 00:00:00:11 412423800066
**
 
345 FW0933 00:00:00:11 400361000711019.3
**
 
346 EW4557 00:00:00:11 4300000621014.4
**
**
347 FW1021 00:00:00:11 5200000441015.5
**
 
348 FW1136 00:00:00:11 59211324000911005.6  
349 DW8512 00:00:00:11 584722500033
**
 
350 EW7861 00:00:00:11 500300.620.5861015.0
**
 
351 EW5193 00:00:00:11 2500300000881015.2
**
 
352 EW1730 00:00:00:11 5748314000461024.4
**
 
353 FW1477 00:00:00:11 5559303000211024.4
**
 
354 FW0516 00:00:00:11 3739230000631012.6  
355 EW2751 00:00:00:11 74011165000561025.9  
356 FW1652 00:00:00:11 421421000.010811013.9  
357 FW1666 00:00:00:11 5123155000861011.7  
358 CW9087 00:00:00:11 2600000831012.5
**
 
359 DW6711 00:00:00:11 4200284000911017.8
**
 
360 DW5551 00:00:00:11 4303238000541024.7
**
 
361 CW0566 00:00:00:12 2700000851017.1
**
 
362 EW8144 00:00:00:12 3313145000991018.9
**
 
363 EW1587 00:00:00:12 39713204000721005.6
**
 
364 DW1254 00:00:00:12 570032000321019.2
**
 
365 CW7841 00:00:00:12 7400196000861010.4
**
 
366 EW5790 00:00:00:12 3000303000891018.3
**
 
367 DW0126 00:00:00:12 471423500.890.31951013.3
**
 
368 CW3232 00:00:00:12 35000000641013.8
**
 
369 EW6379 00:00:00:12 4468216000681006.6
**
 
370 DW0249 00:00:00:12 470350.020.860.41951013.5
**
 
371 DW8125 00:00:00:12 292476000811017.5
**
 
372 EW0611 00:00:00:12 3300000921018.1
**
 
373 DW7507 00:00:00:12 3100000641014.4
**
 
374 EW8914 00:00:00:12 2900000811018.5
**
 
375 EW3716 00:00:00:12 51610176000801006.4
**
 
376 EW2006 00:00:00:12 1010127089994.8
**
 
377 CW3024 00:00:00:12 371321900.31098963.4
**
 
378 DW7744 00:00:00:12 5044100000401012.0
**
 
379 EW9888 00:00:00:12 7200274000491010.0  
380 EW9901 00:00:00:12 500420500.020801010.3
**
 
381 EW9883 00:00:00:12 5800000431019.3
**
 
382 EW9813 00:00:00:12 3658170000581004.3
**
 
383 FW0746 00:00:00:12 7000000721011.2
**
 
384 FW0768 00:00:00:12 490000.920.34991017.6
**
 
385 FW0778 00:00:00:12 5200000691017.7  
386 FW0840 00:00:00:12 443311000711016.7  
387 FW1074 00:00:00:12 2700000911009.8  
388 CW6311 00:00:00:12 43002200.060.06901013.3
**
 
389 EW6179 00:00:00:12 63261880781017.9
**
 
390 DW9323 00:00:00:12 490622600.560.2591
**
**
391 FW0814 00:00:00:12 3334127000811014.9  
392 EW6071 00:00:00:12 5634182000561019.2
**
 
393 FW1543 00:00:00:12 58256000621014.4
**
 
394 FW1569 00:00:00:12 42213224000561022.2  
395 DW6244 00:00:00:12 75614288000861014.3
**
 
396 EW9475 00:00:00:12 7223292000601009.8
**
 
397 DW4657 00:00:00:12 3000244000501015.6
**
 
398 DW7594 00:00:00:13 3212256000731017.7
**
 
399 EW6780 00:00:00:13 340125700641016.7
**
 
400 EW0913 00:00:00:13 5601136000591008.0
**
 
401 EW1079 00:00:00:13 5139201000691012.9
**
 
402 DW8946 00:00:00:13 50014400.060.06991015.5  
403 EW0364 00:00:00:13 31000000871014.6
**
 
404 CW0937 00:00:00:13 5002030.02901007.9  
405 DW9328 00:00:00:13 89261700.010.01231004.7
**
 
406 EW9033 00:00:00:13 32002350751020.1
**
 
407 EW5798 00:00:00:13 26002140791019.1
**
 
408 DW9697 00:00:00:13 5500118000291019.6
**
 
409 EW9594 00:00:00:13 290011100.060.06801014.2
**
 
410 DW5671 00:00:00:13 33021840.043.73771018.0
**
 
411 EW2747 00:00:00:13 3800277000661017.4
**
 
412 FW0099 00:00:00:13 440100.070971006.5  
413 DW3025 00:00:00:13 5815132000461018.8
**
 
414 EW9240 00:00:00:13 510123300.520.38841013.9
**
 
415 FW0759 00:00:00:13 32715285000901017.9
**
 
416 FW0828 00:00:00:13 5514305000471012.6  
417 DW1147 00:00:00:13 280125800.20.01731012.3
**
 
418 EW6603 00:00:00:13 2600236000921018.8
**
 
419 EW6913 00:00:00:13 4901225000871017.9
**
 
420 EW8423 00:00:00:13 3200297000961017.0
**
 
421 FW1729 00:00:00:13 3929303000521017.6
**
 
422 Fw0501 00:00:00:13 6623243000251018.8
**
 
423 EW1228 00:00:00:14 52120000511015.2
**
 
424 EW8279 00:00:00:14 3401261000721017.0
**
 
425 DW8404 00:00:00:14 42000000661014.7
**
 
426 EW6606 00:00:00:14 4200203000601016.5
**
 
427 DW8710 00:00:00:14 4200000.11088
**
 
428 DW5033 00:00:00:14 66004400.350.19961008.1
**
 
429 EW7857 00:00:00:14 2900000.010861015.0
**
 
430 EW0797 00:00:00:14 36000000721016.8
**
 
431 DW3690 00:00:00:14 28000000.01861010.9
**
 
432 EW0603 00:00:00:14 3000195000811014.4
**
 
433 EW2874 00:00:00:14 5118166000601011.2
**
**
434 DW9240 00:00:00:14 7235353000181012.2
**
 
435 EW5930 00:00:00:14 28013500611014.9
**
 
436 CW3540 00:00:00:14 43151717600.040901003.5
**
 
437 DW0920 00:00:00:14 300328801.260.96871011.2
**
 
438 EW7989 00:00:00:14 512930700.140.14791012.9
**
 
439 EW6825 00:00:00:14 2700260000931018.6
**
 
440 DW5416 00:00:00:14 300030700.060.06771016.9
**
 
441 EW9007 00:00:00:14 5641910531006.2
**
 
442 EW1850 00:00:00:14 3600180000731006.0  
443 EW8179 00:00:00:14 52121622900065995.4  
444 EW3038 00:00:00:14 35024500.20821000.1
**
 
445 DW6479 00:00:00:14 8356180000461014.8
**
 
446 FW0485 00:00:00:14 34000000691016.3
**
 
447 CW1569 00:00:00:14 3502380751009.6
**
 
448 EW1284 00:00:00:14 502426300.790.62941017.3
**
 
449 FW1249 00:00:00:14 5701171000391019.5
**
 
450 CW4210 00:00:00:14 2934270000791012.1
**
 
451 CW6467 00:00:00:14 310024200081980.8
**
 
452 EW6818 00:00:00:14 35000000901017.9  
453 DW0067 00:00:00:14 4100000.030861009.8
**
 
454 FW1558 00:00:00:14 2913246000691015.3  
455 EW9674 00:00:00:14 511110800019996.9
**
 
456 EW1884 00:00:00:14 4171517000074974.2
**
**
457 EW2664 00:00:00:14 742519400.30.3951012.1
**
 
458 EW8630 00:00:00:14 3467360000831015.5  
459 EW6535 00:00:00:15 3938188000611004.0  
460 DW1926 00:00:00:15 797920000661025.6
**
 
461 CW0009 00:00:00:15 47001650.040.040.04881007.0
**
 
462 EW7160 00:00:00:15 45001800.010.310.31961017.0
**
 
463 EW5175 00:00:00:15 54000000531005.8
**
 
464 EW3730 00:00:00:15 3700229000781015.7
**
 
465 EW9789 00:00:00:15 40310252000711016.2
**
 
466 FW0140 .   
467 FW0220 00:00:00:15 310057000761020.7  
468 FW0312 00:00:00:15 373418000.020.02561004.7
**
 
469 DW7412 00:00:00:15 650316600501012.0
**
 
470 DW4579 00:00:00:15 4700191000591018.0
**
 
471 DW2176 00:00:00:15 28000000731014.4
**
 
472 EW8321 00:00:00:15 3601166000811017.7
**
 
473 EW8589 00:00:00:15 2600202000771016.4
**
 
474 CW2295 00:00:00:16 62121522200029997.8
**
**
475 EW2975 00:00:00:16 5624139000411017.2
**
 
476 DW8024 00:00:00:16 40252140.010.080.01891004.1
**
 
477 DW1088 00:00:00:16 5637244000421012.8
**
 
478 EW7277 00:00:00:16 3523265000971013.4
**
 
479 DW5529 00:00:00:16 660035900039
**
 
480 DW9470 00:00:00:16 4520208000691008.9
**
 
481 CW8508 00:00:00:16 750151000321013.5
**
 
482 CW7418 00:00:00:16 6208100.010.01821017.5
**
 
483 EW8580 00:00:00:16 3500331000861016.6
**
 
484 CW0294 00:00:00:16 750017500.350.35871011.3  
485 EW4007 00:00:00:16 3111290000581017.3
**
 
486 CW5689 00:00:00:16 3910156000661005.1
**
 
487 EW2206 00:00:00:16 33003400.0101001018.0
**
 
488 EW4421 00:00:00:16 40000000761016.9
**
 
489 cw4507 00:00:00:16 75167000301019.8
**
 
490 DW5828 00:00:00:16 363199000691005.6
**
 
491 EW7440 00:00:00:16 380339000721017.1
**
 
492 CW6459 00:00:00:16 6405316000581019.9
**
 
493 dw8180 00:00:00:16 5330330000551016.3
**
 
494 EW5198 00:00:00:16 6200116000731013.7
**
 
495 EW7899 00:00:00:16 3105110000841011.8
**
 
496 DW9245 00:00:00:16 525225381019.1
**
 
497 EW1968 00:00:00:16 54211570007865.0
**
 
498 DW9972 00:00:00:16 5812621100035
**
 
499 CW0476 00:00:00:16 2900158000731014.4
**
 
500 EW8849 00:00:00:16 472615801.050.53931012.5
**
 
501 EW9010 00:00:00:16 48714208000451016.2
**
 
502 EW9658 00:00:00:16 7830360000171016.8
**
 
503 DW7491 00:00:00:16 3400182000701010.4
**
 
504 FW0007 00:00:00:16 29000000661014.4
**
 
505 EW9102 00:00:00:16 631623233000321003.3
**
 
506 DW3472 00:00:00:16 49318500.350.11871010.6
**
 
507 FW0150 00:00:00:16 52690000881023.0
**
**
508 FW0292 00:00:00:16 4100000.10941006.7
**
 
509 FW0366 00:00:00:16 4900124000551018.7
**
 
510 EW1380 00:00:00:16 48000000951024.5
**
 
511 EW3921 00:00:00:16 5601000025982.6
**
 
512 FW0105 00:00:00:16 3700154000791019.0  
513 FW1624 00:00:00:16 740190000351014.4  
514 DW9351 00:00:00:16 001730001018.2
**
 
515 CW0325 00:00:00:16 505919200.720.351001011.6
**
 
516 EW4741 00:00:00:16 3512203000661008.1
**
 
517 DW9643 00:00:00:17 3100194000831016.3
**
 
518 EW1674 00:00:00:17 7826252000441013.9
**
 
519 EW8556 00:00:00:17 2800189000791017.5
**
 
520 CW9774 00:00:00:17 5746200000611007.2
**
 
521 EW0880 00:00:00:17 3716292000721014.5
**
 
522 EW5439 00:00:00:17 5600000.010.01651019.5
**
 
523 EW8625 00:00:00:17 700266000461019.7
**
 
524 DW7967 00:00:00:17 53000000501017.4
**
 
525 EW0079 00:00:00:17 5201152000451025.1
**
 
526 CW2530 00:00:00:17 3859289000671016.0
**
 
527 EW1985 00:00:00:17 4800000.15094996.8
**
 
528 EW4964 00:00:00:17 3100000.010921016.7
**
 
529 DW3393 00:00:00:17 680014400.050.05931008.1  
530 DW6359 00:00:00:17 340178000681013.2
**
 
531 EW6055 00:00:00:17 513920500.570.45921014.2
**
 
532 CW9455 00:00:00:17 4048355000531014.6
**
**
533 EW6996 00:00:00:17 5328144000391026.3
**
 
534 DW2583 00:00:00:17 5712208000421017.3  
535 EW7122 00:00:00:17 3581227600.030.0390995.0
**
 
536 DW4939 00:00:00:17 5237150000741025.1
**
 
537 EW7856 00:00:00:17 383153000711014.3
**
 
538 EW2625 00:00:00:17 68053000361012.7
**
 
539 EW9226 00:00:00:17 280225000
**
 
540 CW7186 00:00:00:17 290334000771016.3
**
 
541 DW6919 00:00:00:17 30009200.010.01721012.5
**
 
542 FW0538 00:00:00:17 591824234000451015.6  
543 FW0862 00:00:00:17 84174000.350421015.8  
544 FW0969 00:00:00:17 3259192000741006.2
**
 
545 EW2015 00:00:00:17 331214800073977.2
**
 
546 FW1041 00:00:00:17 7600275000221018.2  
547 EW9795 00:00:00:17 4000246000651016.6
**
 
548 EW5922 00:00:00:17 370000001001020.5
**
 
549 EW4000 00:00:00:17 -300000060994.8
**
**
550 EW7884 00:00:00:17 5000165000621018.9
**
 
551 EW6139 00:00:00:17 490083000771019.1
**
 
552 DW3085 00:00:00:17 2900122000821007.1
**
 
553 DW7052 00:00:00:17 7000225000211015.0
**
 
554 EW5233 00:00:00:17 30000000441026.1
**
 
555 CW3200 00:00:00:18 5100227000441016.8
**
 
556 CW2340 00:00:00:18 270021900080989.8  
557 CW9560 00:00:00:18 310620200.020831001.6
**
 
558 EW0356 00:00:00:18 35000000551015.7
**
 
559 DW7835 00:00:00:18 68000000301017.5
**
**
560 EW7844 00:00:00:18 39000000931016.5
**
 
561 DW6062 00:00:00:18 3304194000771015.8
**
 
562 CW7399 00:00:00:18 3300292000701016.6  
563 DW5815 00:00:00:18 4100135000621005.3
**
 
564 EW7174 00:00:00:18 3200112000701018.1  
565 DW5936 00:00:00:18 450000.070.220.12931006.5
**
 
566 EW7522 00:00:00:18 290221000711013.9
**
 
567 EW5775 00:00:00:18 551320700084998.6
**
 
568 EW6819 00:00:00:18 3436198000611010.6
**
 
569 EW1789 00:00:00:18 601425500.020.02761018.8
**
 
570 DW0156 00:00:00:18 7829200000511012.6
**
 
571 CW8637 00:00:00:18 3238194000681012.3
**
 
572 EW2956 00:00:00:18 26000000871017.0
**
 
573 DW4148 00:00:00:18 6126251000441018.3
**
 
574 DW3921 00:00:00:18 7626138000331024.4
**
**
575 DW4827 00:00:00:18 5231612201.331.14721010.9
**
**
576 DW3400 00:00:00:18 4641322100.010871007.7
**
 
577 EW4330 00:00:00:18 52003150001001021.0
**
 
578 EW5670 00:00:00:18 470029200.120731002.7
**
 
579 EW1183 00:00:00:18 3000191000821018.0
**
 
580 DW3135 00:00:00:18 7423273000271011.5
**
 
581 EW5571 00:00:00:18 5600271000551019.7
**
 
582 DW7589 00:00:00:18 5612176000451018.7
**
 
583 EW8784 00:00:00:18 5691422400.030741014.1
**
 
584 DW5950 00:00:00:18 543717400.020741019.9
**
 
585 EW1423 00:00:00:18 423612500.010921014.6
**
 
586 EW7165 00:00:00:18 3416202000691013.1
**
 
587 EW3507 00:00:00:18 5224298000791018.8
**
 
588 EW2707 00:00:00:18 352476000711017.2
**
 
589 EW0852 00:00:00:18 4000312000641016.5
**
 
590 FW0734 00:00:00:18 8361327000501019.1
**
 
591 FW0782 00:00:00:18 47682700.010.070.01911007.0
**
**
592 FW1125 00:00:00:18 48239000046793.8  
593 CW4396 00:00:00:18 4337183000691007.9
**
 
594 EW8163 00:00:00:18 4701247000771025.8
**
 
595 DW6875 00:00:00:18 4003180000971020.4
**
 
596 EW3645 00:00:00:18 3900000.260.011001018.8
**
 
597 EW8446 00:00:00:18 300086000851012.6
**
 
598 CW1244 00:00:00:18 5412162700.010.110.11821014.1
**
 
599 CW0153 00:00:00:18 3814324000621014.1
**
 
600 EW8248 00:00:00:18 3900000916.9  
601 cw5111 00:00:00:19 4014241000891005.6
**
 
602 DW1762 00:00:00:19 4602338000501015.5
**
 
603 CW3454 00:00:00:19 4100105000841016.7
**
 
604 dw6791 00:00:00:19 42000000861018.9
**
 
605 DW6352 00:00:00:19 3738193000651003.4
**
 
606 DW2488 00:00:00:19 9127112000321013.2
**
 
607 EW1148 00:00:00:19 3612202000671015.8
**
 
608 EW2978 00:00:00:19 47000000541020.7
**
 
609 DW9310 00:00:00:19 3351220900681010.2
**
 
610 EW5545 00:00:00:19 470023300.010.01901021.0
**
**
611 DW6997 00:00:00:19 413625600.010851004.6
**
 
612 EW1354 00:00:00:19 452521101.740961008.7
**
 
613 CW9352 00:00:00:19 440389000601018.8
**
**
614 EW6503 00:00:00:19 782393000301006.7
**
 
615 EW1091 00:00:00:19 500010400.580.48911015.9
**
 
616 EW7503 00:00:00:19 470127000.710941009.5
**
 
617 EW4225 00:00:00:19 30000000841011.9
**
 
618 EW2581 00:00:00:19 521828360000531013.8
**
 
619 DW9177 00:00:00:19 6801131000241012.5
**
 
620 EW0150 00:00:00:19 421017209000861016.6
**
 
621 DW6268 00:00:00:19 50009000.010911022.9
**
 
622 CW1074 00:00:00:19 500120082993.0
**
 
623 DW0427 00:00:00:19 31000000931007.6
**
 
624 EW5053 00:00:00:19 32000000711016.1
**
 
625 DW9477 00:00:00:19 61516248000351021.6
**
 
626 EW1881 00:00:00:19 549152440.010.090.09811012.6
**
 
627 cw0238 00:00:00:19 34000000831016.2
**
**
628 EW1556 00:00:00:19 5091628600.20.17771012.5
**
 
629 EW8935 00:00:00:19 40000000701014.6
**
 
630 DW1450 00:00:00:19 3700322000881017.3
**
 
631 DW1770 00:00:00:19 26005000681013.3
**
 
632 EW7217 00:00:00:19 600090000881019.6  
633 EW2255 00:00:00:19 3102146000861005.7
**
 
634 CW9800 00:00:00:19 504732000.030.03871016.1
**
 
635 DW0496 00:00:00:19 2700277000881013.7
**
 
636 EW4319 00:00:00:19 4614198000501013.8
**
 
637 FW0129 00:00:00:19 592526900037988.7
**
 
638 FW0400 00:00:00:19 3024239000751014.3  
639 DW8750 00:00:00:19 5436221000871021.8
**
 
640 EW7421 00:00:00:19 78012297000761007.6
**
 
641 EW1617 00:00:00:19 500031502.42901015.0
**
 
642 EW8250 00:00:00:19 4900156000911007.8
**
 
643 FW1092 00:00:00:19 51414184000871015.7  
644 FW0620 00:00:00:19 41000000641018.5  
645 EW5659 00:00:00:19 420023500.030891006.2
**
 
646 FW1413 00:00:00:19 6900284000321012.5
**
 
647 EW7155 00:00:00:19 27126700.010771013.7  
648 EW6377 00:00:00:19 351310000.53083991.2
**
 
649 CW5217 00:00:00:19 3000217000671014.8
**
 
650 DW8376 00:00:00:20 3122225000
**
 
651 EW5893 00:00:00:20 61013401.791.79841011.1
**
 
652 EW7755 00:00:00:20 55810221000361012.9
**
 
653 DW4557 00:00:00:20 370112000891018.5
**
 
654 EW8593 00:00:00:20 590521400.190.181001016.9
**
 
655 DW8604 00:00:00:20 48242140.020.060.02901008.5
**
 
656 DW8780 00:00:00:20 28000000891018.6
**
 
657 EW0172 00:00:00:20 5602179000791021.6
**
 
658 EW3727 00:00:00:20 3803000.070881005.1
**
 
659 DW8201 00:00:00:20 491521300.080901006.6
**
 
660 DW9352 00:00:00:20 63000000801016.1
**
 
661 DW2221 00:00:00:20 32000000661015.7
**
 
662 DW0148 00:00:00:20 360163000871019.8
**
**
663 EW5417 00:00:00:20 6614146000871014.9
**
 
664 DW7501 00:00:00:20 324717600.010.01821008.8
**
 
665 DW8341 00:00:00:20 750071000291014.0  
666 EW1713 00:00:00:20 571425248000421014.6
**
 
667 DW1185 00:00:00:20 830000001001019.9  
668 EW0419 00:00:00:20 3001314000751013.7
**
 
669 DW6725 00:00:00:20 36513218000601013.5
**
 
670 EW0767 00:00:00:20 2700224000811017.7
**
 
671 EW5450 00:00:00:20 52311213000751020.6
**
 
672 CW0234 00:00:00:20 6700144000711018.6
**
 
673 EW8677 00:00:00:20 421420700064830.9
**
 
674 EW5673 00:00:00:20 47262270.060.090.06941006.4
**
 
675 DW0215 00:00:00:20 4900280000821019.5
**
 
676 EW8939 00:00:00:20 2700000.010991013.6
**
 
677 EW8375 00:00:00:20 64718271000261007.7
**
 
678 EW4118 00:00:00:20 28000000861012.4
**
 
679 EW6828 00:00:00:20 77411138000451005.0  
680 EW4610 00:00:00:20 430018000771006.0
**
 
681 EW8950 00:00:00:20 395722500063987.9
**
 
682 EW9120 00:00:00:20 32128400.01094949.2
**
 
683 EW5173 00:00:00:20 26000000901016.2
**
**
684 FW0190 00:00:00:20 330068000761014.2
**
 
685 DW4505 00:00:00:20 45000000781016.3
**
 
686 EW2725 00:00:00:20 3000271000881015.5
**
 
687 FW0561 00:00:00:20 4205266000231024.7
**
 
688 CW8839 00:00:00:20 2700162000931017.4
**
**
689 EW2281 00:00:00:20 2600244000811015.9
**
 
690 DW6063 00:00:00:20 7302234000261013.6  
691 FW1683 00:00:00:20 562431500441019.3
**
 
692 CW9900 00:00:00:20 3800310000541018.4
**
 
693 DW0491 00:00:00:21 00006.5501016.5
**
 
694 CW3644 00:00:00:21 686115400.890.61001089.1
**
 
695 DW1880 00:00:00:21 3200278000741011.8
**
 
696 EW1468 00:00:00:21 47000000631016.0
**
 
697 CW1550 00:00:00:21 3100275000771018.1
**
**
698 DW5812 00:00:00:21 8011221100.050.050.05901010.9
**
 
699 CW4629 00:00:00:21 320018000076970.1
**
 
700 DW5425 00:00:00:21 2900152000841017.1
**
 
701 EW4437 00:00:00:21 33000000671017.0
**
 
702 DW9145 00:00:00:21 3813112000621005.0
**
 
703 EW1292 00:00:00:21 77000000201014.7
**
 
704 EW4932 00:00:00:21 5100000.310.26861015.0
**
 
705 ew2633 00:00:00:21 31000000811016.6
**
 
706 EW4696 00:00:00:21 52000000591019.1
**
 
707 CW0465 00:00:00:21 292224600.010681019.5
**
**
708 DW1261 00:00:00:21 5813304000321015.6
**
 
709 EW2435 00:00:00:21 41000000891017.1
**
 
710 EW7377 00:00:00:21 4624178000571023.9
**
 
711 EW6864 00:00:00:21 541228500.030.03701012.8
**
 
712 CW6401 00:00:00:21 3405258000671015.5
**
 
713 EW2796 00:00:00:21 492715500.480.29961011.2
**
 
714 EW5804 00:00:00:21 3501354000861018.8
**
 
715 CW5061 00:00:00:21 62013500.020.050.05931017.6
**
 
716 DW2058 00:00:00:21 50007400.450.4841015.4
**
 
717 DW2168 00:00:00:21 40132317900.060751004.0
**
 
718 CW0657 00:00:00:21 5161113500.040831005.1
**
 
719 CW5480 00:00:00:21 2900269000761013.2
**
**
720 CW5520 00:00:00:21 790010200071011.3
**
 
721 EW8486 00:00:00:21 46253090.060.220.22591005.8
**
 
722 CW4909 00:00:00:21 3400172000691013.2
**
 
723 DW4130 00:00:00:21 510327000.320.27761011.7
**
 
724 EW3086 00:00:00:21 430312200.460901006.5
**
 
725 EW2671 00:00:00:21 4800000038997.0
**
 
726 DW6285 00:00:00:21 7600241000361013.2
**
 
727 EW5239 00:00:00:21 42101222500.010871014.2
**
 
728 EW8739 00:00:00:21 4322225000841013.5
**
 
729 DW5858 00:00:00:21 59711220000531001.7
**
 
730 EW9090 00:00:00:21 34000000721016.8
**
 
731 DW2505 00:00:00:21 5025194000191019.9
**
 
732 EW9197 00:00:00:21 3500203000721013.8
**
 
733 EW5095 00:00:00:21 5823215000431021.3
**
 
734 dw0019 00:00:00:21 30000000761016.3
**
 
735 EW9362 00:00:00:21 4001122000611016.0
**
 
736 CW1880 00:00:00:21 480225100.130791006.1
**
 
737 EW0303 00:00:00:21 5247160000421017.8  
738 EW9769 00:00:00:21 300018000831014.8
**
 
739 EW0068 00:00:00:21 391289000641027.8
**
 
740 FW0077 00:00:00:21 6226247000351006.1
**
 
741 FW0450 00:00:00:21 604816200.460911046.6
**
 
742 EW9448 00:00:00:21 5301270000651000.3
**
 
743 EW9035 00:00:00:21 46585831500.720101006.7
**
 
744 FW0528 00:00:00:21 7202225000331013.3
**
 
745 EW1616 00:00:00:21 4300335000771018.5
**
 
746 FW0720 00:00:00:21 50122000941021.0  
747 DW7106 00:00:00:21 72000000331013.3
**
 
748 EW0035 00:00:00:21 46121000621016.3  
749 CW0783 00:00:00:21 300024800064977.6
**
 
750 DW1341 00:00:00:21 480517800.660.29881008.2
**
 
751 CW3744 00:00:00:21 5800180000341010.2
**
 
752 FW1189 00:00:00:21 36241000691017.4
**
 
753 DW7675 00:00:00:21 76710313000.78531010.8
**
 
754 FW1584 00:00:00:21 35010000671016.4  
755 FW1511 00:00:00:21 49161680.011.010.48941012.9
**
 
756 EW4491 00:00:00:21 521017247000821017.1
**
 
757 EW5608 00:00:00:21 60000000721023.1
**
 
758 EW6358 00:00:00:22 41000000821016.0
**
 
759 DW7731 00:00:00:22 27000000691019.3
**
 
760 DW3224 00:00:00:22 480218200.280.18971011.6
**
 
761 EW0043 00:00:00:22 45000000511018.0
**
 
762 EW7205 00:00:00:22 7102179000191024.8
**
 
763 EW0399 00:00:00:22 4100000.02094992.9
**
 
764 DW5977 00:00:00:22 39513276000651014.8
**
 
765 EW4675 00:00:00:22 3000312000611016.7
**
 
766 CW6353 00:00:00:22 420114000791015.4
**
 
767 DW7171 00:00:00:22 6603277000561016.0
**
 
768 DW4879 00:00:00:22 4700270000541025.9
**
 
769 EW1878 00:00:00:22 8126278000451012.1
**
 
770 EW4320 00:00:00:22 4200000.030901003.9  
771 DW3331 00:00:00:22 31000000771017.2
**
**
772 EW5290 00:00:00:22 3901165000711009.3
**
 
773 EW6607 00:00:00:22 401538000601019.1
**
 
774 EW1057 00:00:00:22 34000000851016.3
**
 
775 CW5416 00:00:00:22 520020600.470.35631010.2
**
 
776 DW6963 00:00:00:22 3513181000681016.1
**
 
777 EW6123 00:00:00:22 33000000471013.3
**
 
778 DW9692 00:00:00:22 41010000481010.4
**
 
779 EW6587 00:00:00:22 4012158000851012.8  
780 DW2848 00:00:00:22 361217600.020.02671004.7
**
 
781 CW5367 00:00:00:22 290031000771016.4
**
 
782 EW6678 00:00:00:22 2903172000741011.6
**
 
783 CW8892 00:00:00:22 50373570.021.151.01891017.0
**
 
784 CW4840 00:00:00:22 6178001.691.69901012.0
**
 
785 EW8639 00:00:00:22 300312000075982.5
**
 
786 DW6399 00:00:00:22 3181513500096997.9
**
 
787 DW8816 00:00:00:22 4300000.030841005.1  
788 CW9197 00:00:00:22 308181810001001006.4
**
 
789 DW3150 00:00:00:22 6300145000851017.7
**
 
790 EW0871 00:00:00:22 35000000851015.8
**
 
791 cw6899 00:00:00:22 6100000.010.0183
**
 
792 DW8834 00:00:00:22 2600232000891018.1
**
 
793 EW7604 00:00:00:22 450124900.50.394970.2
**
 
794 DW4338 00:00:00:22 3945812710.040.840.0482986.8
**
 
795 CW3185 00:00:00:22 3351025500.030911001.2
**
 
796 CW0318 00:00:00:22 5500147000421015.9
**
**
797 EW8678 00:00:00:22 461716000061836.8
**
 
798 DW1295 00:00:00:22 4500231000591016.3
**
 
799 CW3847 00:00:00:22 6336171000501017.1
**
 
800 EW8907 00:00:00:22 463921000.080921005.4
**
 
801 EW8993 00:00:00:22 4700345000991018.6
**
 
802 EW6775 00:00:00:22 35030000711013.1
**
 
803 EW4394 00:00:00:22 330000.010.340.34811012.4
**
 
804 EW9311 00:00:00:22 106146700082993.5
**
 
805 EW2473 00:00:00:22 2702100.010.01101001.3
**
 
806 EW6130 00:00:00:22 3626000.060881001.7
**
 
807 EW9806 00:00:00:22 58215148000871008.7
**
 
808 DW9210 00:00:00:22 5061329200.050.05811008.7
**
 
809 CW7491 00:00:00:22 5031219600.550.1851012.4
**
 
810 FW0332 00:00:00:22 5281146000751017.0  
811 EW0311 00:00:00:22 3102100061995.3
**
**
812 FW0405 00:00:00:22 481200.231.311991011.1
**
 
813 DW6004 00:00:00:22 3202265000711016.1
**
 
814 EW0310 00:00:00:22 311322500.010.01701015.7
**
 
815 FW0627 00:00:00:22 370000.010941016.6
**
 
816 FW0810 00:00:00:22 4300351000941024.1
**
 
817 FW0770 00:00:00:22 320095000901016.7
**
 
818 DW9638 00:00:00:22 5261718800.060.0186
**
 
819 DW5335 00:00:00:22 410067000951013.7
**
 
820 EW4926 00:00:00:22 4100145000691027.3
**
 
821 CW7873 00:00:00:22 30000000851015.8
**
 
822 DW2600 00:00:00:22 3341310600098998.0
**
 
823 FW1377 00:00:00:22 4200000.060911005.9
**
 
824 FW0629 00:00:00:22 59000000181005.3  
825 EW1211 00:00:00:22 76411340000311014.7
**
 
826 EW8420 00:00:00:22 4500000.260.0488997.6  
827 EW1218 00:00:00:22 5916184000911021.0
**
 
828 EW0229 00:00:00:22 440026700.060.06681009.2
**
 
829 FW0735 00:00:00:22 5468309000641013.2
**
 
830 EW3052 00:00:00:22 771367000211011.4
**
 
831 EW1315 00:00:00:22 430000001001005.0
**
 
832 EW4814 00:00:00:22 3200000.030.03631015.0
**
 
833 DW1866 00:00:00:22 363418800054990.0
**
 
834 DW6643 00:00:00:22 421825600.020661004.9
**
 
835 DW2616 00:00:00:22 40000000691015.3
**
**
836 EW9724 00:00:00:22 6067141000261017.2  
837 EW4438 00:00:00:23 543624400.320.27771024.2  
838 EW7230 00:00:00:23 33128600.68092988.2
**
 
839 DW5396 00:00:00:23 5624186000591018.6
**
 
840 CW8540 00:00:00:23 3851621200071993.0
**
 
841 EW1385 00:00:00:23 3628263000641012.1
**
 
842 EW2047 00:00:00:23 41000000381013.7
**
 
843 CW2285 00:00:00:23 76230000311012.4
**
 
844 EW6185 00:00:00:23 3613210000601012.9
**
 
845 CW2235 00:00:00:23 4231027400.23084995.2
**
**
846 EW6210 00:00:00:23 5271418200054997.6
**
 
847 EW8119 00:00:00:23 5725169000261014.9
**
 
848 DW9783 00:00:00:23 50513250000571017.4
**
 
849 EW3651 00:00:00:23 5400000.010.01911020.2
**
 
850 CW7670 00:00:00:23 3000126000821017.9
**
 
851 CW0775 00:00:00:23 5251428100.020831009.0
**
 
852 DW1695 00:00:00:23 52162327500.550.24891014.3
**
**
853 CW3800 00:00:00:23 3500212000731016.2
**
 
854 EW2736 00:00:00:23 3424209000741014.2
**
 
855 CW7080 00:00:00:23 5600135000641009.4
**
 
856 EW1600 00:00:00:23 3513221930.030.420.0389980.1
**
 
857 DW9463 00:00:00:23 3312225000571005.3
**
 
858 EW3350 00:00:00:23 6271666000711022.9
**
 
859 DW8421 00:00:00:23 33000000951016.4
**
 
860 EW4918 00:00:00:23 2936243000861015.1
**
 
861 DW8321 00:00:00:23 5600000.020.02821019.5
**
 
862 DW2585 00:00:00:23 7713230000341014.2
**
**
863 EW0814 00:00:00:23 2302249000741013.2
**
 
864 DW8355 00:00:00:23 4800191000541017.3
**
 
865 EW5619 00:00:00:23 34000000721008.8
**
 
866 EW1923 00:00:00:23 3637207000681013.4
**
 
867 EW4350 00:00:00:23 38000000801018.1
**
 
868 DW7154 00:00:00:23 4005192000591020.4
**
 
869 DW8790 00:00:00:23 6813323000281015.4
**
 
870 EW4663 00:00:00:23 7000000.040.04891011.6
**
 
871 EW3342 00:00:00:23 7500265000301013.1
**
 
872 DW4029 00:00:00:23 57310296000531018.1
**
 
873 EW3149 00:00:00:23 33000000751015.5
**
 
874 EW4748 00:00:00:23 31000000801015.7
**
 
875 EW2260 00:00:00:23 7002199000421016.1
**
 
876 CW1909 00:00:00:23 5800000.020.02891019.1
**
**
877 DW5928 00:00:00:23 2616307000691015.9
**
 
878 EW3770 00:00:00:23 5925227000491018.7
**
 
879 EW6578 00:00:00:23 3529110000911017.1
**
 
880 EW2297 00:00:00:23 3312100.010841005.3
**
 
881 DW4248 00:00:00:23 41000000721013.9
**
 
882 DW9866 00:00:00:23 2869244000711013.3
**
**
883 CW5099 00:00:00:23 523724000.860.73821013.2
**
**
884 DW2070 00:00:00:23 68010000671012.6
**
**
885 EW0110 00:00:00:23 3300292000761011.8
**
 
886 CW1844 00:00:00:23 620017800.010.01871018.0
**
**
887 DW7662 00:00:00:23 815129100060
**
 
888 EW3995 00:00:00:23 210022000791011.6
**
 
889 DW5210 00:00:00:23 390025100.090911005.4
**
**
890 CW6440 00:00:00:23 3200315000761015.6
**
**
891 EW1500 00:00:00:23 520082000741018.3
**
 
892 cw0988 00:00:00:23 5551024000.010.01641010.7
**
 
893 CW1675 00:00:00:23 481220200.090.04901006.0
**
 
894 EW8856 00:00:00:23 6124254000841017.4
**
 
895 EW8885 00:00:00:23 3202187000791013.8
**
 
896 EW8920 00:00:00:23 3602312000551013.7
**
 
897 EW1049 00:00:00:23 48000000641016.4
**
 
898 EW1314 00:00:00:23 49000000801023.0
**
 
899 EW9554 00:00:00:23 29000000881018.2
**
 
900 cw9610 00:00:00:23 5324261000551011.2
**
 
901 EW9620 00:00:00:23 36000000731011.4
**
 
902 EW2961 00:00:00:23 50000000541014.5
**
 
903 DW6767 00:00:00:23 5777248000521006.0
**
 
904 DW2073 00:00:00:23 4302165000651016.8
**
**
905 DW8344 00:00:00:23 3858166000681003.4
**
 
906 FW0146 00:00:00:23 414624000.20761024.3  
907 EW0123 00:00:00:23 5041221400.540.21911009.3
**
 
908 EW7557 00:00:00:23 5414138000541021.7
**
 
909 FW0442 00:00:00:23 390214700.060901006.6  
910 FW0549 00:00:00:23 4526137000391021.3
**
 
911 CW7972 00:00:00:23 7462826100057
**
 
912 CW1656 00:00:00:23 3528235000691016.9
**
 
913 EW8576 00:00:00:23 310117600781002.8
**
 
914 EW9858 00:00:00:23 73006800381010.8
**
 
915 EW2997 00:00:00:23 26000000831016.2
**
 
916 EW7626 00:00:00:23 4312263000901029.6
**
 
917 FW1429 00:00:00:23 32000000761019.3
**
 
918 DW1159 00:00:00:23 36000000811014.8
**
 
919 FW1463 00:00:00:23 734728500.280.28911011.4  
920 DW3365 00:00:00:23 00006.5501004.4
**
 
921 ew2204 00:00:00:23 47518208000711005.1
**
 
922 FW1179 00:00:00:23 8433135000621015.1  
923 DW9577 00:00:00:23 6102171000561017.2
**
 
924 EW7825 00:00:00:23 6366179000381021.0
**
 
925 EW2032 00:00:00:23 510424100.040.04601014.5
**
 
926 FW1550 00:00:00:23 390068000711017.6  
927 EW0720 00:00:00:23 33000000811012.2
**
 
928 DW3725 00:00:00:23 343816400.61095989.8
**
 
929 EW2585 00:00:00:23 3522190000631023.1
**
 
930 CW2158 00:00:00:23 0-0.1
**
**
931 CW6563 00:00:00:23 53003600001969.4
**
 
932 DW7160 00:00:00:24 504920400.020751018.7
**
 
933 EW6904 00:00:00:24 37000000931015.9
**
 
934 EW2875 00:00:00:24 3281126700.110931002.3
**
 
935 DW8690 00:00:00:24 6047147000431017.0
**
 
936 EW7235 00:00:00:24 5524239000581010.2
**
 
937 DW0060 00:00:00:24 3567184000751016.2
**
 
938 DW9796 00:00:00:24 53000000491018.3
**
 
939 DW6236 00:00:00:24 471330800.010671007.8
**
 
940 DW6618 00:00:00:24 490221600.170.14911014.7
**
 
941 dw7649 00:00:00:24 29000000861017.4
**
 
942 EW4424 00:00:00:24 6901217000381010.9
**
 
943 CW1575 00:00:00:24 512341000441013.4
**
**
944 DW6903 00:00:00:24 3203284000571013.8
**
 
945 EW1628 00:00:00:24 61000000891018.1
**
 
946 EW4141 00:00:00:24 35814213000621015.4
**
 
947 EW0245 00:00:00:24 5137353000881025.0
**
 
948 EW2202 00:00:00:24 3749241000681013.5
**
 
949 EW0552 00:00:00:24 36010000721014.5
**
 
950 CW1404 00:00:00:24 2626167000791008.0
**
**
951 EW8125 00:00:00:24 39000000901015.8
**
 
952 CW0133 00:00:00:24 4812116000661017.3
**
**
953 CW3577 00:00:00:24 26000000781012.7
**
 
954 EW6866 00:00:00:24 40000000921017.1  
955 EW7358 00:00:00:24 4526323000651009.1
**
 
956 EW8016 00:00:00:24 460116700.030901007.1
**
 
957 CW2060 00:00:00:24 6100222000931016.9  
958 EW1161 00:00:00:24 36000000871018.9
**
**
959 DW0117 00:00:00:24 61000000751017.5
**
 
960 EW6449 00:00:00:24 69011000331013.7
**
 
961 EW7454 00:00:00:24 50009000031985.9
**
 
962 EW6753 00:00:00:24 4149201000641005.1
**
 
963 DW0639 00:00:00:24 3200207000791017.9
**
 
964 dw7240 00:00:00:24 38000000551014.0
**
**
965 EW7590 00:00:00:24 3100330000621015.0
**
 
966 CW4535 00:00:00:24 48000000671014.6
**
 
967 DW9424 00:00:00:24 3223307000651015.9
**
 
968 CW5250 00:00:00:24 330021700.030571014.3
**
**
969 CW3517 00:00:00:24 401420300.020951006.4
**
 
970 EW7520 00:00:00:24 32000000751017.1
**
 
971 DW2423 00:00:00:24 42000000831006.2
**
 
972 EW4828 00:00:00:24 311315500.760.54871011.7
**
 
973 EW2799 00:00:00:24 48000000841015.7
**
 
974 EW5309 00:00:00:24 31003470001001017.7
**
 
975 CW9234 00:00:00:24 6501340721016.5
**
 
976 EW4238 00:00:00:24 4841227000083996.4
**
 
977 EW7395 00:00:00:24 4000.401001005.8
**
 
978 CW9604 00:00:00:24 490125300.660.6951015.6
**
 
979 EW4570 00:00:00:24 3628292000601016.9
**
 
980 CW4669 00:00:00:24 532133202000411009.7
**
**
981 DW9929 00:00:00:24 54000000501015.5
**
 
982 EW9053 00:00:00:24
**
 
983 DW7883 00:00:00:24 46000000681016.6
**
**
984 dw7888 00:00:00:24 28000000921019.2
**
 
985 EW9675 00:00:00:24 817185100.040471011.4
**
 
986 EW7135 00:00:00:24 28000000881016.0
**
 
987 DW6659 00:00:00:24 502519601.321.01951016.5
**
 
988 DW9990 00:00:00:24 3603227000711015.8
**
 
989 FW0345 00:00:00:24 4602218000501012.8  
990 FW0394 00:00:00:24 5224160000641008.4
**
 
991 FW0505 00:00:00:24 5302165000341018.6
**
 
992 FW0644 00:00:00:24 3227320000651019.9
**
 
993 FW0665 00:00:00:24 5500213000311015.8
**
 
994 EW0161 00:00:00:24 40000000661015.1
**
 
995 EW8865 00:00:00:24 41001400.070941005.6
**
 
996 EW3804 00:00:00:24 5301113000461011.8
**
 
997 EW3018 00:00:00:24 45000000601018.2
**
 
998 DW7021 00:00:00:24 7514223000691010.5
**
 
999 CW9805 00:00:00:24 50152622500.140.14531000.1
**
 
1000 FW0990 00:00:00:24 523450000811018.3  
1001 CW9953 00:00:00:24
**
 
1002 DW8431 00:00:00:24 4300000.11011005.1
**
 
1003 CW5467 00:00:00:24 3500171000731013.7
**
 
1004 FW1197 00:00:00:24 5214172000881022.0
**
 
1005 FW1245 00:00:00:24 2914190000761013.6  
1006 FW1385 00:00:00:24 36010000751017.8
**
 
1007 FW1433 00:00:00:24 63717278000361010.7
**
 
1008 FW1096 00:00:00:24 2802118000721037.9  
1009 FW1475 00:00:00:24 47000000671019.1
**
 
1010 EW4470 00:00:00:24 4200000.060861006.8
**
 
1011 EW4893 .
**
 
1012 ew5948 00:00:00:24 4933247000221020.9
**
 
1013 EW0408 00:00:00:24 682822600.140.1941009.8
**
 
1014 DW7177 00:00:00:24 340227900.050911002.2
**
 
1015 EW0642 00:00:00:24 29000000861018.0
**
 
1016 CW5984 00:00:00:24 5371229300.010.01591013.0
**
 
1017 FW1710 00:00:00:24 8741210300.020521018.5  
1018 DW4294 00:00:00:24 4749298000851017.6
**
 
1019 EW8290 00:00:00:24 3900000916.9  
1020 DW9349 00:00:00:24 44000000861019.1
**
 
1021 DW8495 00:00:00:24 7325280.210.240.24891012.2
**
 
1022 EW0283 00:00:00:25 7200002.582.58871009.9
**
 
1023 EW6360 00:00:00:25 40000000761017.0
**
 
1024 EW5165 00:00:00:25 36000000821016.7
**
 
1025 CW8371 00:00:00:25 28000000761014.8
**
 
1026 EW0892 00:00:00:25 340140000681015.0
**
 
1027 DW3651 00:00:00:25 47137900.070881006.7
**
 
1028 DW5588 00:00:00:25 3302174000791011.8
**
 
1029 DW3512 00:00:00:25 291225500.020.02851009.8
**
 
1030 CW8077 00:00:00:25 30000000791011.8
**
 
1031 EW2546 00:00:00:25 2800261000841012.5
**
 
1032 CW1845 00:00:00:25 49000000701014.7
**
 
1033 CW9778 00:00:00:25 5081920700.610.31781006.8
**
 
1034 DW9188 00:00:00:25 497132380.050.40.4941008.1
**
 
1035 EW6328 00:00:00:25 8321325600.040.04291020.6
**
 
1036 EW1802 00:00:00:25 3401251000671016.4
**
 
1037 DW9321 00:00:00:25 52717276000331008.8
**
 
1038 CW1138 00:00:00:25 5471423600.120.11701005.6
**
 
1039 DW2455 00:00:00:25 4101730641018.3
**
 
1040 DW9138 00:00:00:25 6449342000301013.9
**
 
1041 EW0486 00:00:00:25 4227184000631005.4
**
 
1042 CW3518 00:00:00:25 5689181000401017.2
**
 
1043 DW0904 00:00:00:25 5212180000761020.1
**
 
1044 CW2710 00:00:00:25 5561224300.10.1641014.6
**
 
1045 EW1919 00:00:00:25 451322400981020.4
**
 
1046 FW0164 00:00:00:25 55000000541016.6  
1047 DW2781 00:00:00:25 5604235000471013.5
**
 
1048 DW4098 00:00:00:25 9337163000281019.4
**
 
1049 FW0305 00:00:00:25 600015000073903.7
**
 
1050 EW5250 00:00:00:25 26000000100981.6
**
**
1051 EW9259 00:00:00:25 55000000491017.7
**
 
1052 EW6188 00:00:00:25 3446237000691016.8
**
 
1053 FW1541 00:00:00:25 3837203000701014.6
**
 
1054 DW2843 00:00:00:25 41000000871005.3
**
 
1055 DW8452 00:00:00:26 47000000871020.7
**
 
1056 EW7933 00:00:00:26 3337188000681006.8
**
 
1057 DW5986 00:00:00:26 3500281000861017.3
**
 
1058 CW6135 00:00:00:26 365745000631025.5
**
 
1059 EW6396 00:00:00:26 4700159000891019.5
**
 
1060 CW5505 00:00:00:26 5931287000521018.3
**
**
1061 CW7840 00:00:00:26 5301135000511009.1
**
 
1062 EW7096 00:00:00:26 3234192000861017.0
**
 
1063 CW9579 00:00:00:26 51002400681017.3
**
 
1064 EW6724 00:00:00:26 5900000.020.02951018.1
**
 
1065 dw2812 00:00:00:26 5348212000611011.1
**
 
1066 EW2802 00:00:00:26 5348217000471019.3
**
 
1067 CW6010 00:00:00:26 47042550005814.5
**
 
1068 DW9846 00:00:00:26 48000000891012.2
**
 
1069 CW0126 00:00:00:26 3600000.1601
**
 
1070 DW4610 00:00:00:26 460535000.710.11951007.0
**
 
1071 DW1920 00:00:00:26 31814330000651013.5
**
 
1072 EW9704 00:00:00:26 5625144000421018.0
**
 
1073 EW7471 00:00:00:26 40000000541016.0
**
 
1074 EW1225 00:00:00:26 35022300321022.0
**
 
1075 DW9574 00:00:00:26 35000000771015.7  
1076 DW1436 00:00:00:26 351221100.080891002.5
**
 
1077 EW0483 00:00:00:26 3500134000741017.3
**
 
1078 DW6002 00:00:00:26 37000000621034.0
**
 
1079 DW6764 00:00:00:26 9128198000451006.9
**
 
1080 CW5345 00:00:00:26 48920200101019.1
**
 
1081 DW6220 00:00:00:27 51202420.24871006.6
**
 
1082 DW5562 00:00:00:27 6849302000851020.9
**
 
1083 EW7234 00:00:00:27 5402235000591009.0
**
 
1084 DW5536 00:00:00:27 3200130000761016.0
**
**
1085 EW2118 00:00:00:27 611421257000351005.8
**
 
1086 DW3857 00:00:00:27 3700000941019.4
**
 
1087 DW3371 00:00:00:27 422425400.020901004.2
**
**
1088 EW5225 00:00:00:27 670135100.430.04971009.1
**
 
1089 CW9055 00:00:00:27 2503190861016.2  
1090 CW3916 00:00:00:27 45002910001001014.1
**
 
1091 EW5986 00:00:00:27 37000000791016.6
**
 
1092 EW3206 00:00:00:27 4726187000916.5
**
 
1093 EW6920 00:00:00:27 34814178000741004.8
**
 
1094 ew4683 00:00:00:27 44000000381018.8
**
 
1095 DW2722 00:00:00:27 51414900581021.9
**
 
1096 FW0069 00:00:00:27 6401347000391016.6
**
 
1097 CW7876 00:00:00:27 37510214000621013.3
**
 
1098 FW0249 00:00:00:27 480315301.060.73971012.6  
1099 DW0915 00:00:00:27 7202990441012.4
**
 
1100 EW0709 00:00:00:27 7012120000101011.5
**
 
1101 FW1480 00:00:00:27 310125000671016.5  
1102 CW3648 00:00:00:27 3102430781015.8
**
 
1103 FW1775 00:00:00:27 3326256000861010.4  
1104 DW6808 00:00:00:28 51000000661015.3
**
 
1105 CW3065 00:00:00:28 5291643000311009.6
**
 
1106 EW7785 00:00:00:28 43183825100.170.0170991.4
**
 
1107 DW8874 00:00:00:28 3800247000511014.9
**
 
1108 EW8409 00:00:00:28 3703221000671014.8
**
 
1109 EW3406 00:00:00:28 3318231000821011.5
**
 
1110 EW4713 00:00:00:28 363420300085997.4
**
 
1111 DW1410 00:00:00:28 427171370.020.170.0698998.4
**
 
1112 DW1779 00:00:00:28 3700263000731015.8
**
 
1113 EW8567 00:00:00:28 182382000781015.8
**
 
1114 DW2052 00:00:00:28 01012.4
**
 
1115 EW9458 00:00:00:28 53000000601015.4
**
 
1116 FW0065 00:00:00:28 803722200.010381018.6
**
 
1117 EW0975 00:00:00:28 36000000681014.6
**
 
1118 FW0865 00:00:00:28 65611130.011.91.9971010.4  
1119 DW9482 00:00:00:28 400026300.130911006.1
**
 
1120 EW1757 00:00:00:28 4700000.0201001004.4
**
 
1121 FW1415 00:00:00:28 370229000.010.01931011.9  
1122 EW1680 00:00:00:28 3100251000741016.6
**
 
1123 DW1496 00:00:00:29 665123540.076.316.31991010.7
**
 
1124 EW8665 00:00:00:29 5835213000521015.6
**
 
1125 EW6222 00:00:00:29 5324183000561006.4  
1126 EW1682 00:00:00:29 2801250000841017.9
**
 
1127 EW4977 00:00:00:29 33000000851012.0
**
 
1128 DW6648 00:00:00:29 421220900.020901004.5
**
 
1129 EW7448 00:00:00:29 700321700.020891008.6  
1130 EW2210 00:00:00:29 4712314000731021.7
**
 
1131 EW4521 00:00:00:29 7814304000261012.2
**
 
1132 EW9556 00:00:00:29 33000000891019.1
**
**
1133 DW9307 00:00:00:29 483660861018.0
**
 
1134 EW0693 00:00:00:29 38913239000761006.8
**
 
1135 EW1590 00:00:00:29 3500163000771018.3
**
 
1136 DW1950 00:00:00:29 401367000791016.7
**
 
1137 EW6045 00:00:00:29 4300001.040761018.2
**
 
1138 EW5770 00:00:00:30 512535900.040911021.0
**
 
1139 CW8484 00:00:00:30 2828212000751012.7
**
 
1140 CW4592 00:00:00:30 6229224000541007.2
**
 
1141 EW3644 00:00:00:30 6700209000291018.8
**
 
1142 CW0962 00:00:00:30 3100227000841013.6
**
 
1143 CW1521 00:00:00:30 7000217000591012.6
**
 
1144 CW9784 00:00:00:30 393612800711000.6  
1145 FW0607 00:00:00:30 4101121000921017.3
**
 
1146 EW6650 00:00:00:30 4800000.270.24831014.9
**
 
1147 FW0270 00:00:00:30 3200276000791012.0
**
 
1148 CW9820 00:00:00:30 0001015.0
**
 
1149 EW4177 00:00:00:30 29000000451016.5
**
 
1150 EW8157 00:00:00:30 290031000671013.5  
1151 DW1328 00:00:00:31 5202750581014.6
**
 
1152 DW7129 00:00:00:31 700029400.230.23971008.6
**
 
1153 DW6145 00:00:00:31 430411000831021.3
**
 
1154 DW6800 00:00:00:31 4000158000761017.2
**
 
1155 EW5834 00:00:00:31 38001400.06711017.6
**
 
1156 DW1967 00:00:00:31 6500000761016.6
**
**
1157 DW0975 00:00:00:31 49111424800681000.0
**
 
1158 CW3684 00:00:00:31 -7005200084999.1
**
 
1159 EW5472 00:00:00:31 4025169000671015.8
**
 
1160 EW8961 00:00:00:31 36510205000631013.7
**
 
1161 EW9980 00:00:00:31 43615180000841010.6
**
 
1162 EW9711 00:00:00:31 74122820000641015.5
**
 
1163 FW0743 00:00:00:31 3516223000771013.3  
1164 EW6412 00:00:00:31 572213200044997.9
**
 
1165 CW6301 00:00:00:31 300432800067970.9
**
 
1166 FW0891 00:00:00:31 46012900681018.0
**
 
1167 EW3043 00:00:00:32 5500233000271030.2
**
**
1168 DW1837 00:00:00:32 32000000831016.3
**
 
1169 CW3556 00:00:00:32 44000000581013.9
**
**
1170 DW5974 00:00:00:32 3622131000861017.5
**
 
1171 EW6490 00:00:00:32 6100204000821018.1
**
 
1172 EW7223 00:00:00:32 661231902.262.25951009.5
**
 
1173 CW4859 00:00:00:32 300025200691015.6
**
 
1174 CW2312 00:00:00:32 360118600.010.01601015.4
**
 
1175 EW8053 00:00:00:32 3100148000771016.8
**
 
1176 EW5993 00:00:00:32 29032700080996.6
**
 
1177 EW3601 00:00:00:32 511529243000441018.0
**
 
1178 DW8701 00:00:00:32 7601316000691011.2
**
 
1179 DW8097 00:00:00:32 4306149000591007.5
**
 
1180 CW8256 00:00:00:33 44000000781018.4
**
 
1181 DW9426 00:00:00:33 5202140000471018.5
**
 
1182 DW7040 00:00:00:33 0001005.3
**
 
1183 CW1508 00:00:00:33 7047244000211015.4  
1184 EW0990 00:00:00:33 471017212000651006.7
**
 
1185 EW1257 00:00:00:33 3447157000701019.0
**
 
1186 EW7507 00:00:00:33 3651121700.080.0888989.3
**
 
1187 EW5780 00:00:00:33 591327100.010.01901018.6
**
 
1188 EW5474 00:00:00:33 3800323000831018.4
**
 
1189 DW5905 00:00:00:33 680023000741010.2
**
 
1190 EW8680 00:00:00:33 460036000062852.9
**
 
1191 DW8045 00:00:00:33 0001014.7
**
 
1192 EW9018 00:00:00:33 75816180000231015.0
**
 
1193 EW8172 00:00:00:33 3300199000971018.1
**
 
1194 FW1168 00:00:00:33 3759148000601009.1  
1195 EW7943 00:00:00:33 904981000271010.9
**
 
1196 DW3740 00:00:00:34 3605163000921018.4
**
**
1197 DW8903 00:00:00:34 395191830.030.180.05991001.0
**
 
1198 DW4717 00:00:00:34 710117700.330.33921010.5
**
 
1199 CW4098 00:00:00:34 690319000221012.8
**
 
1200 FW0094 00:00:00:34 47000000671015.6
**
 
1201 DW6976 00:00:00:34 353627000.020941005.7
**
 
1202 ew4874 00:00:00:34 30021240691015.0
**
 
1203 FW1210 00:00:00:34 2901230000821011.4
**
 
1204 EW5181 00:00:00:34 5237235000841009.0  
1205 FW1497 00:00:00:34 610037000851017.0  
1206 CW5521 00:00:00:35 3901248000671014.5
**
 
1207 EW3539 00:00:00:35 542290000901022.0  
1208 CW1735 00:00:00:35 2900311000691011.3
**
 
1209 EW6980 00:00:00:35 36002370921017.9
**
 
1210 DW8657 00:00:00:35 3300357000721012.5
**
 
1211 EW9598 00:00:00:35 3700326000711013.9
**
 
1212 FW0371 00:00:00:35 5646239000661017.8
**
 
1213 CW5776 00:00:00:35 42813181000651004.0
**
 
1214 DW1304 00:00:00:35 3101329000651016.6
**
 
1215 EW7104 00:00:00:35 5012184000571012.1
**
 
1216 DW8388 00:00:00:36 3504185000741016.5
**
 
1217 EW0401 00:00:00:36 4900286000761018.4
**
 
1218 CW1275 00:00:00:36 5202209000511017.9
**
 
1219 DW9430 00:00:00:36 480029100.810.5931020.0
**
 
1220 CW7395 00:00:00:36 6200187000891017.6
**
 
1221 EW5918 00:00:00:36 680045000371063.7
**
 
1222 DW0452 00:00:00:36 34210237000791014.9
**
 
1223 EW0726 00:00:00:36 5900183000441017.2
**
 
1224 DW3057 00:00:00:36 5531120400.140.14771011.5
**
 
1225 DW2907 00:00:00:36 833513000521015.1
**
 
1226 FW1708 00:00:00:36 2700265000791018.8  
1227 EW7567 00:00:00:37 5412223000311017.2
**
 
1228 CW5834 00:00:00:37 370019900821016.7
**
 
1229 CW2972 00:00:00:37 37000000801017.4
**
 
1230 EW0259 00:00:00:37 4703340.43931014.1
**
 
1231 EW5622 00:00:00:37 5926181000651011.8  
1232 DW6558 00:00:00:37 5412225000671017.6
**
 
1233 EW5096 00:00:00:37 65310268000261016.0
**
 
1234 EW5610 00:00:00:37 3100238000621014.8
**
 
1235 FW0195 00:00:00:37 4600203000711081.3  
1236 FW1525 00:00:00:37 7514218000591011.7  
1237 FW1603 00:00:00:37 610228701.761.76961010.9  
1238 EW9393 00:00:00:37 510014000.010.0154
**
 
1239 EW3081 00:00:00:38 783376000271013.2
**
 
1240 EW7139 00:00:00:38 3635159000801013.5
**
 
1241 EW3055 00:00:00:38 7400141000331012.3
**
 
1242 DW4934 00:00:00:38 2800195000761018.9
**
 
1243 CW3330 00:00:00:38 4461018900.20881005.6
**
**
1244 EW8199 00:00:00:38 3803252000551018.5
**
 
1245 EW1534 00:00:00:38 5306170000731012.1
**
 
1246 EW5131 00:00:00:38 482613700.360.21981009.5
**
 
1247 EW9538 00:00:00:38 510021500.590.53911009.9
**
 
1248 DW8613 00:00:00:38 4301276000761005.2
**
 
1249 DW6996 00:00:00:38 0001013.5
**
 
1250 FW1411 00:00:00:38 4300333000891016.1
**
 
1251 EW8425 00:00:00:38 3401220000741016.3  
1252 DW1461 00:00:00:38 4712060.02911006.8
**
 
1253 CW0750 00:00:00:38 4143120.61871008.9
**
 
1254 DW6328 00:00:00:38 0001013.3
**
 
1255 EW3670 00:00:00:39 3339232000801010.5
**
 
1256 DW4881 00:00:00:39 500017600.280.25831013.7
**
 
1257 EW4685 00:00:00:39 83283300.170.02321016.1
**
 
1258 EW2481 00:00:00:39 3381224200.020.02741014.2
**
 
1259 EW6264 00:00:00:39 4513247000851003.0
**
 
1260 EW3561 00:00:00:39 4800325000801018.3
**
 
1261 EW8675 00:00:00:39 4335349000581020.4
**
 
1262 DW1072 00:00:00:39 3200113000751022.0
**
 
1263 DW1850 00:00:00:39 5300219000531015.2
**
 
1264 FW0143 00:00:00:39 5111171930.030.240.24861005.8
**
 
1265 EW9720 00:00:00:39 561313243000521007.4
**
 
1266 FW1321 00:00:00:39 5531611000791025.6
**
 
1267 EW4540 00:00:00:39 340020000721016.1
**
 
1268 CW5316 00:00:00:40 470425101.291.19891012.0
**
**
1269 DW9101 00:00:00:40 43000000921018.5
**
 
1270 EW7423 00:00:00:40 592333803.263.26961012.3
**
 
1271 EW5139 00:00:00:40 3600115000621017.1
**
 
1272 EW4492 00:00:00:40 53131925100.170.17821012.0
**
 
1273 CW9085 00:00:00:40 6100292000791010.8
**
 
1274 CW2722 00:00:00:40 4100338000901016.8
**
 
1275 DW5696 00:00:00:40 35000000781013.6
**
 
1276 FW0833 00:00:00:40 5233314000301022.7  
1277 EW4856 00:00:00:40 530322203.42.39981018.1
**
 
1278 FW1157 00:00:00:40 451725257000841005.1  
1279 EW5565 00:00:00:40 7800315000611022.6
**
 
1280 FW1589 00:00:00:40 62005000841020.0  
1281 DW6049 00:00:00:41 30000000861015.0
**
 
1282 DW6706 00:00:00:41 450043000861018.3  
1283 DW8414 00:00:00:41 5615177000521013.3
**
 
1284 CW2049 00:00:00:41 576123580.090.10.11771010.6
**
 
1285 EW5478 00:00:00:41 84413167000651030.2
**
 
1286 EW9467 00:00:00:41 430076000921014.2
**
 
1287 DW1630 00:00:00:41 564130481017.5
**
 
1288 EW0112 00:00:00:41 300127400090971.8
**
 
1289 EW9234 00:00:00:41 40710248000701009.7
**
 
1290 EW6216 00:00:00:41 590067000471019.3
**
 
1291 EW9631 00:00:00:41 41000000811011.8
**
 
1292 EW1196 00:00:00:42 3501169000711015.1
**
 
1293 ew7998 00:00:00:42 3326134000711014.9
**
 
1294 CW5071 00:00:00:42 4001380731013.3
**
 
1295 FW0871 00:00:00:42 302430900.010721014.1
**
 
1296 EW5660 00:00:00:42 3500181000711014.0
**
 
1297 FW1085 00:00:00:42 580063000491012.3  
1298 FW1630 00:00:00:42 335822700.040100995.7  
1299 EW2196 00:00:00:42 710000028981.7
**
 
1300 DW7059 00:00:00:43 552622400.09931007.1
**
**
1301 EW7442 00:00:00:43 4961223600.160.16821003.7
**
 
1302 EW6690 00:00:00:43 4631111901.220.66961012.1
**
 
1303 DW8313 00:00:00:43 720286000261017.3
**
 
1304 EW5728 00:00:00:43 3402108000841018.0
**
 
1305 EW4968 00:00:00:43 01017.8
**
 
1306 EW7937 00:00:00:43 6713274000701018.6
**
 
1307 EW7328 00:00:00:43 7100188000481013.0
**
 
1308 EW2024 00:00:00:43 510015000.320.28881014.6
**
 
1309 EW5772 00:00:00:43 48002290.060.070.0780994.7
**
 
1310 EW9139 00:00:00:43 62312250000401040.3
**
 
1311 CW4874 00:00:00:43 3324227000771014.9
**
 
1312 DW7525 00:00:00:43 5957182000221016.7
**
 
1313 EW6431 00:00:00:43 5801070421018.5
**
 
1314 EW4483 00:00:00:44 521627290000531017.9
**
 
1315 DW9761 00:00:00:44 350020600.040.04801014.9
**
 
1316 EW2847 00:00:00:44 15311340000901008.4
**
 
1317 EW5681 00:00:00:44 3400134000721017.0
**
 
1318 DW8734 00:00:00:44 48013230050990.5
**
 
1319 DW9633 00:00:00:44 400446000981011.3
**
 
1320 CW6132 00:00:00:44 5301203000621019.0
**
 
1321 EW2464 00:00:00:44 2700298000781016.4
**
 
1322 DW0984 00:00:00:44 816161500.020481011.6
**
 
1323 EW8189 00:00:00:44 580028100.010.01841016.7
**
 
1324 EW8554 00:00:00:44 260025000821015.5
**
 
1325 CW4655 00:00:00:44 47003370001002.5
**
 
1326 EW2910 00:00:00:44 682433300.010.01941009.5
**
 
1327 DW1028 00:00:00:44 5061233300.060.05601018.1
**
 
1328 EW6276 00:00:00:45 484514400035994.4
**
 
1329 EW3363 00:00:00:45 5031025900.040.02711008.3
**
 
1330 CW3773 00:00:00:45 3500263000641012.8
**
**
1331 DW6345 00:00:00:45 5256177000611019.1
**
 
1332 DW8953 00:00:00:45 36005000891016.5
**
 
1333 DW3798 00:00:00:45 3526174000661016.1
**
 
1334 EW2415 00:00:00:45 68002560221012.1
**
 
1335 DW3201 00:00:00:45 2900264000821012.9
**
 
1336 EW5589 00:00:00:45 37611199000681014.4
**
 
1337 EW6905 00:00:00:45 524918505.940861011.5
**
 
1338 EW2563 00:00:00:45 2902268000771016.6
**
**
1339 EW4859 00:00:00:45 2900114000771021.2
**
 
1340 DW5626 00:00:00:45 55314292000221020.5
**
 
1341 FW1232 00:00:00:45 3923169000741021.5  
1342 CW5049 00:00:00:45 461616900.090.07911012.2
**
 
1343 DW5980 00:00:00:45 802432902.221.81891011.9
**
 
1344 CW6259 00:00:00:46 4921029900.52891011.2
**
 
1345 DW7358 00:00:00:46 360025700.220.22731013.5
**
 
1346 DW2789 00:00:00:46 55122024200.120.12801012.0
**
 
1347 DW7213 00:00:00:46 603416200084
**
 
1348 EW4813 00:00:00:46 4003100.060851001.6
**
 
1349 FW1833 00:00:00:46 3351129400.460.46791009.4
**
 
1350 EW2632 00:00:00:47 2901276000831017.6
**
 
1351 DW6988 00:00:00:47 6900341000231015.6
**
 
1352 EW5726 00:00:00:47 415983000601023.2
**
 
1353 DW4604 00:00:00:47 400424000.010941015.7
**
 
1354 DW8832 00:00:00:47 2900337000901023.0
**
 
1355 DW1049 00:00:00:47 3300360000721017.3
**
 
1356 EW7408 00:00:00:47 311624800.010.01471012.5
**
 
1357 EW8699 00:00:00:47 7600202000281014.1
**
 
1358 DW1157 00:00:00:47 6102130521014.5
**
 
1359 DW8712 00:00:00:48 69927233000461013.0
**
 
1360 CW9088 00:00:00:48 572441180000461000.6
**
 
1361 EW1664 00:00:00:48 481215100.250.04771009.2
**
 
1362 DW4722 00:00:00:48 3201710761014.9
**
 
1363 EW5788 00:00:00:48 3748306000601015.6  
1364 EW6567 00:00:00:48 510424800.230.2851015.4
**
 
1365 DW4073 00:00:00:48 3200326000661014.7
**
 
1366 DW7856 00:00:00:48 4602211000781004.9
**
 
1367 DW0895 00:00:00:48 4300170000621014.9
**
 
1368 CW8919 00:00:00:49 620019202.950941017.3
**
 
1369 CW6012 00:00:00:49 5000309000781018.5
**
 
1370 EW4880 00:00:00:49 5523189000441017.9
**
 
1371 EW8068 00:00:00:49 2225198000771013.6
**
 
1372 EW4360 00:00:00:49 5401268000341017.1
**
 
1373 DW6358 00:00:00:49 6301214000881016.5
**
 
1374 EW4745 00:00:00:49 5300172000621018.6
**
 
1375 EW9838 00:00:00:49 6100242000701019.0
**
 
1376 DW8354 00:00:00:49 3900115000791016.8
**
 
1377 CW5458 00:00:00:49 370091000841012.9
**
 
1378 FW1079 00:00:00:49 457923800501020.1
**
 
1379 FW1422 00:00:00:49 3713163000641017.7  
1380 CW3778 00:00:00:49 32000000791011.5
**
**
1381 DW0479 00:00:00:49 744927500.010.01921011.4
**
 
1382 DW6621 00:00:00:49 2800292000851019.0
**
 
1383 FW0991 00:00:00:49 610093000771020.9
**
 
1384 DW7624 00:00:00:50 6722600.06951010.0
**
 
1385 EW3949 00:00:00:50 456715500901020.6
**
 
1386 EW5092 00:00:00:50 4901185000491014.9
**
 
1387 CW9012 00:00:00:50 6923135000291009.6
**
 
1388 EW8057 00:00:00:50 7100150000331013.0
**
 
1389 EW9216 00:00:00:50 86513256000121009.4
**
 
1390 CW2550 00:00:00:50 421320216000651003.1
**
 
1391 EW9667 00:00:00:50 340066000751010.9
**
 
1392 DW8907 00:00:00:50 55713154000861015.1
**
 
1393 EW2538 00:00:00:50 000984.4
**
 
1394 FW1193 00:00:00:50 420079000761016.9
**
 
1395 DW4821 00:00:00:51 47132027900081996.4
**
 
1396 CW9917 00:00:00:51 430022900.140881005.5
**
 
1397 EW7790 00:00:00:51 3614299000691013.6
**
 
1398 EW3003 00:00:00:51 4600360000851018.7
**
 
1399 EW6696 00:00:00:51 7100193000331010.6
**
 
1400 CW2303 00:00:00:51 4800246000551015.1
**
 
1401 FW0313 00:00:00:51 2700132000881012.3
**
 
1402 EW7773 00:00:00:51 7214322000571014.3
**
 
1403 EW3054 00:00:00:51 660017600.250.131001009.4
**
 
1404 EW5957 00:00:00:51 440018000861019.1
**
 
1405 CW4870 00:00:00:51 390100811015.6
**
 
1406 CW8046 00:00:00:51 410063000811016.7
**
 
1407 EW3332 00:00:00:51 2800890761016.4
**
 
1408 EW3683 00:00:00:52 460013600.920.84981015.0
**
 
1409 EW7045 00:00:00:52 3000252000691015.5
**
 
1410 DW1379 00:00:00:52 5400225000401028.8
**
 
1411 DW2745 00:00:00:52 38011240000701014.5
**
 
1412 CW2428 00:00:00:52 01013.4
**
 
1413 DW5444 00:00:00:52 4710182660.030.210.21951010.2
**
 
1414 DW6252 00:00:00:52 3703238000761005.0
**
 
1415 DW8033 00:00:00:52 730023300.010.01921010.0
**
 
1416 EW6873 00:00:00:52 65015000711024.6
**
 
1417 DW5146 00:00:00:52 3300263000761016.3
**
 
1418 CW5738 00:00:00:52 480000481026.4
**
 
1419 FW0291 00:00:00:52 79000000681015.2  
1420 EW6664 00:00:00:52 282618000.040691010.8
**
 
1421 FW1293 00:00:00:52 26511340000731017.2  
1422 EW4099 00:00:00:52 470029300831021.0
**
 
1423 FW1747 00:00:00:52 49031300.870.04901016.9  
1424 CW0942 00:00:00:52 5582513400.130.12741011.2
**
 
1425 FW1577 00:00:00:52 812935400.160491009.9  
1426 DW0331 00:00:00:53 384620200.280821012.4
**
 
1427 DW9931 00:00:00:53 5481328300.080.08791010.8
**
 
1428 EW4234 00:00:00:53 54410189000611009.3
**
 
1429 EW5270 00:00:00:53 3500138000851018.9
**
 
1430 EW9267 00:00:00:53 3700841019.8
**
 
1431 CW0405 00:00:00:53 3002333000631014.0
**
 
1432 CW8983 00:00:00:53 65002200.010.01691018.1
**
 
1433 CW5896 00:00:00:53 3302590671017.3
**
**
1434 EW8660 00:00:00:53 500013500.580.37821016.1
**
 
1435 CW4253 00:00:00:53 48001840601012.7
**
 
1436 DW0999 00:00:00:54 400110200.010881014.3
**
 
1437 CW4869 00:00:00:54 37710208000761011.9
**
**
1438 DW7621 00:00:00:54 482520100.050851007.1
**
 
1439 EW5347 00:00:00:54 3439257000761009.4
**
 
1440 EW1436 00:00:00:54 3012241340.020.560.0684980.5
**
 
1441 EW2941 00:00:00:54 3400328000891017.4
**
 
1442 DW3695 00:00:00:54 36003440901015.1
**
 
1443 EW4896 00:00:00:54 2800227000791013.5
**
 
1444 EW2470 00:00:00:54 52025100781015.0
**
 
1445 EW5168 00:00:00:54 5500169000451017.7
**
 
1446 EW5543 00:00:00:54 361315233000601002.2
**
 
1447 EW3551 00:00:00:55 5124270000701011.5
**
 
1448 CW7492 00:00:00:55 3103103000731013.2
**
**
1449 EW5995 00:00:00:55 3322113000861015.9
**
 
1450 EW0119 00:00:00:55 41313000.40.0389991.0
**
 
1451 EW5123 00:00:00:55 510198000471014.7
**
 
1452 DW6042 00:00:00:55 5901136000621013.0
**
 
1453 DW8571 00:00:00:55 36005000751016.0
**
 
1454 EW0184 00:00:00:55 5100118000541019.1
**
 
1455 EW8870 00:00:00:55 6336111000331020.4
**
 
1456 EW9334 00:00:00:55 2701125000821017.4
**
 
1457 EW9681 00:00:00:55 3725171000621014.9
**
 
1458 DW9657 00:00:00:55 3749237000791015.3  
1459 CW6038 00:00:00:55 5003186000581013.4
**
 
1460 DW6609 00:00:00:55 3300233000661016.4
**
 
1461 CW9714 00:00:00:55 3972980561016.5
**
 
1462 EW9913 00:00:00:55 29003090801017.1
**
 
1463 EW0050 00:00:00:56 5300100000921020.0
**
**
1464 DW4565 00:00:00:56 42112426200.450.45891000.8
**
**
1465 CW0003 00:00:00:56 27000821013.9
**
**
1466 EW1941 00:00:00:56 270164000821012.2
**
 
1467 EW6074 00:00:00:56 240017800.010.01821013.9
**
 
1468 EW3012 00:00:00:56 360051000941022.2
**
 
1469 DW4212 00:00:00:56 46001920.040.040.01831019.6
**
 
1470 EW2440 00:00:00:56 307180085997.8
**
 
1471 EW2610 00:00:00:56 671131000.110.09961011.1
**
 
1472 EW6363 00:00:00:56 322516500079985.4
**
 
1473 EW0943 00:00:00:56 2911255000751011.3
**
 
1474 EW4149 00:00:00:56 4102293000691021.2
**
 
1475 DW8308 00:00:00:56 2900058986.8
**
 
1476 EW8903 00:00:00:56 3525241000741013.7
**
 
1477 EW5572 00:00:00:56 340527600.20941003.0
**
 
1478 EW9770 00:00:00:56 41002500.010.10.1781017.1
**
 
1479 EW8032 00:00:00:56 503468000751019.7
**
 
1480 FW0327 00:00:00:56 521231500.020.01731009.6  
1481 FW0860 00:00:00:56 7100190000371012.5
**
 
1482 EW3619 00:00:00:56 7300245000331012.9
**
 
1483 FW1667 00:00:00:56 733825700.150.15911009.8
**
 
1484 FW0141 00:00:00:56 6600225000441016.3  
1485 EW6414 00:00:00:57 501425901.161.03951015.5
**
 
1486 EW2663 00:00:00:57 2800116000811020.3
**
 
1487 EW0529 00:00:00:57 53000000431021.8
**
 
1488 DW1377 00:00:00:57 3603170811016.5
**
 
1489 EW4536 00:00:00:57 56383060.030.710.71971012.8
**
 
1490 DW8095 00:00:00:57 373760681008.0
**
 
1491 EW6539 00:00:00:57 2700276000871016.3
**
 
1492 EW7659 00:00:00:57 5000180000531010.0
**
 
1493 EW7849 00:00:00:57 6324256000261002.0
**
 
1494 EW9200 00:00:00:57 3300196000731013.7
**
 
1495 EW9519 00:00:00:57 4441724800.2181998.4
**
 
1496 DW2021 00:00:00:57 28000000841016.4
**
 
1497 DW8691 00:00:00:57 4900170000631018.4
**
 
1498 EW9372 00:00:00:57 6014307000861017.5
**
 
1499 CW4224 00:00:00:58 67021600.050.03881009.0
**
 
1500 EW3105 00:00:00:58 570018600042805.1
**
 
1501 EW5286 00:00:00:58 50710206000411016.4
**
 
1502 EW4525 00:00:00:58 2901287000791014.4
**
 
1503 DW2609 00:00:00:58 4300339000951020.7
**
 
1504 EW0237 00:00:00:58 3000315000751017.3
**
 
1505 DW7197 00:00:00:58 5700254000491017.2
**
 
1506 DW7447 00:00:00:58 353527600.090851001.7
**
 
1507 DW8675 00:00:00:58 2600160000711012.3
**
 
1508 FW1441 00:00:00:58 4600274000611018.5
**
 
1509 EW9746 00:00:00:58 4700135000511012.5
**
 
1510 EW5637 00:00:00:59 2400225000911016.8
**
 
1511 DW7721 00:00:00:59 5000203000541016.4
**
 
1512 EW7586 00:00:00:59 5827175000411017.6
**
 
1513 CW4409 00:00:00:59 574515200.010.01621011.4
**
 
1514 EW3821 00:00:00:59 5038360000501021.3
**
 
1515 EW5294 00:00:00:59 32002620751016.7  
1516 EW8724 00:00:00:59 0334500011014.0
**
 
1517 EW8816 00:00:00:59 2911262000591014.9  
1518 EW9544 00:00:00:59 342414000661015.4
**
 
1519 EW9917 00:00:00:59 50142290.23721015.5  
1520 EW3064 00:00:00:59 5241115100.040.04811012.2
**
 
1521 EW9951 00:00:00:59 7324293000371013.3
**
 
1522 CW9948 00:00:00:59 750133000291011.9
**
 
1523 EW2487 00:00:00:60 740232000281015.5
**
 
1524 EW2786 00:00:00:60 6726228000231017.2
**
 
1525 EW6460 00:00:00:60 5401154000441018.7
**
 
1526 DW3347 00:00:00:60 6700276000721016.8
**
 
1527 DW9005 00:00:00:60 40003500.010.170.16881017.5
**
 
1528 EW7732 00:00:00:60 5433158000491046.7
**
 
1529 EW7824 00:00:00:60 5603167000491013.9
**
 
1530 EW7817 00:00:01:01 5000135000761018.3
**
 
1531 EW6254 00:00:01:01 5504184000581009.1
**
 
1532 EW7634 00:00:01:01 4551619000.020861003.5
**
 
1533 DW3954 00:00:01:01 3200225000661015.5
**
 
1534 DW2107 00:00:01:01 530325079854.3  
1535 EW8758 00:00:01:01 470323700.20881006.0
**
 
1536 EW9296 00:00:01:01 350029500.010671014.1
**
 
1537 CW4171 00:00:01:01 543940841018.7
**
**
1538 DW2113 00:00:01:01 5645202000511109.5
**
 
1539 DW8626 00:00:01:01 500017900.080.02771020.1
**
 
1540 EW0445 00:00:01:01 2701259000781017.1
**
 
1541 EW4645 00:00:01:02 3848290000871007.6
**
 
1542 EW8704 00:00:01:02 3713163631006.7
**
 
1543 DW2736 00:00:01:02 6200291000801018.9
**
**
1544 CW9205 00:00:01:02 520028400.160.16861011.5
**
 
1545 EW0331 00:00:01:02 461422500.120691003.5
**
 
1546 EW4276 00:00:01:02 3636205000621014.6
**
 
1547 EW6928 00:00:01:02 5300196000721022.7
**
 
1548 EW3387 00:00:01:02 3756158000651015.7
**
 
1549 EW0474 00:00:01:02 5403274000631014.5
**
 
1550 EW7606 00:00:01:02 3100215000761016.1
**
 
1551 EW1838 00:00:01:02 800146900.010.01611017.4
**
 
1552 EW3209 00:00:01:02 6200248000911017.3
**
 
1553 EW3427 00:00:01:03 3323160000661009.8
**
 
1554 CW0799 00:00:01:03 513731800.620.25891014.4
**
 
1555 DW5164 00:00:01:03 480241000951022.2
**
 
1556 DW2180 00:00:01:03 2512212000891017.1
**
 
1557 EW3673 00:00:01:03 67231090231012.5
**
 
1558 DW0570 00:00:01:03 3202192000731008.5
**
 
1559 EW0183 00:00:01:03 4200183000761013.7
**
 
1560 EW3020 00:00:01:03 51388600.030.02841019.8
**
 
1561 DW6894 00:00:01:03 7601238000351011.1
**
 
1562 DW3445 00:00:01:03 5238215000811021.4
**
 
1563 DW7364 00:00:01:03 290030600781016.9
**
 
1564 EW4914 00:00:01:03 4200.020901004.5
**
 
1565 DW0332 00:00:01:03 2714301000741014.0
**
 
1566 EW6062 00:00:01:03 5400180000531017.6
**
 
1567 DW7157 00:00:01:03 730127900381012.5
**
 
1568 EW2855 00:00:01:03 4523113000541017.7
**
 
1569 EW4846 00:00:01:03 3924179000701010.2
**
 
1570 EW1295 00:00:01:03 3723304000681016.1
**
 
1571 DW1183 00:00:01:03 5501250000831018.8
**
 
1572 DW4032 00:00:01:03 48272020.010.070.01871007.5
**
 
1573 FW1715 00:00:01:03 77250000281013.8
**
 
1574 EW5353 00:00:01:04 740117000191007.9
**
 
1575 DW8818 00:00:01:04 50019501.020.51901015.6
**
 
1576 DW0465 00:00:01:04 5631024400.010.01341006.1
**
 
1577 EW7653 00:00:01:04 521353000771015.6
**
 
1578 DW2695 00:00:01:04 62015000921018.4
**
 
1579 CW9507 00:00:01:04 2900161000841017.0
**
 
1580 DW8116 00:00:01:04 310024800.010.01761011.9
**
 
1581 DW0861 00:00:01:04 70814201.69921013.1  
1582 DW8492 00:00:01:04 3303221000711020.2
**
 
1583 FW0880 00:00:01:04 7800136000771012.1  
1584 EW3176 00:00:01:04 3500105000861018.4
**
 
1585 DW4725 00:00:01:04 4536337000641016.7
**
 
1586 EW3638 00:00:01:04 511514900.340.15971017.9
**
**
1587 FW0975 00:00:01:04 3400338000911016.5
**
**
1588 EW3662 00:00:01:04 4829307000641013.7
**
 
1589 DW7571 00:00:01:05 3102135000691015.0
**
 
1590 DW4421 00:00:01:05 45000821012.6
**
 
1591 DW1958 00:00:01:05 -2000000851001.0  
1592 EW5375 00:00:01:05 344825500.010.0190995.9
**
 
1593 CW4828 00:00:01:05 6629280.030.860.86971010.1
**
 
1594 EW3246 00:00:01:05 3500237000721016.6
**
 
1595 EW0498 00:00:01:05 2901235000601015.2
**
 
1596 EW1505 00:00:01:05 31000000991010.3
**
 
1597 EW9665 00:00:01:05 48171710.020.140.05911006.7
**
 
1598 CW2988 00:00:01:05 3789184000721010.4
**
 
1599 FW1098 00:00:01:05 3701355000921018.3  
1600 CW4709 00:00:01:05 4803400481017.9
**
**
1601 EW8323 00:00:01:05 3501255000631016.2  
1602 FW1501 00:00:01:05 3451217200.060.06891003.6  
1603 DW5640 00:00:01:06 364641000711012.4
**
 
1604 EW4725 00:00:01:06 7200000471011.9
**
 
1605 DW5707 00:00:01:06 2900203000781016.1
**
 
1606 CW8065 00:00:01:06 3200219000701010.9
**
 
1607 EW8999 00:00:01:06 470023600661016.7
**
 
1608 CW3367 00:00:01:06 701324900.030.02911009.5
**
 
1609 EW9944 00:00:01:06 6200171000851005.0
**
 
1610 FW0136 00:00:01:06 5138265000461019.1  
1611 EW9919 00:00:01:06 6600000781007.9
**
 
1612 EW9875 00:00:01:06 56005300.130.13941013.0
**
 
1613 EW5429 00:00:01:06 001006.9
**
 
1614 EW1553 00:00:01:06 6112281000891019.9
**
 
1615 FW1869 00:00:01:06 37022100.020.030.02981003.3  
1616 CW3318 00:00:01:07 5469140000631008.9
**
 
1617 EW0013 00:00:01:07 6303321000291013.7
**
 
1618 EW3623 00:00:01:07 3913219000661013.9
**
 
1619 EW5925 00:00:01:07 8431291000511015.5
**
 
1620 EW7318 00:00:01:07 3200180000651015.3
**
 
1621 EW1859 00:00:01:07 7101184000371011.7
**
 
1622 EW8495 00:00:01:07 3401169000741017.0
**
 
1623 CW4674 00:00:01:07 4371821000087993.4
**
 
1624 EW8733 00:00:01:07 761268000301013.8
**
 
1625 EW4275 00:00:01:07 5416254000931015.3
**
 
1626 CW4957 00:00:01:07 3011258000741015.1
**
 
1627 EW3767 00:00:01:07 5715138000411018.4
**
 
1628 CW3863 00:00:01:07 5700225000311018.6
**
**
1629 FW1186 00:00:01:07 6402342000441029.1
**
 
1630 FW1405 00:00:01:07 6101150000921019.7
**
 
1631 EW7361 00:00:01:07 385913700085974.4
**
 
1632 EW7690 00:00:01:07 3269338000761016.7
**
 
1633 DW6058 00:00:01:08 460000.010891013.3
**
 
1634 DW8248 00:00:01:08 723517100.010.01941008.9
**
 
1635 EW5256 00:00:01:08 260032100.010891014.5
**
 
1636 DW7441 00:00:01:08 51811165000821010.6
**
 
1637 EW4100 00:00:01:08 4831920.53581013.4
**
 
1638 EW8245 00:00:01:08 7613500201026.0
**
 
1639 DW8081 00:00:01:08 34012240.27581009.0
**
 
1640 EW3832 00:00:01:08 5300282000461015.4
**
 
1641 DW5294 00:00:01:08 4603180751019.5
**
 
1642 EW4156 00:00:01:08 4600301000821020.0
**
 
1643 DW8362 00:00:01:08 2900157000781016.7
**
 
1644 DW9271 00:00:01:08 3524191000671011.1
**
 
1645 CW8779 00:00:01:08 3535152000701014.2
**
 
1646 EW7869 00:00:01:08 370078000641015.8
**
 
1647 EW7364 00:00:01:08 5023158000631237.7
**
 
1648 FW1408 00:00:01:08 4200236000321037.5
**
 
1649 FW1479 00:00:01:08 5011000911021.6  
1650 CW4924 00:00:01:09 3100172000741017.0
**
 
1651 CW6419 00:00:01:09 330021800.020.02811013.2
**
 
1652 DW2363 00:00:01:09 811215331000251015.6
**
 
1653 EW9231 00:00:01:09 5400171000521016.3
**
 
1654 EW1712 00:00:01:09 350418200.190711017.3
**
 
1655 DW1806 00:00:01:09 3982250701013.9
**
 
1656 EW9135 00:00:01:09 640249000811023.1
**
 
1657 FW0310 00:00:01:09 50202250481016.1
**
 
1658 CW4632 00:00:01:09 5111426600.530.52881004.3  
1659 FW0910 00:00:01:09 7113000046
**
 
1660 DW9108 00:00:01:09 7300163000271013.4
**
 
1661 DW6250 00:00:01:09 7302355000711012.2
**
 
1662 FW1015 00:00:01:09 320013500851012.5  
1663 FW1789 00:00:01:09 6661433600.270.11931014.0  
1664 EW7389 00:00:01:10 6023195000291020.7
**
 
1665 EW0095 00:00:01:10 4603180000551016.0
**
 
1666 EW0263 00:00:01:10 8600000501010.5
**
 
1667 DW4139 00:00:01:10 3906248621016.5
**
**
1668 EW4036 00:00:01:10 43132015000.04088994.8
**
 
1669 EW0169 00:00:01:10 4201317400.150.01881000.4
**
 
1670 EW7957 00:00:01:10 44220100851004.0
**
 
1671 EW0636 00:00:01:10 3801243000601018.7
**
 
1672 EW1160 00:00:01:10 3525180000711013.3
**
 
1673 DW8458 00:00:01:10 3813199000881005.0
**
 
1674 EW9485 00:00:01:10 5558155000591011.8
**
 
1675 FW0287 00:00:01:10 4900274000771024.9
**
 
1676 DW4069 00:00:01:10 5803234000451016.0
**
 
1677 FW1198 00:00:01:10 6500314000701019.2  
1678 FW1590 00:00:01:10 594722500044998.2  
1679 EW8501 00:00:01:10 1991318800085726.8
**
 
1680 EW5549 00:00:01:11 5046315000681004.8
**
 
1681 EW5575 00:00:01:11 4300000581013.8
**
 
1682 EW1297 00:00:01:11 3100000711016.2
**
 
1683 EW0811 00:00:01:11 3723207000721013.0
**
 
1684 DW5973 00:00:01:11 0001016.1
**
 
1685 DW5010 00:00:01:11 0001012.0
**
 
1686 DW1774 00:00:01:11 500032000801019.3
**
 
1687 EW1393 00:00:01:11 5569135000571011.7
**
 
1688 CW4591 00:00:01:11 -1102308000831007.3
**
 
1689 DW8215 00:00:01:11 0001007.5  
1690 FW0613 00:00:01:11 4200152000771020.9
**
 
1691 FW0747 00:00:01:11 7300000721010.0
**
 
1692 FW0890 00:00:01:11 73132300.740.74981009.2  
1693 EW3579 00:00:01:11 48581750.050.050.05781008.0
**
 
1694 FW0167 00:00:01:11 5713245000411003.4
**
 
1695 FW0275 00:00:01:11 53002030501018.8  
1696 EW7929 00:00:01:12 310135500093959.1
**
 
1697 EW6694 00:00:01:12 32915238000861011.2
**
 
1698 EW0199 00:00:01:12 2500215000861007.9
**
 
1699 EW1135 00:00:01:12 502516400.820.39961017.4
**
 
1700 EW1486 00:00:01:12 64913169000261017.5
**
 
1701 EW8754 00:00:01:12 3313336000601013.0
**
 
1702 EW9030 00:00:01:12 4824290000281021.8
**
 
1703 EW9209 00:00:01:12 7200000391008.4
**
 
1704 EW1760 00:00:01:12 4347208000691018.2
**
 
1705 FW0907 00:00:01:12 6800000691007.4  
1706 DW7858 00:00:01:12 4500240000871017.7
**
 
1707 CW9699 00:00:01:12 3000316000801018.8
**
 
1708 EW8444 00:00:01:13 3700500781017.6
**
 
1709 CW5008 00:00:01:13 3959143000631015.1
**
**
1710 DW3931 00:00:01:13 3901330000971019.2
**
 
1711 DW5465 00:00:01:13 2700199000841013.2
**
 
1712 EW5351 00:00:01:13 360027500.010561015.2
**
 
1713 DW8589 00:00:01:13 3800000.2801001018.0
**
 
1714 DW9819 00:00:01:13 475111000.010.090.07901014.9
**
 
1715 DW6873 00:00:01:13 533627500057996.8
**
 
1716 EW3165 00:00:01:13 590175000721018.3
**
 
1717 DW4321 00:00:01:13 2900234000721016.5
**
 
1718 EW9949 00:00:01:13 300029200.010.01901005.1
**
 
1719 FW0349 00:00:01:13 62013540401020.7  
1720 CW0965 00:00:01:13 5400167000591009.5
**
 
1721 Dw7854 00:00:01:13 4502319000701017.0
**
 
1722 EW3451 00:00:01:14 2900240000521015.1
**
 
1723 DW4453 00:00:01:14 470232600.820.76981015.7
**
 
1724 DW0880 00:00:01:14 4100177000891021.9
**
 
1725 EW6229 00:00:01:14 2812157000971017.6
**
 
1726 EW6155 00:00:01:14 5212300000251018.6
**
 
1727 FW1706 00:00:01:14 8010158700.010581014.9  
1728 EW4939 00:00:01:15 3712180000541019.5
**
 
1729 EW5064 00:00:01:15 493627000.11821015.4
**
 
1730 EW0056 00:00:01:15 5061325600.070.07391011.7
**
 
1731 EW8599 00:00:01:15 341615300.010.01731013.9
**
 
1732 DW1755 00:00:01:15 390027000.090.09581016.9
**
 
1733 CW7559 00:00:01:15 3802189000711006.5
**
 
1734 EW0157 00:00:00:00 3200336000721017.8
**
 
1735 DW8945 00:00:01:15 3300309000701014.1
**
 
1736 DW8369 00:00:01:15 000000011013.0
**
 
1737 CW0506 00:00:01:15 2700217000821016.1
**
 
1738 EW9089 00:00:01:15 5323318000431022.1
**
 
1739 ew9322 00:00:01:15 5534208000441017.0
**
 
1740 DW4544 00:00:01:15 480400.310.35981005.7
**
 
1741 EW3000 00:00:01:15 300048000761017.9
**
 
1742 EW2895 00:00:01:15 3400209000601016.1
**
 
1743 FW1494 00:00:01:15 751353000581026.4
**
 
1744 DW9429 00:00:01:15 47012810.010.040.04761008.8
**
 
1745 EW4541 00:00:01:16 53512164000781011.7
**
 
1746 DW4756 00:00:01:16 5201218000831021.1
**
 
1747 CW3953 00:00:01:16 29000000851012.2
**
 
1748 EW4096 00:00:01:16 2900303000771016.0
**
 
1749 EW5666 00:00:01:16 510411400.620.29881011.3
**
 
1750 EW4676 00:00:01:16 58510150000351017.3
**
 
1751 DW9169 00:00:01:16 47131570.020.20.08971005.7
**
 
1752 DW1021 00:00:01:16 770064000231013.8
**
 
1753 DW7778 00:00:01:16 630026200521020.8
**
 
1754 FW0822 00:00:01:16 3500231000801019.7  
1755 FW1520 00:00:01:16 630093000821021.3  
1756 dw6112 00:00:01:16 7102319000221014.1
**
 
1757 EW4490 00:00:01:17 51713267000361017.1
**
 
1758 EW5291 00:00:01:17 25000000751014.9
**
 
1759 DW5038 00:00:01:17 01019.8
**
 
1760 EW8309 00:00:01:17 58610192000441012.9
**
 
1761 DW2659 00:00:01:17 410042000861016.3
**
 
1762 EW7483 00:00:01:17 4312212001001007.4
**
 
1763 EW8059 00:00:01:17 330015800077978.1
**
 
1764 EW8557 00:00:01:17 4501343000681016.0
**
 
1765 EW3639 00:00:01:17 36023500611016.3
**
 
1766 DW6576 00:00:01:17 4600252000531017.7
**
 
1767 EW1560 00:00:01:17 6300269000811018.7
**
 
1768 DW6100 00:00:01:17 0001006.4
**
 
1769 DW7973 00:00:01:17 6801810.06911009.3  
1770 DW8292 00:00:01:17 50172924400.090.09761008.3
**
 
1771 FW1748 00:00:01:17 310058000801012.1  
1772 EW6141 00:00:01:17 600194000611018.3
**
 
1773 EW5953 00:00:01:18 740306341013.8
**
 
1774 EW6791 00:00:01:18 3301209000781012.3
**
 
1775 DW4064 00:00:01:18 680019000351013.7
**
 
1776 EW6584 00:00:01:18 4941119800.410.41901013.2
**
 
1777 DW6507 00:00:01:18 581115358000561015.2
**
 
1778 DW1253 00:00:01:18 3041130200.020.02841016.7
**
 
1779 DW2610 00:00:01:18 4928227000531009.2
**
 
1780 EW0924 00:00:01:18 300013000671013.4
**
 
1781 DW9808 00:00:01:18 5000203000611006.1
**
 
1782 CW1324 00:00:01:18 8867139000421015.5
**
 
1783 DW5065 00:00:01:18 2900320000791014.2
**
 
1784 FW0346 00:00:01:18 4421020200.070.01741004.3  
1785 DW7555 00:00:01:18 314515800086966.0
**
 
1786 DW1176 00:00:01:18 3000239000731014.6
**
 
1787 EW5603 00:00:01:19 3100000741015.2
**
 
1788 EW0539 00:00:01:19 5347252000441015.2
**
 
1789 CW7473 00:00:01:19 573913000541015.3
**
 
1790 EW1950 00:00:01:19 270031300.510.4791012.1
**
 
1791 EW6799 00:00:01:19 5801272000571018.0
**
 
1792 EW5232 00:00:01:19 6900293000511012.8
**
 
1793 EW8679 00:00:01:19 470119400059856.2
**
 
1794 EW4941 00:00:01:19 2800341000721012.8
**
 
1795 DW6162 00:00:01:19 291323000711018.2
**
 
1796 DW5078 00:00:01:19 53002980511014.4
**
 
1797 CW5329 00:00:01:19 452786000731019.7
**
 
1798 EW9790 00:00:01:19 3100231000881016.1
**
 
1799 EW9959 00:00:01:19 350011600096990.9
**
 
1800 DW2741 00:00:01:20 390059000801017.4
**
 
1801 EW7004 00:00:01:20 791380000241016.3
**
 
1802 DW6957 00:00:01:20 571014198000491015.3
**
 
1803 CW6764 00:00:01:20 5613263000461019.1
**
 
1804 EW6329 00:00:01:20 4200296000571017.1
**
 
1805 DW6005 00:00:01:20 5236200000551020.7
**
 
1806 EW8742 00:00:01:20 454720300.060871005.8
**
 
1807 FW0334 00:00:01:20 420059000881016.6  
1808 CW9637 00:00:01:20 36310222000691012.0
**
 
1809 CW3699 00:00:01:20 3101211000871009.3
**
**
1810 FW1058 00:00:01:20 6001227000871019.6
**
 
1811 FW1355 00:00:01:20 6702136000711024.2  
1812 FW1444 00:00:01:20 532529200.010.01791011.5  
1813 FW1485 00:00:01:20 5504283000661018.3  
1814 CW2399 00:00:01:21 4700105000561021.4
**
**
1815 DW1024 00:00:01:21 4201162000771017.7
**
 
1816 CW7174 00:00:01:21 3000315000901015.3  
1817 CW9274 00:00:01:21 321330000.060.0694994.5
**
**
1818 DW5194 00:00:01:21 473668000781022.0
**
 
1819 DW5127 00:00:01:21 4300317000891016.8  
1820 DW5624 00:00:01:21 48000000841018.6
**
 
1821 EW4991 00:00:01:21 42101321000701001.9
**
 
1822 FW0062 00:00:01:21 7100315000151016.0
**
 
1823 DW6294 00:00:01:21 49812990.020.520.17891008.0  
1824 FW0441 00:00:01:21 4237203000631003.5  
1825 EW3754 00:00:01:21 3700276000761016.4  
1826 EW2294 00:00:01:22 5959123000361016.0
**
 
1827 EW4720 00:00:01:22 0001016.6
**
 
1828 DW7588 00:00:01:22 260013000851013.7  
1829 DW8529 00:00:01:22 450018400089999.0
**
 
1830 CW8654 00:00:01:22 6391034501.431.43911009.8
**
 
1831 CW9742 00:00:01:22 3704215000601016.3
**
 
1832 CW5204 00:00:01:22 250061000771017.5
**
**
1833 EW3764 00:00:01:22 2600273000901019.8
**
 
1834 CW5699 00:00:01:22 4727249000661013.1
**
 
1835 DW6615 00:00:01:22 3211228000661016.3
**
 
1836 CW4177 00:00:01:22 62033800661016.9
**
**
1837 DW8039 00:00:01:22 440033300.010831007.6
**
 
1838 EW4632 00:00:01:22 50008000471019.0
**
 
1839 CW6508 00:00:01:22 4102160821005.0
**
 
1840 EW9282 00:00:01:22 3249208000771011.2
**
 
1841 CW7674 00:00:01:22 4851021600.170891005.5
**
 
1842 EW5306 00:00:01:22 5521338000531034.3
**
 
1843 EW2958 00:00:01:22 810523000481013.3  
1844 EW0754 00:00:01:22 3659202000701014.4
**
 
1845 EW8307 00:00:01:22 3300324000631011.9  
1846 FW1064 .   
1847 CW8019 00:00:01:23 7323202000751009.9
**
**
1848 CW1767 00:00:01:23 29002000901018.5
**
 
1849 DW8487 00:00:01:23 3448327000781023.2  
1850 cw8630 00:00:01:23 3100190000821012.8
**
 
1851 DW1449 00:00:01:23 43112218900.050961002.7
**
**
1852 CW3109 00:00:01:23 6400277000741017.6
**
**
1853 EW7431 00:00:01:23 270042000851017.9
**
 
1854 CW5324 00:00:01:23 3200000611016.5  
1855 EW0533 00:00:01:23 552634000401018.1
**
 
1856 EW2334 00:00:01:23 3413180000801017.4
**
 
1857 EW8967 00:00:01:23 7302326000191016.7
**
 
1858 CW9914 00:00:01:23 546101940.020.090.021001012.3
**
 
1859 EW5409 00:00:01:23 4000315000631015.2
**
 
1860 EW9574 00:00:01:23 590021500.010.01941016.5
**
 
1861 DW4679 00:00:01:23 7002292000361014.2
**
 
1862 CW8164 00:00:01:23 490229900.290.26951014.8
**
 
1863 EW9864 00:00:01:23 78912304000641023.9  
1864 FW0664 00:00:01:23 5400205000271018.2
**
 
1865 CW2194 00:00:01:23 503516800.250.07841010.1
**
 
1866 CW9451 00:00:01:23 52821012.0
**
 
1867 FW1017 00:00:01:23 55721011.2  
1868 FW1295 00:00:01:23 48811007.9  
1869 FW1165 00:00:01:23 39101016.7  
1870 DW0499 00:00:01:23 4136240000741017.4
**
 
1871 EW1924 00:00:01:23 341224800054965.0
**
 
1872 DW0494 00:00:01:23 460274000821020.0
**
 
1873 CW1136 00:00:01:23 46101622000.220.03100998.2
**
**
1874 CW5619 00:00:01:24 7412286000191014.9
**
 
1875 DW2819 00:00:01:24 381714200.170941003.9
**
 
1876 CW0527 00:00:01:24 28043200.470.43641017.8
**
 
1877 CW4199 00:00:01:24 3701284000731018.6
**
 
1878 EW5284 00:00:01:24 4100144000861016.1
**
 
1879 EW2970 00:00:01:24 48005000711014.4
**
 
1880 CW7959 00:00:01:24 320029000.010891002.3
**
 
1881 DW8887 00:00:01:24 531534000821009.3
**
 
1882 EW9650 00:00:01:24 410023700.01090998.9
**
 
1883 EW5639 00:00:01:24 7422270000841011.5
**
 
1884 FW0508 00:00:01:24 39009000911018.2
**
 
1885 EW4453 00:00:01:24 740011800.080.07941012.7
**
 
1886 FW1442 00:00:01:24 39951023.1  
1887 EW4324 00:00:01:24 2900182000721015.7
**
 
1888 FW1609 00:00:01:24 812713300.090361013.9  
1889 EW8141 00:00:01:24 531470000671009.0
**
 
1890 EW1424 00:00:01:24 3371719800.01081935.6
**
 
1891 EW4447 00:00:01:24 492518000941021.7
**
 
1892 DW0391 00:00:01:25 580024600.020.01701015.6
**
 
1893 CW4141 00:00:01:25 7801324000281012.2
**
 
1894 CW3319 00:00:01:25 39151570631007.7
**
 
1895 CW0214 00:00:01:25 610517300.540921015.7
**
 
1896 DW2394 00:00:01:25 390029300.030941003.2
**
 
1897 DW7379 00:00:01:25 440235100.130901006.5
**
**
1898 EW2138 00:00:01:25 2700196000761013.4
**
 
1899 CW1394 00:00:01:25 52161822800.80.53831009.6
**
**
1900 dw9053 00:00:01:25 26002230851006.4
**
 
1901 DW7037 00:00:01:25 3800298000721018.2
**
 
1902 DW5599 00:00:01:25 75611189000321008.4
**
**
1903 CW7104 00:00:01:25 3600144000661017.0
**
 
1904 DW4071 00:00:01:25 4700352000791019.0
**
**
1905 EW6271 00:00:01:26 515101280.010.20.18861007.2
**
 
1906 EW1847 00:00:01:26 350188000711015.0
**
 
1907 DW8777 00:00:01:26 4114257000621014.5
**
 
1908 EW7067 00:00:01:26 3301294000881015.0
**
 
1909 CW3821 00:00:01:26 5703230000281012.8
**
 
1910 DW6119 00:00:01:26 4301288000791021.6
**
 
1911 CW9659 00:00:01:26 3601358000671017.4
**
 
1912 DW3588 00:00:01:26 6513299000791016.9
**
 
1913 FW0298 00:00:01:26 3616169000671015.4  
1914 CW3451 00:00:01:26 5121214000731013.5
**
 
1915 EW3883 00:00:01:26 3801110000671016.6
**
 
1916 DW2405 00:00:01:26 5261120500.390.18921015.5
**
 
1917 EW2533 00:00:01:27 577868000441019.4
**
 
1918 DW8722 00:00:01:27 49002210551018.5
**
 
1919 DW8230 00:00:01:27 6801279000221014.8
**
 
1920 EW1913 00:00:01:27 3938177000721014.1
**
 
1921 EW6685 00:00:01:27 51610277000441014.4
**
 
1922 EW0624 00:00:01:27 560228000981012.4
**
 
1923 EW3112 00:00:01:27 2900212000841018.4
**
 
1924 DW8868 00:00:01:27 32000000681026.9
**
 
1925 CW0029 00:00:01:27 725716100.40.33861010.5
**
 
1926 DW6401 00:00:01:27 5301295000451009.9
**
 
1927 FW0135 00:00:01:27 2800282000521000.0  
1928 FW0489 00:00:01:27 513922900.490.47961020.4
**
 
1929 CW6875 00:00:01:27 5335236000561019.7
**
**
1930 CW0682 00:00:01:28 5121292360.010.210.21861010.9
**
 
1931 EW2677 00:00:01:28 3200178000821013.3
**
 
1932 DW6302 00:00:01:28 3207290000701016.6
**
 
1933 EW9318 00:00:01:28 3403164000671012.9
**
 
1934 EW2373 00:00:01:28 3802129000651018.5
**
 
1935 EW7984 00:00:01:28 46135301.060.31941011.8
**
 
1936 EW5026 00:00:01:28 3000236000881013.9
**
 
1937 EW5365 00:00:01:28 581243000441018.9
**
 
1938 EW5493 00:00:01:28 3700157000701015.7
**
 
1939 FW1482 00:00:01:28 3624273000701012.6
**
 
1940 EW6284 00:00:01:28 3000260000841013.4
**
 
1941 DW4355 00:00:01:29 5122530.19941017.4
**
 
1942 EW5860 00:00:01:29 2700231000791017.7
**
 
1943 EW5544 00:00:01:29 5136106000911021.0
**
 
1944 CW4787 00:00:01:29 6724328000681017.7
**
 
1945 DW7319 00:00:01:29 470030900.340941007.5
**
 
1946 CW6014 00:00:01:29 2900.060761013.7
**
 
1947 EW3529 00:00:01:29 2522313000891016.7
**
 
1948 DW9994 00:00:01:29 4913258000821008.9  
1949 EW7199 00:00:01:29 530036000901018.4
**
 
1950 CW7849 00:00:01:29 43172520100.1091990.1
**
 
1951 EW4553 00:00:01:29 4524337000831007.1
**
 
1952 CW1773 00:00:01:29 260079000771012.0
**
**
1953 DW7094 00:00:01:29 6100190000901016.8
**
 
1954 EW6442 00:00:01:29 5014209000251018.1
**
 
1955 DW7349 00:00:01:29 6201040411015.7
**
 
1956 EW7094 00:00:01:29 5307118000371008.1
**
 
1957 EW0370 00:00:01:29 6002137000431011.9
**
 
1958 FW1642 00:00:01:29 5347211000491006.7
**
 
1959 CW2750 00:00:01:30 650011000631016.6
**
 
1960 DW2904 00:00:01:30 4000205000941016.5
**
 
1961 DW0110 00:00:01:30 3729272000671014.5
**
 
1962 EW4128 00:00:01:30 3500194000811013.5
**
 
1963 DW6599 00:00:01:30 5400215000441017.9
**
 
1964 CW5039 00:00:01:30 7529348000681023.4
**
**
1965 DW4063 00:00:01:30 3102240821012.9
**
 
1966 EW3272 00:00:01:30 330195000731016.1
**
 
1967 CW8357 00:00:01:30 5202210501015.1
**
 
1968 CW6499 00:00:01:31 831120159000271010.4
**
 
1969 EW2887 00:00:01:31 601217212000441014.2
**
 
1970 EW7244 00:00:01:31 3600260000941020.5
**
 
1971 CW2715 00:00:01:31 5400035839.7
**
 
1972 EW6728 00:00:01:31 48252620.010.060.06951005.8
**
 
1973 DW5411 00:00:01:31 4410340000811016.2
**
 
1974 EW9512 00:00:01:31 38716177000691004.7
**
 
1975 DW5846 00:00:01:31 5600173000581007.8
**
 
1976 DW8824 00:00:01:31 723813800.070.06831015.2
**
 
1977 EW7401 00:00:01:31 5051422600.340.21801007.5
**
 
1978 dw9420 00:00:01:32 27211120721018.0
**
 
1979 EW7923 00:00:01:32 3000282000761016.9
**
 
1980 CW3537 00:00:01:32 630033500048599.8
**
 
1981 EW4782 00:00:01:33 310096000861014.9
**
 
1982 CW8926 00:00:01:33 5900000022999.4
**
 
1983 CW8158 00:00:01:33 000001017.8
**
 
1984 CW6839 00:00:01:33 3627214000671013.3
**
**
1985 CW3794 00:00:01:33 7000265000351014.7
**
**
1986 EW3783 00:00:01:33 5902229000341016.6
**
 
1987 DW0582 00:00:01:33 590014800.180961023.6  
1988 CW0018 00:00:01:33 4502810691017.9
**
 
1989 DW0383 00:00:01:33 2813175000791013.5
**
 
1990 EW2359 00:00:01:33 3501179000671016.1
**
 
1991 EW9581 00:00:01:33 3200264000941018.5
**
 
1992 EW4776 00:00:01:33 3606226000741015.3
**
 
1993 EW1807 00:00:01:33 4601900.061.311.31781014.8
**
 
1994 EW3686 00:00:01:33 4600360000741020.6
**
 
1995 EW0284 00:00:01:33 3200153000821016.2
**
 
1996 FW1296 00:00:01:33 310020600074998.6  
1997 DW1905 00:00:01:33 430024000851015.8
**
 
1998 DW5377 00:00:01:33 33000000911018.4
**
 
1999 CW4829 00:00:01:34 3100192000751015.2
**
 
2000 EW4574 00:00:01:34 340024300071
**
 
2001 CW2670 00:00:01:34 3300193000721016.1
**
 
2002 CW2820 00:00:01:34 0.141006.3
**
 
2003 CW8893 00:00:01:34 7002640631013.1
**
 
2004 CW7668 00:00:01:34 4601319000851019.4
**
 
2005 DW1387 00:00:01:34 34810210000751008.8
**
 
2006 cw4558 00:00:01:35 3526224000681013.9
**
 
2007 EW5206 00:00:01:35 3700303000551020.2
**
 
2008 CW3467 00:00:01:35 4300107000701020.7
**
**
2009 EW5677 00:00:01:35 3732690611015.2  
2010 CW4042 00:00:01:35 710013900.130.13891010.3
**
 
2011 EW5607 00:00:01:35 4900323000741019.9
**
 
2012 EW8132 00:00:01:35 70007000.040.02951009.6
**
**
2013 FW1108 00:00:01:35 3481829000.250.25761008.0
**
 
2014 CW7802 00:00:01:35 6503600361009.9
**
 
2015 EW1880 00:00:01:35 48141724200074997.2
**
 
2016 DW8631 00:00:01:35 5981117400047919.4
**
 
2017 EW4074 00:00:01:35 2800170000871027.8
**
 
2018 FW1702 00:00:01:35 731520600.030.03871011.9
**
 
2019 EW7146 00:00:01:36 389142300.090.0686924.9
**
 
2020 EW8087 00:00:01:36 7001112000441012.7
**
 
2021 DW9442 00:00:01:36 3400242000931022.2
**
**
2022 FW0807 00:00:01:36 4102163000641017.2  
2023 DW7902 00:00:01:37 6001347000921017.7
**
 
2024 EW3760 00:00:01:37 5713284000331020.0
**
 
2025 EW5272 00:00:01:37 4501211000551017.3
**
 
2026 EW7149 00:00:01:37 3200248000651018.6
**
 
2027 DW9306 00:00:01:37 48011280.030.480.27981016.1
**
 
2028 CW1697 00:00:01:37 3135151000921012.6
**
 
2029 EW3182 00:00:01:37 5000152000601017.1
**
 
2030 CW5040 00:00:01:37 5245246000411013.5
**
 
2031 CW6769 00:00:01:37 47251570.080.920.6631011.9  
2032 FW0530 00:00:01:37 2600188000851016.5  
2033 FW1276 00:00:01:37 2800255000901017.9  
2034 CW8815 00:00:01:38 478212500.020.220.19691000.5
**
**
2035 EW3902 00:00:01:38 573498000551017.7
**
 
2036 DW8304 00:00:01:38 47005100.030941008.4
**
 
2037 EW9725 00:00:01:38 320042000781012.7
**
 
2038 EW5721 00:00:01:38 7412209000331010.7
**
 
2039 FW0117 00:00:01:38 720119000391013.0  
2040 FW1234 00:00:01:38 3400283000721012.7
**
 
2041 FW1734 00:00:01:38 480027400.360.35571014.4  
2042 EW8142 00:00:01:39 260000.030.01841012.1
**
 
2043 DW5779 00:00:01:39 5101133000601018.0
**
**
2044 CW7637 00:00:01:39 3000235000581013.8
**
**
2045 EW3303 00:00:01:39 3100000611014.4
**
 
2046 EW8528 00:00:01:39 3000319000761014.4
**
 
2047 DW6880 00:00:01:39 40182720900.180.18100984.3
**
 
2048 EW7909 00:00:01:39 410410900.010861014.7
**
 
2049 EW9186 00:00:01:39 55005000461018.0
**
 
2050 FW0314 00:00:00:01 481611900.520.28961011.4
**
 
2051 DW7022 00:00:01:39 6302340000701017.9
**
 
2052 DW8204 00:00:01:40 6017155000891020.0
**
 
2053 CW8880 00:00:01:40 5301185000541019.1
**
 
2054 DW3152 00:00:01:40 40491820085990.2
**
 
2055 DW2039 00:00:01:40 410024400.240951006.3
**
 
2056 EW7709 00:00:01:40 496168300.020.02581009.6
**
 
2057 EW0152 00:00:01:40 300025000.150.14801015.0
**
 
2058 DW0108 00:00:01:40 570020800441018.9
**
 
2059 EW6655 00:00:01:40 472822500.050961006.8
**
 
2060 EW8780 00:00:01:40 56012210.081.531.46991017.8
**
 
2061 EW7129 00:00:01:40 491429000042823.0
**
 
2062 EW9239 00:00:01:40 3013257000691013.7
**
 
2063 EW2621 00:00:01:40 5500182000361018.9
**
 
2064 DW1734 00:00:01:40 300029000611013.2
**
 
2065 DW7716 00:00:01:40 351422500066972.7  
2066 DW9598 00:00:01:40 280123200.050771013.3
**
 
2067 CW9444 00:00:01:40 4803370781017.1
**
 
2068 FW1123 00:00:01:40 592380000311032.1
**
 
2069 FW0726 00:00:01:40 3800262000761017.3
**
 
2070 EW7638 00:00:01:41 3500157000901017.7
**
 
2071 CW2522 00:00:01:41 2803313000741014.5
**
**
2072 EW6063 00:00:01:41 5301202000451015.8
**
 
2073 DW4273 00:00:01:41 320018100741013.2
**
 
2074 DW9356 00:00:01:41 450047000861019.1
**
 
2075 EW4353 00:00:01:41 54712360000511000.1
**
 
2076 DW7227 00:00:01:41 2813213000791027.2
**
 
2077 EW8213 00:00:01:41 660016500731018.1
**
 
2078 DW5600 00:00:01:41 8517100000301013.0  
2079 FW0701 00:00:01:41 480034000841017.6  
2080 FW1084 00:00:01:41 5491130.28791005.4  
2081 EW0544 00:00:01:41 7433220161015.0
**
 
2082 DW6462 00:00:01:41 3701234000731016.2
**
 
2083 EW5498 00:00:01:42 4624185000681017.0
**
 
2084 CW7772 00:00:01:42 350065000901012.2
**
 
2085 EW0467 00:00:01:42 690118300.020.02881009.6
**
 
2086 CW7832 00:00:01:42 3939211000731013.9
**
 
2087 EW6425 00:00:01:42 3261524900.540.5791007.6
**
 
2088 DW6198 00:00:01:42 310025300.010981021.3
**
 
2089 cw1411 00:00:01:42 31005000811015.4
**
**
2090 DW6942 00:00:01:42 440086000881020.5
**
 
2091 CW6723 00:00:01:42 6300182000851017.3
**
 
2092 EW9506 00:00:01:42 561318228000481004.0
**
 
2093 FW1206 00:00:01:42 482921900.40.24861011.3  
2094 EW4778 00:00:01:42 8871377000711010.2
**
 
2095 EW0820 00:00:01:42 734645000211016.3
**
 
2096 EW5214 00:00:01:43 510023300.680.52921015.7
**
 
2097 DW7303 00:00:01:43 55012490.030.080.08951019.4
**
 
2098 EW6964 00:00:01:43 5102460581013.6
**
 
2099 DW0831 00:00:01:43 5213246000471011.2
**
 
2100 EW1299 00:00:01:43 61000000501020.0
**
 
2101 EW9360 00:00:01:43 460522300.020.27971011.1
**
 
2102 DW7426 00:00:01:43 602836263000461010.7  
2103 DW3625 00:00:01:43 5021219900.780.08821009.1
**
 
2104 EW6430 00:00:01:44 413724900.010911016.3
**
 
2105 EW1765 00:00:01:44 48012100.010.270.24981012.9
**
 
2106 DW3163 00:00:01:44 3300000841014.2
**
 
2107 DW1980 00:00:01:44 3000355000831015.4
**
 
2108 EW1002 00:00:01:44 3302253000661014.4
**
 
2109 DW2797 00:00:01:44 32028800074
**
 
2110 CW8307 00:00:01:44 3401202000741010.9
**
**
2111 DW7807 00:00:01:44 3400222000591020.9
**
 
2112 EW5822 00:00:01:44 54911174000631011.0
**
 
2113 CW4218 00:00:01:44 3900135000711017.4
**
 
2114 EW6409 00:00:01:44 7300288000301011.0
**
 
2115 DW2786 00:00:01:44 300078000841019.5
**
 
2116 DW4642 00:00:01:44 2900311000761014.7
**
 
2117 DW0655 00:00:01:44 2912319000801014.9  
2118 EW6602 00:00:01:44 3003360000841018.9
**
 
2119 CW2664 00:00:01:44 530725500.760.44881014.7
**
 
2120 EW8167 00:00:01:44 6635332000701018.8
**
 
2121 FW0672 00:00:01:44 280024800791018.3  
2122 FW0897 00:00:01:44 3113259000671015.7  
2123 FW1506 00:00:01:44 4191320700077995.1
**
 
2124 EW7107 00:00:01:45 40000000861016.8
**
 
2125 DW2849 00:00:01:45 6102354000951017.7
**
 
2126 CW1793 00:00:01:45 5948221000231011.6
**
 
2127 EW6232 00:00:01:45 330230681014.8
**
 
2128 EW1107 00:00:01:45 422519000.010871014.3
**
 
2129 EW9096 00:00:01:45 5200182000611017.0
**
 
2130 FW0844 00:00:01:45 3525335000641016.9  
2131 EW4335 00:00:01:45 2051113200096990.5
**
 
2132 DW7927 00:00:01:46 3001128000821013.4
**
 
2133 EW6122 00:00:01:46 2700274000771015.2
**
 
2134 EW8130 00:00:01:46 550433900042997.3
**
 
2135 EW7754 00:00:01:46 4601355000611014.5
**
 
2136 EW2886 00:00:01:46 3000202000811015.6
**
 
2137 DW4699 00:00:01:46 3500279000731016.6
**
 
2138 CW3083 00:00:01:46 4601500.28401009.8
**
 
2139 DW9404 00:00:01:46 480322704.250.42871010.8  
2140 DW8219 00:00:01:46 3402286000641015.0
**
**
2141 EW1898 00:00:01:46 2901287000651015.3
**
 
2142 EW2304 00:00:01:46 0001010.4
**
 
2143 DW5978 00:00:01:46 725918500.490.13741012.2
**
 
2144 DW1582 00:00:01:46 732522000.040.04891009.8
**
 
2145 EW3008 00:00:01:46 55002760032741.0
**
 
2146 CW9663 00:00:01:46 3245204000821015.0
**
**
2147 DW2489 00:00:01:46 3211237000651014.9
**
 
2148 EW9158 00:00:01:46 5700133000481012.2
**
 
2149 FW0475 00:00:01:46 4022230.07641008.2  
2150 EW6792 00:00:01:46 6624107000691008.6
**
 
2151 EW2348 00:00:01:47 393653000531015.8
**
 
2152 DW0758 00:00:01:47 058801001011.4
**
 
2153 EW1971 00:00:01:47 2800300000671016.7
**
 
2154 CW6788 00:00:01:47 4100198000671010.3
**
 
2155 EW5718 00:00:01:47 376142350.010.450.4583995.2
**
 
2156 DW4135 00:00:01:47 003400001016.1
**
 
2157 CW7779 00:00:01:47 4761313000811017.0
**
 
2158 DW3403 00:00:01:47 2800311000731014.1
**
 
2159 DW0799 00:00:01:47 3536231000741015.4
**
 
2160 DW0723 00:00:01:47 3000186000731008.2
**
 
2161 CW2343 00:00:01:47 5300171000521018.4  
2162 EW4757 00:00:01:47 300065000781017.7
**
 
2163 DW1898 00:00:01:47 49000000581017.2
**
 
2164 EW2235 00:00:01:47 5451326500.350.27741017.3
**
 
2165 FW1446 00:00:01:47 410227000.070911005.4
**
 
2166 FW1369 00:00:01:47 3504294000681014.8
**
 
2167 EW1179 00:00:01:48 730115000391014.3
**
 
2168 EW6572 00:00:01:48 3500194000811018.4
**
 
2169 DW5435 00:00:01:48 4200140000851016.6
**
 
2170 CW8285 00:00:01:48 3600147000761013.2
**
 
2171 EW1920 00:00:01:48 66113229000401015.6
**
 
2172 CW5091 00:00:01:48 62269400.010391025.1
**
**
2173 CW9346 00:00:01:48 3300202000701015.8
**
 
2174 FW0669 00:00:01:48 700124800.020.02921010.8
**
 
2175 FW0708 00:00:01:48 39310190000631004.9
**
 
2176 EW7213 00:00:01:48 3500200000771016.8
**
 
2177 EW3834 00:00:01:48 5401225000411011.2
**
 
2178 FW1301 00:00:01:48 4858285000951016.7  
2179 CW5507 00:00:01:49 47271760.020.890.88891015.1
**
 
2180 EW4592 00:00:01:49 461536000871016.8
**
 
2181 CW4416 00:00:01:49 6961124300.080.06821009.7
**
 
2182 CW6888 00:00:01:49 2900319000741017.1
**
**
2183 EW5944 00:00:01:49 4000350001019.6
**
 
2184 CW3075 00:00:01:49 0001015.2
**
 
2185 EW0805 00:00:01:49 441724500.050851006.5
**
 
2186 CW8480 00:00:01:49 3303177000781011.0
**
 
2187 CW2220 00:00:01:49 4500342000651018.3
**
 
2188 CW4123 00:00:01:49 3701400.0277995.7
**
 
2189 EW1902 00:00:01:49 6500315000701017.4
**
 
2190 FW0628 00:00:01:49 3300203000911018.3  
2191 FW0700 00:00:01:49 3703264000671016.3
**
 
2192 EW3500 00:00:01:49 5500278000391020.6
**
 
2193 DW5575 00:00:01:49 5000250000731019.1
**
 
2194 FW1598 00:00:01:49 3201267000751006.0  
2195 EW9777 00:00:01:49 5601103000421018.3
**
 
2196 EW5385 00:00:01:50 80514164000551012.3
**
 
2197 EW6018 00:00:01:50 3501208000671016.1
**
 
2198 DW1875 00:00:01:50 46352200.02901002.2
**
 
2199 EW5900 00:00:01:50 6977000.380.38881010.5
**
 
2200 EW3705 00:00:01:50 735921100.10.1891009.7
**
 
2201 CW8878 00:00:01:50 5901240000721020.3
**
 
2202 EW4565 00:00:01:50 40142780.512.20.4494999.4
**
 
2203 CW6122 00:00:01:50 70615000090991.3
**
 
2204 DW8236 00:00:01:50 3915212000701002.7
**
 
2205 DW9755 00:00:01:50 533730100.380.38931016.7
**
 
2206 DW8984 00:00:01:50 59021910.020.150.1981018.1
**
 
2207 CW7925 00:00:01:50 4200247000741017.0
**
**
2208 FW1312 00:00:01:50 5001205000661018.2  
2209 FW1451 00:00:01:50 5757234000441021.2
**
 
2210 DW8470 00:00:01:50 61111828200068
**
**
2211 DW4217 00:00:01:50 4903140000651007.2
**
 
2212 EW4970 00:00:01:51 6600303000701022.9
**
 
2213 EW8295 00:00:01:51 3100231000721016.5
**
 
2214 CW7443 00:00:01:51 3000170000761012.9
**
**
2215 CW6490 00:00:01:51 710066000381013.2
**
**
2216 DW0866 00:00:01:51 62031500.050.240.06971018.1
**
 
2217 CW6975 00:00:01:51 49032280.0110.4941013.5
**
 
2218 CW5494 00:00:01:51 3601133661014.5
**
**
2219 DW2802 00:00:01:51 4913128000511021.9
**
**
2220 DW2640 00:00:01:51 5500215000481014.6
**
 
2221 EW3115 00:00:01:51 3400126000771020.7
**
 
2222 EW1889 00:00:01:51 340034800.010.01691019.6
**
 
2223 DW4207 00:00:01:51 680024300040987.7
**
 
2224 DW7045 00:00:01:51 2700243000861017.8
**
 
2225 EW9978 00:00:01:51 7100037-0.1
**
 
2226 CW0464 00:00:01:51 6625297000331028.8
**
 
2227 DW7030 00:00:01:51 7602230000331012.0
**
 
2228 DW8027 00:00:01:51 44006000951015.8
**
 
2229 EW5463 00:00:01:52 520023600049916.3
**
 
2230 EW8310 00:00:01:52 700139000221011.7
**
 
2231 EW8588 00:00:01:52 4700320000831022.5
**
 
2232 EW5195 00:00:01:52 2900345000861018.2
**
 
2233 EW1735 00:00:01:52 56001150.020.130.05931013.8
**
 
2234 EW3388 00:00:01:52 3836293000651061.7
**
 
2235 EW1620 00:00:01:52 840311700.020401014.7
**
 
2236 EW7041 00:00:01:52 6400298000791017.5
**
 
2237 EW8894 00:00:01:52 7612328000311014.0
**
 
2238 dw6469 00:00:01:52 30001110701014.0
**
 
2239 EW4008 00:00:01:52 5300134000521019.0
**
 
2240 EW8998 00:00:01:52 460073000801018.6
**
 
2241 EW0762 00:00:01:53 3722202000591011.9
**
 
2242 DW5256 00:00:01:53 7700284000291012.0
**
 
2243 CW0028 00:00:01:53 2900261000841016.7
**
 
2244 EW5593 00:00:01:53 4600281000631015.1
**
 
2245 EW2016 00:00:01:53 3200209000871017.3
**
 
2246 EW0644 00:00:01:53 4001880661012.7
**
 
2247 CW2998 00:00:01:53 5437243000431025.4
**
 
2248 EW7698 00:00:01:53 48141500.460.46951014.8
**
 
2249 EW6135 00:00:01:53 460132000901017.1
**
 
2250 DW2453 00:00:01:53 55003400441020.3
**
 
2251 CW9770 00:00:01:53 610210700.01056
**
 
2252 EW9452 00:00:01:53 650034302.582.56981010.2
**
 
2253 FW0018 00:00:01:53 3348185000901002.7  
2254 CW5449 00:00:01:53 4203350501042.7
**
**
2255 DW8973 00:00:01:53 5161119700.860.49871012.5  
2256 FW1267 00:00:01:53 3301255000681022.9  
2257 DW2550 00:00:01:53 3202261000891016.5
**
 
2258 DW6334 00:00:01:54 5900360000871016.9
**
 
2259 DW1105 00:00:01:54 3102510701015.6
**
 
2260 EW6468 00:00:01:54 480043000831017.7
**
 
2261 EW8514 00:00:01:54 3000118000841019.2
**
 
2262 CW5139 00:00:01:54 3200244000811016.0
**
 
2263 FW0422 00:00:01:54 43812184000721004.0
**
 
2264 DW6862 00:00:01:54 452459000801018.8
**
 
2265 EW5988 00:00:01:54 3300201000871016.6
**
 
2266 FW1476 00:00:01:54 3700261000701013.9
**
 
2267 DW2788 00:00:01:54 5541450481018.6
**
 
2268 DW4377 00:00:01:54 330124500073976.3
**
 
2269 DW9446 00:00:01:54 570416200.030.03421017.0
**
 
2270 DW4466 00:00:01:55 3003000751017.8
**
**
2271 EW0427 00:00:01:55 3517188000701017.6
**
 
2272 DW1641 00:00:01:55 4023292000651013.5
**
 
2273 CW0288 00:00:01:55 36814187000711003.4
**
**
2274 DW5056 00:00:01:55 482102350.510.710.11931007.0
**
 
2275 CW8838 00:00:01:55 3400279000661018.2
**
**
2276 CW7408 00:00:01:55 550183000391024.2
**
 
2277 EW8001 00:00:01:55 3300213000741018.7
**
 
2278 EW1851 00:00:01:55 280025600078-110.0
**
 
2279 EW4887 00:00:01:55 3601236000751015.5  
2280 DW1103 00:00:01:55 5035342000601017.3
**
 
2281 DW7920 00:00:01:55 47002330.060.160.06941008.6
**
 
2282 EW6168 .
**
 
2283 EW9280 00:00:01:55 3102190000901017.0
**
 
2284 DW0798 00:00:01:55 3234232000831015.3
**
 
2285 CW8209 00:00:01:55 38512261000751012.1
**
 
2286 DW2201 00:00:01:55 3800304000861018.5  
2287 DW6741 00:00:01:55 2900235000831014.5
**
 
2288 EW8276 00:00:01:55 5800000.070.07861021.9
**
 
2289 DW8099 00:00:01:55 38510208000741014.3
**
 
2290 DW8593 00:00:01:55 370015800.02911015.9
**
 
2291 EW2457 00:00:01:56 0001020.0
**
 
2292 DW0775 00:00:01:56 3842160721013.1
**
 
2293 DW0392 00:00:01:56 3700285000881019.0
**
 
2294 EW5814 00:00:01:56 691226000371017.1
**
 
2295 DW0677 00:00:01:56 500027300.160.15821015.2
**
 
2296 EW1473 00:00:01:56 4003480761018.8
**
 
2297 DW6471 00:00:01:56 3900356000911016.6
**
 
2298 FW1292 00:00:01:56 380011000841021.2  
2299 EW5068 00:00:01:56 37004500571027.7
**
 
2300 DW5753 00:00:01:56 50002250.020.040.04861014.1
**
 
2301 EW1526 00:00:01:57 27210266000631016.7
**
 
2302 DW7261 00:00:01:57 7801259000311012.4
**
 
2303 EW0607 00:00:01:57 6502900361014.7
**
 
2304 CW0060 00:00:01:57 51612190000731011.9
**
**
2305 CW6043 00:00:01:57 541129700411017.4
**
 
2306 EW8003 00:00:01:57 5172318300.340.13821011.3
**
 
2307 DW0860 00:00:01:57 0001017.4
**
 
2308 CW6451 00:00:01:57 384825400.010621014.6
**
 
2309 DW8500 00:00:01:57 3000250000621015.4
**
 
2310 EW3968 00:00:01:57 650068000811018.5
**
 
2311 EW5809 00:00:01:57 7601300000171011.6
**
 
2312 EW2723 00:00:01:57 50000000671014.7
**
 
2313 CW3884 00:00:01:57 620013000851019.1
**
 
2314 DW0326 00:00:01:57 51000000701016.3
**
 
2315 DW3008 00:00:01:57 4951790.39961009.4
**
 
2316 DW1862 00:00:01:57 3400176000671001.5  
2317 EW2020 00:00:01:57 3100205000731018.7
**
 
2318 FW1522 00:00:01:57 2923298000791023.9  
2319 EW8535 00:00:01:57 32411359000611012.4
**
 
2320 CW6387 00:00:01:57 3621870741013.6
**
 
2321 CW9114 00:00:01:58 300112900.030.03861007.4
**
**
2322 DW6086 00:00:01:58 01005.6
**
 
2323 CW0877 00:00:01:58 400054000711017.6
**
 
2324 EW5383 00:00:01:58 690229300.230.2311009.8
**
 
2325 EW5568 00:00:01:58 5900236000721018.0
**
 
2326 CW4834 00:00:01:58 4811640401012.7  
2327 EW1732 00:00:01:58 3000131000701016.8
**
 
2328 EW9288 00:00:01:58 5100142000511019.0
**
 
2329 DW1574 00:00:01:58 280018000.080891016.0
**
 
2330 FW0111 00:00:01:58 631217249000341001.2
**
 
2331 FW0322 00:00:01:58 5456263000321017.0  
2332 FW0474 00:00:01:58 3200333000791017.2
**
 
2333 EW7324 00:00:01:58 310018000083999.4
**
 
2334 FW1278 00:00:01:58 5846288000621007.1  
2335 FW1339 00:00:01:58 4500281000731007.7  
2336 EW1232 00:00:01:59 3135188000771016.5
**
 
2337 EW5465 00:00:01:59 3402291000641016.2
**
 
2338 EW0865 00:00:01:59 6613328000701017.0  
2339 EW7305 00:00:01:59 3447187000691015.0
**
 
2340 DW5664 00:00:01:59 315923400.010.01811010.2
**
 
2341 DW7451 00:00:01:59 3526177000641008.9
**
 
2342 EW2724 00:00:01:59 410069000771017.1
**
 
2343 CW4240 00:00:01:59 5801190000281020.1
**
 
2344 EW3241 00:00:01:59 72003040351014.3
**
 
2345 EW6895 00:00:01:59 5412153000451016.6
**
 
2346 DW4480 00:00:01:59 4641021300.240881004.4
**
 
2347 EW9213 00:00:01:59 61112313900043997.3
**
 
2348 EW8175 00:00:01:59 250136000.010.01761013.2
**
 
2349 FW0063 00:00:01:59 8034251000341014.8  
2350 FW0584 00:00:01:59 46232580.010.010.01941018.0
**
 
2351 DW5262 00:00:01:59 3402293000631017.2
**
 
2352 FW1130 00:00:01:59 51232200.041.850.09791008.9  
2353 EW4259 00:00:01:59 2800192000851016.3
**
 
2354 EW7802 00:00:01:59 480055000791028.7
**
 
2355 FW1778 00:00:01:59 51317202000361020.5  
2356 EW0478 00:00:02:00 2801276000761014.7
**
 
2357 EW1762 00:00:02:00 2900172000831017.7
**
 
2358 EW4921 00:00:02:00 6601274000451013.3
**
 
2359 DW4641 00:00:02:00 3100248000701014.7
**
 
2360 EW6553 00:00:02:00 500092000581018.4
**
 
2361 EW2837 00:00:02:00 481332400.270.25901014.6
**
 
2362 DW7730 00:00:02:00 3900122000931017.7
**
 
2363 EW5676 00:00:02:00 3000169000791017.1  
2364 EW0578 00:00:02:00 542455000351019.6
**
 
2365 CW0562 00:00:02:00 33000000681016.0
**
 
2366 EW4905 00:00:02:00 7402804.882.830311020.9
**
 
2367 EW5254 00:00:02:00 5724115000281011.8
**
 
2368 DW0648 00:00:02:00 2701188000671010.1
**
 
2369 DW3617 00:00:02:00 642263.15961010.4
**
 
2370 DW5744 00:00:02:00 520363000671020.4
**
 
2371 DW0150 00:00:02:00 330013000971019.3
**
 
2372 EW9532 00:00:02:00 5901123000581018.9
**
 
2373 EW5683 00:00:02:00 310098000871015.7
**
 
2374 EW3692 00:00:02:00 3700158000841019.6
**
 
2375 EW2257 00:00:02:00 3101180000671018.8
**
 
2376 CW1141 00:00:02:00 533534000661013.9
**
 
2377 CW7400 00:00:02:01 35000000851019.5
**
 
2378 EW6898 00:00:02:01 6944293000351014.3
**
 
2379 EW5308 00:00:02:01 462716300.020821006.8  
2380 DW1684 00:00:02:01 3423204000761014.8
**
 
2381 EW7946 00:00:02:01 4802232000891022.5
**
 
2382 EW7666 00:00:02:01 4301232000761017.5
**
 
2383 EW7513 00:00:02:01 620135700.010.01891018.2
**
 
2384 EW0698 00:00:02:01 420186000751016.3
**
 
2385 EW0397 00:00:02:01 590032500.180911010.2
**
 
2386 EW9540 00:00:02:01 5502198000241019.3
**
 
2387 EW4079 00:00:02:01 64182622500034990.6  
2388 EW3796 00:00:02:01 55815278000661019.4
**
 
2389 FW0894 00:00:02:01 530026000621018.3  
2390 FW1481 00:00:02:01 3714310000681010.6
**
 
2391 EW2483 00:00:02:02 500327800.240.21851013.6
**
 
2392 EW4862 00:00:02:02 3712117000601015.4
**
 
2393 CW4713 00:00:02:02 70012800091993.4
**
**
2394 EW5423 00:00:02:02 787934000161016.4
**
 
2395 DW7650 00:00:02:02 353627900.20.0489995.7
**
 
2396 CW4054 00:00:02:02 3000206000761017.7
**
 
2397 EW7999 00:00:02:02 5503142000511014.7
**
 
2398 CW0493 00:00:02:02 480021300.410.25891016.8
**
 
2399 DW4414 00:00:02:02 7300315000341013.5
**
 
2400 FW0196 00:00:02:02 6524200000571017.3
**
 
2401 EW4176 00:00:02:02 3701226000691012.1
**
 
2402 EW5644 00:00:02:02 612232134000761010.7
**
 
2403 CW7488 00:00:02:02 430019401.020881006.7
**
 
2404 EW4628 00:00:02:02 7913225000301013.2
**
 
2405 EW9855 00:00:02:02 570116602.781.97991018.4
**
 
2406 EW7707 00:00:02:03 5739182000561010.6
**
 
2407 EW2195 00:00:02:03 3441231500091994.9
**
 
2408 DW3882 00:00:02:03 390057000861017.1
**
 
2409 DW5338 00:00:02:03 496161800401018.0
**
 
2410 EW8393 00:00:02:03 68133900.030.03941008.4  
2411 EW7265 00:00:02:03 3100274000891019.9
**
 
2412 CW8420 00:00:02:03 5800196000311021.1
**
 
2413 DW5632 00:00:02:03 4200336000801016.4
**
 
2414 EW3786 00:00:02:03 32152813500097978.8
**
 
2415 CW8103 00:00:02:03 6311151700.240.02851013.6
**
 
2416 FW1087 00:00:02:03 2513185000761011.2  
2417 FW1669 00:00:02:03 3868151000781010.0
**
 
2418 EW0494 00:00:02:03 6300360000371020.7
**
 
2419 CW0681 00:00:02:04 3768219000771013.8
**
 
2420 CW6097 00:00:02:04 36000000911017.4
**
 
2421 EW0420 00:00:02:04 29031352.15751015.0
**
 
2422 CW8466 00:00:02:04 4703360731010.8
**
 
2423 EW0908 00:00:02:04 5200173000851020.0
**
**
2424 EW5247 00:00:02:04 61074601.371.37951011.8
**
 
2425 EW1965 00:00:02:04 4300141000691017.6
**
 
2426 DW8873 00:00:02:04 7991798000571014.7
**
**
2427 EW9357 00:00:02:04 2801293000781017.9
**
 
2428 CW1428 00:00:02:04 360154064773.4
**
 
2429 FW0786 00:00:02:04 2800354000761015.6  
2430 FW0945 00:00:02:04 64022900771014.5  
2431 CW9798 00:00:02:04 4900282000591014.9
**
 
2432 FW1300 00:00:02:04 6400225000801018.5  
2433 FW1365 00:00:02:04 2801258000841010.9
**
 
2434 CW5517 00:00:02:04 3159269000701013.3
**
 
2435 DW5697 00:00:02:04 5639208000611018.5
**
 
2436 EW7227 00:00:02:04 6300260000931019.0
**
 
2437 DW4719 00:00:02:05 52130911014.0
**
 
2438 DW3228 00:00:02:05 6900000.170.17961010.2
**
 
2439 EW1044 00:00:02:05 470419500601014.8
**
 
2440 EW8124 00:00:02:05 3500207000721013.9
**
 
2441 EW4271 00:00:02:05 4100317000621024.8
**
 
2442 EW6978 00:00:02:05 300013400085995.3
**
 
2443 DW4490 00:00:02:05 500122900.390.16951012.5
**
 
2444 EW6470 00:00:02:05 130132300065992.8
**
 
2445 EW0006 00:00:02:05 4500360000571023.2
**
**
2446 DW7164 00:00:02:05 4192124700.020.0273989.4
**
 
2447 DW8955 00:00:02:05 400013800.010941021.9
**
 
2448 FW0248 00:00:02:05 3800232000811017.0  
2449 EW5808 00:00:02:05 5823344000511019.5
**
 
2450 FW1394 00:00:02:05 4900900.450.32731011.9  
2451 DW1045 00:00:02:06 290028400087989.8
**
 
2452 DW3319 00:00:02:06 400038000931018.3
**
 
2453 CW6342 00:00:02:06 283530200.040741012.7
**
 
2454 CW4672 00:00:02:06 47015400.640.32961013.7
**
 
2455 EW1133 00:00:02:06 511425400.260.22831015.3
**
 
2456 DW0282 00:00:02:06 2800259000811017.4
**
 
2457 CW6004 00:00:02:06 5769181000571006.0
**
 
2458 EW3857 00:00:02:06 4200000811018.1
**
 
2459 DW0931 00:00:02:06 6700121000301012.5
**
 
2460 CW5363 00:00:02:06 4000215000681016.4
**
**
2461 CW1712 00:00:02:06 240128000901016.2
**
 
2462 DW6810 00:00:02:06 500070000661017.5
**
 
2463 DW0687 00:00:02:06 5639191000631005.6
**
 
2464 EW9762 00:00:02:06 3700351000921018.5
**
 
2465 EW3273 00:00:02:06 47242340.010.030.02681025.4
**
 
2466 DW4997 00:00:02:06 6236222000351007.2
**
 
2467 FW0166 00:00:02:06 3400163000771016.1  
2468 EW5799 00:00:02:06 5500148000781018.5
**
 
2469 CW8927 00:00:02:06 5591525100.070.07751010.9
**
 
2470 CW7030 00:00:02:06 3100360000821019.6
**
 
2471 FW0423 00:00:02:06 710020200.010.01931010.2  
2472 FW1714 00:00:02:06 5714288000321028.0  
2473 DW5199 00:00:02:06 7661023400.140.14811011.6
**
 
2474 EW3001 00:00:02:07 5857275000541010.7
**
 
2475 CW5212 00:00:02:07 46681810.010.010.01801000.8
**
 
2476 EW3675 00:00:02:07 5300110000521016.8
**
 
2477 EW5369 00:00:02:07 420073000881016.9
**
 
2478 DW4312 00:00:02:07 7723325000231015.2
**
 
2479 EW4786 00:00:02:07 342421600079985.4
**
 
2480 EW2261 00:00:02:07 4802344000681015.5
**
 
2481 DW2690 00:00:02:07 49259900.680.4931010.6
**
 
2482 CW7364 00:00:02:07 5400350000471017.0
**
 
2483 CW2274 00:00:02:07 702377000211016.3
**
 
2484 EW6899 00:00:02:07 3237171000761013.5
**
 
2485 EW5297 00:00:02:07 7951111500.080.01611015.3
**
 
2486 EW8277 00:00:02:07 3400207000821017.8
**
 
2487 EW6541 00:00:02:07 6434315000791044.3
**
 
2488 EW3124 00:00:02:07 5425202000591008.4
**
 
2489 EW1440 00:00:02:07 4424228000701020.4
**
 
2490 EW0808 00:00:02:07 68711340.062.852.85951011.0
**
 
2491 EW7132 00:00:02:07 32385300.20.0594995.2
**
 
2492 FW0209 00:00:02:07 392377000891026.5
**
 
2493 FW1406 00:00:02:07 4758248000731019.2  
2494 EW8184 00:00:02:07 4700110000841020.6  
2495 EW7739 00:00:02:08 3500261000771010.5
**
 
2496 CW8288 00:00:02:08 6357191000341019.2
**
 
2497 EW5397 00:00:02:08 2800000.040721011.7
**
 
2498 EW7218 00:00:02:08 3700296000801016.6
**
 
2499 CW7445 00:00:02:08 7645215000301013.9
**
**
2500 DW5684 00:00:02:08 4201222000671014.4
**
 
2501 DW3929 00:00:02:08 450014000821018.3
**
 
2502 CW7520 00:00:02:08 87144900.010.01371013.7
**
 
2503 DW4900 00:00:02:08 680126500.120.12981008.2
**
 
2504 DW5641 00:00:02:08 8239208000581014.7
**
 
2505 EW8982 00:00:02:08 3500195000721015.5
**
 
2506 EW9622 00:00:02:08 7013160000381012.8
**
 
2507 CW2463 00:00:02:08 5508144000291016.1
**
 
2508 EW6393 00:00:02:08 550077000551019.5
**
 
2509 EW1275 00:00:02:08 6912130531014.5
**
 
2510 EW4529 00:00:02:08 2900340000851019.5
**
 
2511 FW1867 00:00:02:08 7845114000911014.3  
2512 CW2978 00:00:02:09 6400282000771017.9
**
**
2513 CW1828 00:00:02:09 6979321000271018.8
**
 
2514 EW1671 00:00:02:09 3135169000711016.4
**
 
2515 EW3608 00:00:02:09 5845134000291020.0
**
 
2516 EW9748 00:00:02:09 5100268000531017.0
**
 
2517 CW7644 00:00:02:09 330025900.59075995.2
**
 
2518 DW6168 00:00:02:09 4719283000281021.3
**
 
2519 FW0454 00:00:02:09 373628700.630901003.8
**
 
2520 EW5769 00:00:02:09 6035252000341019.5
**
 
2521 DW4764 00:00:02:09 54310224000271013.1
**
 
2522 DW1811 00:00:02:09 55002280001001017.9
**
 
2523 EW1496 00:00:02:09 620020000421016.5
**
 
2524 DW1389 00:00:02:09 4600355000661017.9
**
 
2525 EW4800 00:00:02:09 3100257000811016.7
**
 
2526 FW1695 00:00:02:09 5715207000351023.7  
2527 CW5391 00:00:02:09 31151400.010711013.8
**
 
2528 CW3179 00:00:02:09 419256049997.0
**
 
2529 DW9309 00:00:02:10 3904000.110.01861005.0
**
 
2530 DW9869 00:00:02:10 464631400.20.2891015.5
**
 
2531 DW6927 00:00:02:10 430080000841017.3
**
 
2532 DW0708 00:00:02:10 4700215000631019.0
**
 
2533 EW5833 00:00:02:10 3505251000751014.0
**
 
2534 EW5643 00:00:02:10 4500149000651017.1
**
 
2535 EW7446 00:00:02:10 6900225000501004.2  
2536 DW1038 00:00:02:10 450810631020.2
**
 
2537 EW5122 00:00:02:10 31112690911018.0
**
 
2538 DW6763 00:00:02:10 490015000801017.7
**
 
2539 EW1298 00:00:02:10 3327154000751006.1
**
 
2540 EW4027 00:00:02:10 601231500.010.01931018.2
**
 
2541 EW2590 00:00:02:10 321321300067
**
 
2542 DW8545 00:00:02:10 3800195000691025.2
**
 
2543 CW3161 00:00:02:10 6300263000541016.3
**
 
2544 DW8340 00:00:02:10 3200276000701015.0
**
 
2545 EW5077 00:00:02:10 4300255000691015.8
**
 
2546 EW6952 00:00:02:10 4000322000831017.2
**
 
2547 EW1814 00:00:02:10 510123001.170.64991017.8
**
 
2548 EW4171 00:00:02:10 3002195000681023.4
**
 
2549 DW9112 00:00:02:10 634113001.681.68791011.4
**
 
2550 EW0171 00:00:02:10 3506199000451009.1
**
 
2551 CW2234 00:00:02:10 7004248000621011.8  
2552 EW9140 00:00:02:10 2800276000921018.4
**
 
2553 DW3099 00:00:02:10 3802540671009.8
**
 
2554 EW3393 00:00:02:10 7000169000351013.4
**
 
2555 DW9409 00:00:02:10 6700277000681016.7
**
 
2556 FW0176 00:00:02:10 581018210000441007.1
**
 
2557 FW0375 00:00:02:10 8141179000591013.2  
2558 CW3400 00:00:02:10 4902350631005.3
**
 
2559 EW0200 00:00:02:10 3400103000711009.8
**
 
2560 FW0113 00:00:02:10 4500159000851017.6  
2561 EW6433 00:00:02:10 77716125000441006.2  
2562 DW2584 00:00:02:10 483988000481021.9
**
 
2563 EW0345 00:00:02:10 270023000731014.5
**
 
2564 EW1362 00:00:02:11 3300178000711016.2
**
 
2565 DW9809 00:00:02:11 38411274000741014.2
**
 
2566 DW2227 00:00:02:11 3400241000801012.6
**
 
2567 CW2026 00:00:02:11 270130100.180791011.1
**
 
2568 EW0651 00:00:02:11 5704196000591009.6
**
 
2569 DW7087 00:00:02:11 4200000.050811006.5
**
**
2570 EW2246 00:00:02:11 3402590891011.4
**
 
2571 CW9478 00:00:02:11 6157101000651018.9
**
 
2572 EW1336 00:00:02:11 4819337000581015.6
**
 
2573 DW9716 00:00:02:11 40112626100.160.16921000.2
**
 
2574 EW9411 00:00:02:11 3223346000681016.1
**
 
2575 EW9845 00:00:02:11 4602189000681017.8
**
 
2576 EW9830 00:00:02:11 022630001014.2
**
 
2577 DW2187 00:00:02:11 3821014803.870761013.2
**
 
2578 FW0690 00:00:02:11 411001021.7  
2579 FW0763 00:00:02:11 7734315000401009.6
**
 
2580 DW8345 00:00:02:11 68058800.040.04871009.9
**
 
2581 EW7991 00:00:02:11 4400104000861016.1
**
 
2582 EW1626 00:00:02:12 48002200541019.2
**
 
2583 DW5690 00:00:02:12 4600260000401018.8
**
 
2584 CW9648 00:00:02:12 4300265000911017.8
**
 
2585 EW3976 00:00:02:12 6511270000731018.4
**
 
2586 EW4534 00:00:02:12 5524247000581001.9
**
 
2587 EW7427 00:00:02:12 30006000741016.5
**
 
2588 EW1915 00:00:02:12 490028400.860.47451012.9
**
 
2589 EW4944 00:00:02:12 3000304000771015.5
**
 
2590 DW7774 00:00:02:12 560212200.890.72931007.8
**
 
2591 DW7765 00:00:02:12 35002360751013.5
**
 
2592 EW0298 00:00:02:12 5471312500.140861008.5
**
 
2593 CW0958 00:00:02:13 561364000421029.3
**
 
2594 EW7788 00:00:02:13 740824500.010.01651014.1
**
 
2595 DW4798 00:00:02:13 7100000301009.0
**
 
2596 DW6857 00:00:02:13 4401315000861014.2
**
 
2597 DW3243 00:00:02:13 47237301.380.58941010.0
**
 
2598 EW7063 00:00:02:13 3335196000741014.9
**
 
2599 DW2494 00:00:02:13 4600159000611013.7
**
 
2600 CW8328 00:00:02:13 5300279000451022.7
**
 
2601 EW0036 00:00:02:13 240068000971022.0
**
 
2602 EW5776 00:00:02:13 3100000801017.5
**
 
2603 DW9768 00:00:02:13 43142830700.10.0275992.4
**
 
2604 DW9043 00:00:02:13 5601161000601023.8
**
 
2605 EW4377 00:00:02:13 530214000261020.1
**
 
2606 EW5041 00:00:02:13 3300158000731015.1
**
 
2607 EW5344 00:00:02:13 3000000741016.9
**
 
2608 FW0103 00:00:02:13 55002770.040.310.01961018.5
**
 
2609 EW5934 00:00:02:13 452620800.190911004.4
**
 
2610 EW3669 00:00:02:13 4900.20961006.0
**
 
2611 EW4883 00:00:02:13 483513801.10.98901014.8
**
 
2612 EW7556 00:00:02:13 47008000.550.28951010.9
**
 
2613 DW5893 00:00:02:13 556221052985.6
**
 
2614 EW0367 00:00:02:14 0001013.3
**
 
2615 CW5283 00:00:02:14 7600346000261010.5
**
 
2616 CW1987 00:00:02:14 3401232000721016.0  
2617 EW2353 00:00:02:14 2800215000891014.6
**
 
2618 EW7498 00:00:02:14 5245227000591006.7
**
 
2619 DW4391 00:00:02:14 440087000641015.2
**
 
2620 DW7488 00:00:02:14 720022300.060.06901010.7
**
 
2621 DW2463 00:00:02:14 3100236000851015.7
**
 
2622 EW8871 00:00:02:14 5203230691017.6
**
 
2623 EW6576 00:00:02:14 760190000361012.4
**
 
2624 EW5824 00:00:02:14 5946168000261015.8
**
 
2625 EW3858 00:00:02:14 5035354000521015.7
**
 
2626 DW2938 00:00:02:14 250026500.030.03831016.2
**
 
2627 DW1073 00:00:02:14 700025201.421.41981011.3  
2628 CW1509 00:00:02:15 3511850701009.7
**
 
2629 EW8080 00:00:02:15 31000000621014.4
**
 
2630 DW9178 00:00:02:15 460019000911022.7
**
 
2631 DW0398 00:00:02:15 3202270000671015.7
**
 
2632 EW2498 00:00:02:15 811822118000861010.8
**
 
2633 EW5612 00:00:02:15 5000162000621018.3
**
 
2634 DW3296 00:00:02:15 6200281000851018.5
**
 
2635 DW7220 00:00:02:15 710024400.190941010.0
**
 
2636 EW8965 .   
2637 DW7149 00:00:02:15 0001014.8
**
 
2638 EW1744 00:00:02:15 3101260000641015.4
**
 
2639 CW3718 00:00:02:15 2901276000911015.5  
2640 EW9706 00:00:02:15 600027400.020961015.9
**
 
2641 EW2056 00:00:02:16 7025287000611013.1
**
 
2642 EW5980 00:00:02:16 430000681016.7
**
 
2643 EW4277 00:00:02:16 4400213000531023.7
**
 
2644 DW8454 00:00:02:16 343717600.010.01651016.7
**
 
2645 DW3060 00:00:02:16 3600229000691015.6
**
 
2646 EW0447 00:00:02:16 903870000401012.3
**
 
2647 EW7930 00:00:02:16 501511000491017.6
**
 
2648 CW9676 00:00:02:16 5735329000331017.8
**
 
2649 EW1917 00:00:02:16 51005600931020.5
**
 
2650 EW9939 00:00:02:16 621217289000831017.1
**
 
2651 FW1298 00:00:02:16 48493400.040.04811015.8
**
 
2652 CW9111 00:00:02:16 460014300.530.33941011.9
**
 
2653 EW0625 00:00:02:17 2700263000821014.3
**
 
2654 CW3879 00:00:02:17 62
**
 
2655 EW0680 00:00:02:17 3469198000731017.6
**
 
2656 EW0490 00:00:02:17 5872124800.430921008.7
**
 
2657 EW7405 00:00:02:17 2401256000821015.3
**
 
2658 DW0851 00:00:02:17 3400273000771018.6
**
 
2659 EW1810 00:00:02:17 529252380.070.30.26761001.9
**
 
2660 EW1809 00:00:02:17 38311880083995.1
**
 
2661 EW9337 00:00:02:17 2500225000861018.3
**
 
2662 DW5042 00:00:02:17 570032000961018.9
**
 
2663 DW9434 00:00:02:17 610090000751016.9
**
 
2664 FW1453 00:00:02:17 2700195000811014.1  
2665 DW0598 00:00:02:17 410337  
2666 EW6388 00:00:02:18 350021900.210891005.4
**
 
2667 EW4692 00:00:02:18 5725103000931017.0
**
 
2668 EW3437 00:00:02:18 55221500841020.4
**
 
2669 CW0608 00:00:02:18 2900277000821017.2
**
**
2670 DW3888 00:00:02:18 3200101000891019.7
**
 
2671 EW4788 00:00:02:18 30009000087997.4
**
 
2672 DW3948 00:00:02:18 2900337000921012.8
**
 
2673 DW1143 00:00:02:18 440023400.090931006.7
**
**
2674 EW2953 00:00:02:18 47001670.050.110.05901006.7
**
 
2675 DW5061 00:00:02:18 5200327000801018.9
**
 
2676 EW5069 00:00:02:18 3535209000671016.8
**
 
2677 DW6378 00:00:02:18 2401263000861014.5
**
 
2678 EW6378 00:00:02:18 3000242000881018.2
**
 
2679 EW8744 00:00:02:18 56111138000441016.4
**
 
2680 EW7042 00:00:02:18 3800294000741019.5
**
 
2681 EW9634 00:00:02:18 5024188000601012.9
**
 
2682 EW1991 00:00:02:18 3101169000721015.3
**
 
2683 CW9995 00:00:02:18 0001009.7
**
 
2684 EW0925 00:00:02:19 3700355000701016.1
**
 
2685 CW4419 00:00:02:19 20359082994.1
**
 
2686 DW9948 00:00:02:19 5223169000531016.5
**
 
2687 CW8217 00:00:02:19 311281000831016.7
**
**
2688 EW7855 00:00:02:19 53611181000721011.0
**
 
2689 EW2144 00:00:02:19 6301570291013.6
**
 
2690 EW5689 00:00:02:19 66032700.01671015.3
**
 
2691 DW0333 00:00:02:19 333212088987.4
**
 
2692 DW7536 00:00:02:19 2600155000861015.5
**
**
2693 DW1191 00:00:02:19 3515360000611001.9
**
 
2694 EW6867 00:00:02:19 360098000821017.9
**
 
2695 EW7204 00:00:02:19 540118000.260.2658
**
 
2696 EW6459 00:00:02:19 000
**
 
2697 DW5678 00:00:02:20 4900253000781021.6
**
 
2698 DW5113 00:00:02:20 631020225000331007.8
**
 
2699 DW9313 00:00:02:20 3858318000911008.3
**
**
2700 CW7558 00:00:02:20 352217000.410.1698989.0
**
 
2701 EW1248 00:00:02:20 280019000831014.1
**
 
2702 CW0570 00:00:02:20 59021170.10.60.281001018.8
**
 
2703 EW5495 00:00:02:20 8148124000561013.7
**
**
2704 CW5174 00:00:02:20 4802110.45981011.0
**
**
2705 EW9688 00:00:02:20 59711248000251015.8
**
 
2706 EW2173 00:00:02:20 501373000521019.6
**
 
2707 DW3733 00:00:02:20 4002180000991023.8
**
 
2708 CW8847 00:00:02:20 55712321000591030.3
**
 
2709 DW3006 00:00:02:20 4421460621014.7
**
 
2710 EW6407 00:00:02:20 6200285000871018.0
**
 
2711 CW9683 00:00:02:20 2800292000851011.7
**
 
2712 EW5945 00:00:02:20 44280000881017.2
**
 
2713 FW1622 00:00:02:20 5808297000491017.3
**
 
2714 EW7059 00:00:02:21 3804135000601012.6
**
 
2715 EW6513 00:00:02:21 2902306000731014.6
**
 
2716 EW6322 00:00:02:21 5846212000441012.0
**
 
2717 DW5478 00:00:02:21 3300252000731010.8
**
 
2718 CW9313 00:00:02:21 8925113000331014.0
**
 
2719 EW7741 00:00:02:21 6101251000851019.0
**
 
2720 DW5724 00:00:02:21 2800290000881019.4
**
 
2721 EW5741 00:00:02:21 36029200881010.3
**
 
2722 FW1216 00:00:02:21 461492000671016.2
**
 
2723 FW1493 00:00:02:21 600092000921014.3
**
 
2724 EW1478 00:00:02:22 410223000.090911005.3
**
 
2725 EW7550 00:00:02:22 73003590.081.191.19901011.2
**
 
2726 CW9968 00:00:02:22 37021820.010.140.14681015.5
**
 
2727 EW8616 00:00:02:22 4951016000.60.34901013.5
**
 
2728 EW8511 00:00:02:22 341815600.030.03641002.1
**
 
2729 EW6005 00:00:02:22 4600336000891020.2
**
 
2730 CW4408 00:00:02:22 5100204000711019.5
**
 
2731 EW4624 00:00:02:22 554732000551015.9
**
 
2732 EW2468 00:00:02:22 8048127000311008.7
**
 
2733 DW6888 00:00:02:22 5000326000611017.2
**
 
2734 EW9093 00:00:02:22 420024000.30911005.3
**
 
2735 DW1453 00:00:02:22 -301148000851001.7
**
 
2736 EW1986 00:00:02:22 37611227000651014.7
**
 
2737 EW7715 00:00:02:22 4834238000631003.5
**
 
2738 CW7368 00:00:02:22 670186000731023.5
**
 
2739 DW2987 00:00:02:22 4400217000861019.2
**
 
2740 CW1038 00:00:02:23 49025000861031.5
**
 
2741 CW3873 00:00:02:23 5412261000401021.8
**
 
2742 DW8548 00:00:02:23 765620200.060501011.0
**
 
2743 CW3418 00:00:02:23 420023400.050901005.9
**
 
2744 EW7823 00:00:02:23 3813269000601013.8
**
 
2745 EW1896 00:00:02:23 4816338000691016.0
**
 
2746 CW4113 00:00:02:23 2901268000781017.8
**
 
2747 EW0413 00:00:02:23 300016000089995.0
**
 
2748 DW7755 00:00:02:23 3500123000861019.4
**
 
2749 EW9963 00:00:02:23 420067000801015.0
**
 
2750 EW8508 00:00:02:23 410015000741005.4
**
 
2751 FW0640 00:00:02:23 4500289000651018.0
**
 
2752 DW2713 00:00:02:23 3715241000651014.3
**
 
2753 FW1188 00:00:02:23 4300000.060771005.9  
2754 EW2655 00:00:02:23 5204189000601013.4
**
 
2755 CW8053 00:00:02:23 53005300.020881021.3
**
 
2756 FW0414 00:00:02:23 37001550851021.6  
2757 DW7321 00:00:02:24 520029500.180.16751014.8
**
 
2758 EW7881 00:00:02:24 551168000441018.0
**
 
2759 EW7874 00:00:02:24 4800213000871022.2
**
 
2760 EW3293 00:00:02:24 3201182000731007.3
**
 
2761 EW6741 00:00:02:24 32000000701016.0
**
 
2762 DW8463 00:00:02:24 3917186000711007.7
**
 
2763 EW1198 00:00:02:24 3900204000621016.7
**
 
2764 DW8088 00:00:02:24 3200215000831013.3
**
 
2765 EW5393 00:00:02:24 365712400085995.5
**
 
2766 DW1373 00:00:02:24 491722300.810.19871011.8
**
**
2767 DW5798 00:00:02:24 4113198000591005.1
**
 
2768 CW4032 00:00:02:24 540018000371014.6
**
 
2769 CW3993 00:00:02:24 5028195000301022.2
**
 
2770 EW7898 00:00:02:24 3600138000651015.1
**
 
2771 EW6525 00:00:02:24 831535000461014.8
**
 
2772 FW0668 00:00:02:24 3600178000661014.6
**
 
2773 EW9803 00:00:02:24 7312192000491019.5
**
 
2774 FW0798 00:00:02:24 4100192000781017.6  
2775 FW1333 00:00:02:24 300031500081990.4  
2776 EW4493 00:00:02:24 2700277000761010.1
**
 
2777 FW1648 00:00:02:24 2700198000911015.9
**
 
2778 CW5468 00:00:02:24 43137800.010961019.1
**
 
2779 FW1799 00:00:02:24 2600297000861016.1
**
 
2780 EW7460 00:00:02:25 2800159000861018.8
**
 
2781 EW6381 00:00:02:25 460021600.110921004.9
**
 
2782 DW4993 00:00:02:25 3558239000891000.0
**
 
2783 DW9882 00:00:02:25 5303263000411016.1
**
 
2784 CW9348 00:00:02:25 5200128000621019.9
**
 
2785 EW3343 00:00:02:25 5413144000441017.7
**
 
2786 FW0258 00:00:02:25 6200180000931015.3
**
 
2787 CW7128 00:00:02:25 3011225000801017.2
**
 
2788 FW1358 00:00:02:25 4102213000591016.9
**
 
2789 EW5703 00:00:02:26 3700214000851018.3
**
 
2790 EW7738 00:00:02:26 3433192000651018.2
**
 
2791 EW6938 00:00:02:26 4800290000551014.0
**
 
2792 CW0198 00:00:02:26 3000145000921018.5
**
 
2793 cw9134 00:00:02:26 3412247000791013.5
**
 
2794 CW1020 00:00:02:26 5900344000451023.2
**
**
2795 DW2935 00:00:02:26 28000631013.8
**
 
2796 DW8245 00:00:02:26 2800228000841017.6
**
 
2797 CW4438 00:00:02:26 4804209000541014.3
**
**
2798 FW0998 00:00:02:26 0001007.1  
2799 FW1243 00:00:02:26 3400162000541026.6
**
 
2800 FW1508 00:00:02:26 351211500.020.02681014.7
**
 
2801 CW3783 00:00:02:27 3300315000711017.6
**
**
2802 EW0648 00:00:02:27 681729400.080.07901009.8
**
 
2803 EW2784 00:00:02:27 2912226000831016.0
**
 
2804 DW5217 00:00:02:27 702929100.490.49901010.6
**
 
2805 FW1035 00:00:02:27 730131300029972.3  
2806 DW7696 00:00:02:27 314815800.650.6572503.2
**
 
2807 EW0230 00:00:02:28 53000000551015.3
**
 
2808 EW4784 00:00:02:28 3624263000681015.8
**
 
2809 DW0793 00:00:02:28 2800223000821016.7
**
**
2810 EW4824 00:00:02:28 491244000531016.6
**
 
2811 DW9907 00:00:02:28 5859185000501010.7
**
 
2812 DW9619 00:00:02:29 2202272000951005.6
**
 
2813 EW6171 00:00:02:29 530075000641017.4
**
 
2814 DW4088 00:00:02:29 55710173000461018.1
**
 
2815 DW6022 00:00:02:29 48004200.040891021.7
**
 
2816 CW2293 00:00:02:29 2800203000861014.8
**
 
2817 EW3837 00:00:02:29 440123800.130881005.9
**
 
2818 EW5713 00:00:02:29 4512267000591016.5
**
 
2819 EW9227 00:00:02:29 001019.5
**
 
2820 EW8434 00:00:02:29 7100293000221016.1
**
 
2821 EW9585 00:00:02:29 5501850341010.0
**
 
2822 FW0088 00:00:02:29 74411143000711018.5  
2823 DW8453 00:00:02:29 40162121101.64087988.8
**
 
2824 DW2871 00:00:02:29 7400275000591012.6
**
 
2825 CW8284 00:00:02:30 76000321012.1
**
 
2826 DW2715 00:00:02:30 4402327000891021.6
**
 
2827 EW3461 00:00:02:30 690318900.020.0211010.9
**
 
2828 EW7349 00:00:02:31 3300302000721001.4
**
 
2829 EW2669 00:00:02:31 545928600.040.04771010.9
**
 
2830 DW8502 00:00:02:31 2900000.10.1901013.6
**
 
2831 EW9723 00:00:02:31 5100290000671019.4
**
 
2832 FW0634 00:00:02:31 50224800084993.6
**
 
2833 FW0775 00:00:02:31 7300237000331014.4
**
 
2834 FW0987 00:00:02:31 7012180000231010.3
**
 
2835 ew4347 00:00:02:32 282323100.030751013.1
**
 
2836 DW8567 00:00:02:32 3603289000681014.7  
2837 CW9887 00:00:02:32 2802690661012.9
**
 
2838 EW6555 00:00:02:32 620136000851018.1
**
 
2839 EW2542 00:00:02:32 8219109000601015.1
**
 
2840 EW0706 00:00:02:32 77000231014.5
**
 
2841 CW6339 00:00:02:32 5804134000481016.1
**
 
2842 EW9138 00:00:02:32 3561050000951023.1
**
 
2843 EW7285 00:00:02:32 4361420500.280.0188997.1
**
 
2844 FW1619 00:00:02:32 43510184000791016.9  
2845 DW5746 00:00:02:32 4800259000551014.4
**
 
2846 EW4582 00:00:02:33 620014000851017.0
**
 
2847 CW9127 00:00:02:33 3900500501017.0
**
 
2848 DW0941 00:00:02:33 3002234000801013.5
**
 
2849 EW2096 00:00:02:33 27000000831015.1
**
 
2850 FW0155 00:00:02:33 38009000.04099997.7
**
 
2851 FW0344 00:00:02:33 43000000911006.2  
2852 FW0428 00:00:02:33 4900249000661017.6  
2853 EW5736 00:00:02:33 490094000761018.6
**
 
2854 FW0872 00:00:02:33 3500317000941018.6  
2855 FW0916 00:00:02:33 331722700.720.72721007.4
**
 
2856 EW7955 00:00:02:33 480228000861020.8
**
 
2857 FW1332 00:00:02:33 3547179000711012.9
**
 
2858 EW5899 00:00:02:33 34152310.010.010.01751014.9
**
 
2859 EW7422 00:00:02:33 4200213000711017.8
**
 
2860 EW5466 00:00:02:34 321115232000841013.2
**
 
2861 EW4117 00:00:02:34 5146152000381017.3
**
 
2862 CW6245 00:00:02:34 576880016733.5
**
 
2863 EW8404 00:00:02:34 2800301000831017.4
**
 
2864 FW0311 00:00:02:34 3100296000761017.2  
2865 CW8935 00:00:02:34 640046000791015.6  
2866 FW0825 00:00:02:34 3201252000811012.4
**
 
2867 DW4590 00:00:02:34 00006.5501015.9
**
**
2868 CW6778 00:00:02:35 280540711016.8
**
 
2869 EW4229 00:00:02:35 2800128000851012.7
**
 
2870 DW2428 00:00:02:35 3100355000711015.6
**
 
2871 EW3298 00:00:02:35 7500148000401012.5
**
 
2872 EW9408 00:00:02:35 430020000861016.8
**
 
2873 EW3923 00:00:02:35 6402318000741019.2
**
 
2874 EW8846 00:00:02:35 7100153000331014.4  
2875 EW7982 00:00:02:36 25000000951016.1
**
 
2876 EW8564 00:00:02:36 47181490.030.30.3971005.4
**
 
2877 EW0679 00:00:02:36 3300288000671013.1
**
 
2878 EW9204 00:00:02:36 290090000811003.1
**
 
2879 EW9508 00:00:02:36 3500202000751011.4
**
 
2880 EW8083 00:00:02:36 75125400034988.9
**
 
2881 DW5488 00:00:02:36 5612490451018.1
**
 
2882 EW7603 00:00:02:36 3572390.01691015.4  
2883 DW9699 00:00:02:36 4610212290.240.240.3133998.6
**
 
2884 EW6933 00:00:02:37 42040000891020.1
**
 
2885 CW1562 00:00:02:37 5449153000691014.9
**
**
2886 cw1367 00:00:02:37 3537261000621015.4
**
 
2887 DW5422 00:00:02:37 600034700861021.4
**
 
2888 EW5249 00:00:02:37 492590001009.1
**
 
2889 EW5663 00:00:02:37 5400330000371000.7
**
 
2890 EW9414 00:00:02:37 60318400085993.1
**
 
2891 FW0413 00:00:02:37 320093000851019.0  
2892 FW0777 00:00:02:37 481232900.820.54961013.5  
2893 EW2066 00:00:02:37 52224001001019.8
**
 
2894 DW1556 00:00:02:37 280000001013.2
**
 
2895 FW1534 00:00:02:37 55382020.030.360.07981010.0  
2896 CW7706 00:00:02:38 5535191000311022.1
**
 
2897 DW8519 00:00:02:38 7523333000241014.5
**
 
2898 EW8187 00:00:02:38 7401315000331014.4
**
 
2899 DW5747 00:00:02:38 380089000831020.3
**
 
2900 EW8931 00:00:02:38 360011000901019.0
**
 
2901 EW9167 00:00:02:38 2700203000861016.3
**
 
2902 DW8008 00:00:02:38 61021890931017.6
**
 
2903 FW1788 00:00:02:38 3261228001.531.47781008.6
**
 
2904 DW1785 00:00:02:39 510025800921019.4
**
 
2905 EW4986 00:00:02:39 5501220000461022.1
**
 
2906 CW5078 00:00:02:39 4300328000751017.5
**
**
2907 DW1382 00:00:02:39 280028100851007.4
**
**
2908 EW3910 00:00:02:39 490515800.460.26961010.4
**
 
2909 FW1650 00:00:02:39 562335212000371007.0
**
 
2910 EW4301 00:00:02:40 28000000701010.9
**
 
2911 CW0825 00:00:02:40 50372700.051.271.121001016.8
**
 
2912 cw4517 00:00:02:40 37000000721010.9
**
 
2913 EW1800 00:00:02:40 44000000771017.2
**
 
2914 EW6926 00:00:02:40 3300161000751020.6
**
 
2915 EW6618 00:00:02:40 6802152000701012.3
**
 
2916 CW5752 00:00:02:40 382218000751015.7
**
 
2917 EW9717 00:00:02:40 5701193000411014.7
**
 
2918 DW7980 00:00:02:40 510216800.870.35881015.0
**
 
2919 FW0864 00:00:02:40 6726291000711015.5
**
 
2920 EW5609 00:00:02:41 3300245000711015.1
**
 
2921 DW5852 00:00:02:41 510125000461027.5
**
**
2922 EW7917 00:00:02:41 2704339000691015.7
**
 
2923 EW0491 00:00:02:41 3100257083987.1
**
 
2924 EW6058 00:00:02:41 28921014.1
**
 
2925 CW0811 00:00:02:41 3000259000701015.7
**
**
2926 EW3660 00:00:02:41 364518008.470551014.3
**
 
2927 EW6078 00:00:02:42 460316400.390.36901014.6
**
 
2928 dw7816 00:00:02:42 3800261000771017.6
**
 
2929 EW8913 00:00:02:42 484822500.730.42901010.8
**
 
2930 FW0354 00:00:02:42 65101570781009.4  
2931 EW9934 00:00:02:42 021201044.3
**
 
2932 EW4564 00:00:02:43 4551521900.150851001.6
**
 
2933 EW6530 00:00:02:43 370069000681017.3
**
 
2934 DW8122 00:00:02:43 2601215000911016.6
**
 
2935 EW3453 00:00:02:43 270050000801018.4
**
 
2936 DW4128 00:00:02:43 3801300961019.8
**
 
2937 CW4691 00:00:02:43 5600153000331018.8
**
 
2938 DW8525 00:00:02:43 5258248511015.6
**
 
2939 CW1890 00:00:02:43 32612180000801000.0
**
 
2940 DW3123 00:00:02:43 35003220.010.040.01951000.7
**
 
2941 EW8889 00:00:02:43 46251880.020.150.02921007.4  
2942 EW1401 00:00:02:43 0001013.9
**
 
2943 EW0407 00:00:02:43 49224500811019.3
**
 
2944 EW3709 00:00:02:44 5700300000731020.1
**
 
2945 DW7718 00:00:02:44 34038100.170941002.6
**
 
2946 CW8392 00:00:02:44 477132150.040.240.01891006.9
**
 
2947 DW5673 00:00:02:44 3400225000791015.4
**
 
2948 EW8494 00:00:02:44 5261030800.030.02731008.9
**
 
2949 DW7259 00:00:02:44 7702214000281012.2
**
 
2950 EW1550 00:00:02:44 0001020.1
**
 
2951 EW2790 00:00:02:44 4000355000861015.9
**
 
2952 EW1214 00:00:02:44 3700181000581016.1
**
 
2953 EW9136 00:00:02:44 342719800.130891004.1
**
 
2954 EW9249 00:00:02:44 3000176000831015.5
**
 
2955 DW7479 00:00:02:44 6600302000841017.2
**
 
2956 FW0569 00:00:02:44 3112258000711016.7
**
 
2957 DW9181 00:00:02:44 2703198000821017.1
**
 
2958 FW1860 00:00:02:44 550028400.10921022.2  
2959 DW8295 00:00:02:45 2801302000791014.0
**
 
2960 DW9501 00:00:02:45 3718347000621014.9
**
 
2961 EW2482 00:00:02:45 3314188000731017.2
**
 
2962 EW3360 00:00:02:45 310020000921020.4
**
 
2963 DW3842 00:00:02:45 4921016400.40.12921011.7
**
 
2964 CW4498 00:00:02:45 5402260000321016.6
**
 
2965 DW6306 00:00:02:45 4000245000681014.3
**
 
2966 EW2580 00:00:02:45 3313211000671016.9
**
 
2967 EW1417 00:00:02:45 3224145000811012.0
**
 
2968 EW0292 00:00:02:45 4700221000601020.0
**
 
2969 EW2930 00:00:02:45 342060
**
 
2970 EW3653 00:00:02:45 2800255000761016.7
**
 
2971 EW8881 00:00:02:45 5100328000551017.0
**
 
2972 EW6942 00:00:02:45 440462000781016.4
**
 
2973 EW5732 00:00:02:45 4623550871004.6
**
 
2974 DW1087 00:00:02:45 551721232000471001.3
**
 
2975 DW6000 00:00:02:45 310332100.020671004.2
**
 
2976 DW8806 00:00:02:45 29131527001.641.61101011.1
**
 
2977 FW1751 00:00:02:45 0001013.9  
2978 EW7965 00:00:02:46 3800340.02831018.2  
2979 DW5627 00:00:02:46 694727600.10.09911008.9
**
 
2980 EW5390 00:00:02:46 3000168000801017.9
**
 
2981 DW9695 00:00:02:46 4961229700.010.01711009.5
**
 
2982 CW6214 00:00:02:46 2900323000861017.6
**
 
2983 EW2456 00:00:02:46 3600102000791017.2
**
 
2984 EW5555 00:00:02:46 610344000861018.2
**
 
2985 EW1168 00:00:02:46 46372560.070.140.07931006.5
**
 
2986 CW3668 00:00:02:47 53912242000361020.7
**
 
2987 DW5508 00:00:02:47 5200249000641019.0
**
 
2988 EW3582 00:00:02:47 4000245000911014.7
**
 
2989 EW8485 00:00:02:47 4800281000791016.2
**
 
2990 DW9584 00:00:02:47 2800155000841018.5
**
 
2991 EW4077 00:00:02:47 7101105000491012.4
**
 
2992 EW8738 00:00:02:47 5000354000581016.5
**
 
2993 EW9304 00:00:02:47 2600108000841004.0
**
 
2994 DW5540 00:00:02:47 571117323000541014.2
**
 
2995 FW0245 00:00:02:47 3304219000751018.6
**
 
2996 FW0286 00:00:02:47 3801199000931016.9
**
 
2997 EW6248 00:00:02:47 2800107000811020.0
**
 
2998 EW9112 00:00:02:47 52497400381012.2
**
 
2999 DW6928 00:00:02:48 3502600751013.9
**
 
3000 CW4952 00:00:02:48 62175401.531.53961008.5
**
 
3001 EW8178 00:00:02:48 3926306000881013.2
**
 
3002 EW7880 00:00:02:48 60152510001001019.5
**
 
3003 FW0023 00:00:02:48 000991.8
**
 
3004 DW4989 00:00:02:48 5406270000611004.8
**
 
3005 DW7984 00:00:02:49 463728300.040771018.7
**
 
3006 CW9669 00:00:02:49 530023300.520.49941016.5
**
 
3007 DW8136 00:00:02:49 3400226000691016.5
**
 
3008 DW4923 00:00:02:49 2800311000921018.4
**
 
3009 EW3291 00:00:02:49 3500132000741018.3
**
 
3010 CW4043 00:00:02:49 454819100.1201001004.9
**
**
3011 EW2727 00:00:02:49 3861033700.010451015.4
**
 
3012 FW0385 00:00:02:49 3416286000631019.1  
3013 CW1740 00:00:02:49 3400213000771014.8
**
 
3014 FW1212 00:00:02:49 220063000901021.4  
3015 EW0632 00:00:02:49 3900192000721017.1
**
 
3016 EW9985 00:00:02:49 6800167000441011.1
**
 
3017 EW0627 00:00:02:50 65483440.011.331.27981009.9
**
 
3018 EW9853 00:00:02:50 3500246000741013.1
**
 
3019 FW0709 00:00:02:50 3621261580.020.30.0296994.9  
3020 EW3567 00:00:02:50 4445700.010961020.4
**
 
3021 DW9800 00:00:02:50 5212273050.010.270.25841010.3
**
 
3022 EW0842 00:00:02:50 461418000.0399995.1
**
 
3023 EW3940 00:00:02:51 54007500.130.11981018.0
**
 
3024 EW6766 00:00:02:51 440028000611013.1
**
 
3025 EW1660 00:00:02:51 394141720.162.050.1799993.2
**
**
3026 EW4411 00:00:02:51 690265000871010.0
**
 
3027 DW4332 00:00:02:51 2702300831016.6
**
 
3028 CW1456 00:00:02:51 42091800.180.1885945.6
**
 
3029 EW5048 00:00:02:51 3300121000691017.0
**
 
3030 EW8804 00:00:02:51 4800246000561019.5
**
 
3031 EW9887 00:00:02:51 580034200321019.5
**
 
3032 FW0266 00:00:02:51 3018200000751019.6  
3033 EW8182 00:00:02:51 3624179000641014.6
**
 
3034 DW9162 00:00:02:52 430039000811017.2
**
 
3035 DW3068 00:00:02:52 36000000851020.0
**
 
3036 ew6034 00:00:02:52 520014000771017.7
**
 
3037 DW9713 00:00:02:52 4300237000571015.8
**
 
3038 EW8522 00:00:02:52 4471825701.090.99811007.7
**
 
3039 FW0194 00:00:02:52 6612209000641014.7
**
 
3040 CW0104 00:00:02:53 300023800.010.01681013.0
**
**
3041 CW4367 00:00:02:53 786120000241014.3
**
 
3042 EW6438 00:00:02:53 2504236000911017.7
**
 
3043 EW7473 00:00:02:53 5402320481017.2
**
 
3044 EW3471 00:00:02:53 2948264000651013.9
**
 
3045 ew9847 00:00:02:53 40001320871017.3
**
 
3046 ew8298 00:00:02:53 8301134000161014.7
**
 
3047 CW7975 00:00:02:53 2800259000861017.1
**
 
3048 DW6438 00:00:02:53 570036000.130911011.2
**
 
3049 CW2125 00:00:02:54 3827215000691013.9
**
 
3050 DW2017 00:00:02:54 26411259000781010.1
**
**
3051 DW6197 00:00:02:54 410084000791017.1
**
 
3052 DW9320 00:00:02:54 33000000821012.9
**
 
3053 DW0807 00:00:02:54 58692420049997.7
**
 
3054 EW4694 00:00:02:54 2600118000911019.4
**
 
3055 DW0462 00:00:02:54 57101820100.050.05651009.0
**
 
3056 DW7647 00:00:02:54 474913900065916.0
**
 
3057 EW9456 00:00:02:54 650111000251016.1
**
 
3058 FW0600 00:00:02:54 8171734000561014.1  
3059 ew0590 00:00:02:54 34002520871015.6
**
 
3060 FW0941 00:00:02:54 4900290000661017.7
**
 
3061 CW2849 00:00:02:54 48141920841019.8
**
 
3062 EW5939 00:00:02:54 342418400.020.02681015.6
**
 
3063 EW7514 00:00:02:55 6500319000571017.6
**
 
3064 EW8703 00:00:02:55 60574100030923.0
**
 
3065 DW5288 00:00:02:55 5624281000541008.0
**
 
3066 CW1780 00:00:02:55 3400281000751015.6
**
**
3067 CW5542 00:00:02:55 32232350.010.110.11691014.1
**
 
3068 EW9945 00:00:02:55 3405105000621017.7
**
 
3069 DW0602 00:00:02:55 4700157000481719.2  
3070 EW3937 00:00:02:55 5152126300.040.04781007.5
**
 
3071 CW5928 00:00:02:55 471430000811013.6  
3072 DW8162 00:00:02:55 2700264000891016.8
**
 
3073 DW1384 00:00:02:55 01008.9
**
 
3074 DW4201 00:00:02:56 640023000741017.3
**
 
3075 CW5377 00:00:02:56 330012900084986.9  
3076 FW0472 00:00:02:56 2700248000721014.4
**
 
3077 FW1526 00:00:02:56 5271534300.090.09751013.8  
3078 FW1790 00:00:02:56 54611018.3
**
**
3079 DW3267 00:00:02:57 5501202000511017.1
**
 
3080 DW0076 00:00:06:16 3900305000821019.6
**
 
3081 CW3996 00:00:02:57 5234112000411020.8
**
**
3082 CW4358 00:00:02:57 350042000881016.5
**
**
3083 EW3302 00:00:02:57 405714700.1493992.3
**
 
3084 DW9780 00:00:02:57 37022450001981.6
**
 
3085 EW4405 00:00:02:57 5000353000751019.1
**
 
3086 EW9807 00:00:02:57 460087000841016.5
**
 
3087 CW3845 00:00:02:57 3671229600.120881007.9  
3088 CW5255 00:00:02:57 2901270000751017.8
**
 
3089 FW1555 00:00:02:57 3300269000621010.1
**
 
3090 CW0636 00:00:02:57 611213247000341004.5
**
 
3091 DW3949 00:00:02:58 3100297000761018.9
**
 
3092 CW5307 00:00:02:58 320028100691015.4
**
**
3093 DW7013 00:00:02:58 4718111000811015.8
**
 
3094 CW9838 00:00:02:58 5100296000821008.0  
3095 FW0295 00:00:02:58 5536216000561014.2  
3096 CW7869 00:00:02:58 5723335000441017.2
**
 
3097 EW8929 00:00:02:58 352228100.010951019.2
**
 
3098 CW5506 00:00:02:58 3102290851013.2
**
 
3099 DW4145 00:00:02:58 3712296000681017.9
**
 
3100 DW5339 00:00:02:59 410167000871022.7
**
**
3101 CW1558 00:00:02:59 471525901.110.89911013.7
**
 
3102 DW7670 00:00:02:59 330631800.050721013.0
**
 
3103 EW3839 00:00:02:59 2800271000711016.9
**
 
3104 EW3244 00:00:02:59 402815000.01088996.9
**
 
3105 EW9330 00:00:02:59 340179000731016.4
**
 
3106 DW6901 00:00:02:59 6879214000701011.0
**
 
3107 EW8019 00:00:02:59 45022540.020.120.04911005.2
**
 
3108 EW1854 00:00:02:59 7414312000191012.9
**
 
3109 EW5756 00:00:03:00 67003460.082.392.39971009.5
**
 
3110 EW7897 00:00:03:00 3702187000491017.7
**
 
3111 DW0552 00:00:03:00 3100231000751013.5
**
 
3112 CW6134 00:00:03:00 4503210891021.1
**
 
3113 DW4700 00:00:03:00 3000248000831016.4
**
 
3114 EW1690 00:00:03:00 4158280000441015.4
**
 
3115 EW1330 00:00:03:00 280130800.020931006.4
**
 
3116 CW9873 00:00:03:00 3000200000831015.5
**
 
3117 EW7831 00:00:03:00 29193025000.26076985.1
**
 
3118 EW9616 00:00:03:00 6422137000551018.0
**
 
3119 CW9711 00:00:03:01 7613348000201016.1
**
 
3120 CW2074 00:00:03:01 420018000881016.6
**
 
3121 EW2169 00:00:03:01 4402690.02951007.7
**
 
3122 Dw8565 00:00:03:01 3612291000731017.1
**
 
3123 EW3028 00:00:03:01 34008400.080.07731013.3
**
 
3124 DW5633 00:00:03:01 4000309000681020.8
**
 
3125 EW6162 00:00:03:01 3201000881014.8
**
 
3126 EW0564 00:00:03:01 01013.9
**
 
3127 EW5034 00:00:03:01 3149172000671010.8
**
 
3128 EW8139 00:00:03:01 290128500083969.2  
3129 FW1562 00:00:03:01 4512184000761018.4
**
 
3130 ew4847 00:00:03:02 4200196000651003.7
**
 
3131 DW1352 00:00:03:02 56915164000581009.0
**
 
3132 DW8785 00:00:03:02 4772330871020.1
**
 
3133 CW5851 00:00:03:02 290238000751013.2
**
 
3134 EW5307 00:00:03:02 43712212000791003.4
**
 
3135 DW8741 00:00:03:02 310117200075990.0
**
 
3136 FW0466 00:00:03:02 3901219000601019.1  
3137 DW4669 00:00:03:03 2800236000811016.1
**
 
3138 DW4762 00:00:03:03 330022300811016.2
**
 
3139 DW4869 00:00:03:03 5122000.45891013.4
**
 
3140 EW5812 00:00:03:03 4781125000481018.8
**
 
3141 CW6462 00:00:03:03 3300214000741017.8
**
 
3142 FW1037 00:00:03:03 6900185000601012.9  
3143 EW6548 00:00:03:03 3101213000831018.2
**
 
3144 DW3636 00:00:03:03 733825100.10.1901011.5  
3145 CW1227 00:00:03:03 292521800.070.04731010.7
**
 
3146 EW6674 00:00:03:04 4024360000891020.4
**
 
3147 DW5657 00:00:03:04 3901322000651015.7
**
 
3148 EW2537 00:00:03:04 550131200741020.6
**
 
3149 DW2028 00:00:03:04 4600360000811016.3
**
 
3150 EW5157 00:00:03:04 3800144000581015.5
**
 
3151 EW6612 00:00:03:04 590018800.450.01941017.8
**
 
3152 EW2748 00:00:03:04 3700305000851018.1
**
 
3153 EW1076 00:00:03:04 52022510.030.180.17851010.8
**
 
3154 DW2994 00:00:03:04 7500221000291014.0
**
 
3155 CW6404 00:00:03:04 2900283000871016.9
**
 
3156 CW4290 00:00:03:04 4202540671016.3  
3157 EW5854 00:00:03:04 30008900.010691013.3
**
 
3158 EW2889 00:00:03:04 0001018.1
**
 
3159 CW9060 00:00:03:04 55616187000821012.4
**
 
3160 FW1557 00:00:03:04 0991.1  
3161 EW4775 00:00:03:04 2903070671015.6
**
 
3162 EW2717 00:00:03:05 8831010000431010.3
**
 
3163 EW7347 00:00:03:05 410021900.030931005.2
**
 
3164 EW9123 00:00:03:05 3435172000731017.4
**
 
3165 EW2801 00:00:03:05 6075080990.6
**
 
3166 DW3308 00:00:03:05 28000000841017.0
**
 
3167 DW9989 00:00:03:05 700429600.050.04931008.8
**
 
3168 EW4758 00:00:03:06 69008900.070.07911010.4
**
 
3169 EW0299 00:00:03:06 430024500.160841005.8
**
 
3170 cw3007 00:00:03:06 55131400451018.2
**
 
3171 EW5987 00:00:03:06 4561016000841016.4
**
 
3172 EW7003 00:00:03:06 477112670<